<?xml version="1.0" encoding="UTF-8" standalone="no" ?>
<gpx xmlns="http://www.topografix.com/GPX/1/1" xmlns:xsi="http://www.w3.org/2001/XMLSchema-instance" xsi:schemaLocation="http://www.topografix.com/GPX/1/1 http://www.topografix.com/GPX/1/1/gpx.xsd" version="1.1" creator="VisuGPX - https://www.visugpx.com">
  <metadata>
    <name>Tour du Viso</name>
    <desc><![CDATA[5 jours autour du Viso ]]></desc>
  </metadata>
  <trk>
    <name><![CDATA[13 juil. 2022]]></name>
    <desc><![CDATA[comment ...]]></desc>
    <extensions>
      <line xmlns="http://www.topografix.com/GPX/gpx_style/0/2">
        <color>00FF00</color>
        <width>4</width>
      </line>
    </extensions>
    <trkseg>
      <trkpt lat="44.66573" lon="7.06431">
        <ele>2504</ele>
        <time>2022-07-13T06:34:19Z</time>
      </trkpt>
      <trkpt lat="44.66574" lon="7.0643">
        <ele>2508</ele>
        <time>2022-07-13T06:34:20Z</time>
      </trkpt>
      <trkpt lat="44.66581" lon="7.06433">
        <ele>2508</ele>
        <time>2022-07-13T06:34:29Z</time>
      </trkpt>
      <trkpt lat="44.66587" lon="7.06432">
        <ele>2486</ele>
        <time>2022-07-13T06:34:35Z</time>
      </trkpt>
      <trkpt lat="44.66595" lon="7.06421">
        <ele>2461</ele>
        <time>2022-07-13T06:36:17Z</time>
      </trkpt>
      <trkpt lat="44.66606" lon="7.06413">
        <ele>2452</ele>
        <time>2022-07-13T06:36:27Z</time>
      </trkpt>
      <trkpt lat="44.66612" lon="7.06402">
        <ele>2442</ele>
        <time>2022-07-13T06:36:42Z</time>
      </trkpt>
      <trkpt lat="44.66608" lon="7.06391">
        <ele>2437</ele>
        <time>2022-07-13T06:36:56Z</time>
      </trkpt>
      <trkpt lat="44.66599" lon="7.0639">
        <ele>2434</ele>
        <time>2022-07-13T06:37:10Z</time>
      </trkpt>
      <trkpt lat="44.666" lon="7.06377">
        <ele>2426</ele>
        <time>2022-07-13T06:37:21Z</time>
      </trkpt>
      <trkpt lat="44.66602" lon="7.06364">
        <ele>2426</ele>
        <time>2022-07-13T06:37:33Z</time>
      </trkpt>
      <trkpt lat="44.666" lon="7.0635">
        <ele>2428</ele>
        <time>2022-07-13T06:37:44Z</time>
      </trkpt>
      <trkpt lat="44.66595" lon="7.0634">
        <ele>2428</ele>
        <time>2022-07-13T06:37:57Z</time>
      </trkpt>
      <trkpt lat="44.66589" lon="7.06331">
        <ele>2427</ele>
        <time>2022-07-13T06:38:08Z</time>
      </trkpt>
      <trkpt lat="44.66583" lon="7.0632">
        <ele>2426</ele>
        <time>2022-07-13T06:38:18Z</time>
      </trkpt>
      <trkpt lat="44.66576" lon="7.06309">
        <ele>2423</ele>
        <time>2022-07-13T06:38:29Z</time>
      </trkpt>
      <trkpt lat="44.66571" lon="7.06299">
        <ele>2421</ele>
        <time>2022-07-13T06:38:37Z</time>
      </trkpt>
      <trkpt lat="44.66566" lon="7.0627">
        <ele>2416</ele>
        <time>2022-07-13T06:39:01Z</time>
      </trkpt>
      <trkpt lat="44.6656" lon="7.0626">
        <ele>2420</ele>
        <time>2022-07-13T06:40:12Z</time>
      </trkpt>
      <trkpt lat="44.66553" lon="7.0625">
        <ele>2421</ele>
        <time>2022-07-13T06:40:23Z</time>
      </trkpt>
      <trkpt lat="44.66545" lon="7.06242">
        <ele>2424</ele>
        <time>2022-07-13T06:40:29Z</time>
      </trkpt>
      <trkpt lat="44.66533" lon="7.06223">
        <ele>2427</ele>
        <time>2022-07-13T06:40:45Z</time>
      </trkpt>
      <trkpt lat="44.66526" lon="7.06214">
        <ele>2430</ele>
        <time>2022-07-13T06:40:54Z</time>
      </trkpt>
      <trkpt lat="44.66519" lon="7.06205">
        <ele>2432</ele>
        <time>2022-07-13T06:41:05Z</time>
      </trkpt>
      <trkpt lat="44.66513" lon="7.06195">
        <ele>2433</ele>
        <time>2022-07-13T06:41:15Z</time>
      </trkpt>
      <trkpt lat="44.66507" lon="7.06185">
        <ele>2432</ele>
        <time>2022-07-13T06:41:27Z</time>
      </trkpt>
      <trkpt lat="44.66498" lon="7.0618">
        <ele>2431</ele>
        <time>2022-07-13T06:41:37Z</time>
      </trkpt>
      <trkpt lat="44.66499" lon="7.06167">
        <ele>2430</ele>
        <time>2022-07-13T06:41:48Z</time>
      </trkpt>
      <trkpt lat="44.66498" lon="7.06153">
        <ele>2429</ele>
        <time>2022-07-13T06:41:59Z</time>
      </trkpt>
      <trkpt lat="44.66486" lon="7.06133">
        <ele>2426</ele>
        <time>2022-07-13T06:42:18Z</time>
      </trkpt>
      <trkpt lat="44.66478" lon="7.06126">
        <ele>2425</ele>
        <time>2022-07-13T06:42:26Z</time>
      </trkpt>
      <trkpt lat="44.6647" lon="7.06121">
        <ele>2426</ele>
        <time>2022-07-13T06:42:36Z</time>
      </trkpt>
      <trkpt lat="44.66462" lon="7.06114">
        <ele>2425</ele>
        <time>2022-07-13T06:42:45Z</time>
      </trkpt>
      <trkpt lat="44.66444" lon="7.06108">
        <ele>2425</ele>
        <time>2022-07-13T06:43:06Z</time>
      </trkpt>
      <trkpt lat="44.66435" lon="7.06107">
        <ele>2427</ele>
        <time>2022-07-13T06:43:16Z</time>
      </trkpt>
      <trkpt lat="44.66426" lon="7.06103">
        <ele>2428</ele>
        <time>2022-07-13T06:43:28Z</time>
      </trkpt>
      <trkpt lat="44.66419" lon="7.06094">
        <ele>2425</ele>
        <time>2022-07-13T06:43:40Z</time>
      </trkpt>
      <trkpt lat="44.66413" lon="7.06086">
        <ele>2425</ele>
        <time>2022-07-13T06:44:47Z</time>
      </trkpt>
      <trkpt lat="44.66397" lon="7.06071">
        <ele>2416</ele>
        <time>2022-07-13T06:45:11Z</time>
      </trkpt>
      <trkpt lat="44.6639" lon="7.06063">
        <ele>2412</ele>
        <time>2022-07-13T06:45:21Z</time>
      </trkpt>
      <trkpt lat="44.66382" lon="7.06058">
        <ele>2408</ele>
        <time>2022-07-13T06:45:43Z</time>
      </trkpt>
      <trkpt lat="44.66365" lon="7.06046">
        <ele>2404</ele>
        <time>2022-07-13T06:46:03Z</time>
      </trkpt>
      <trkpt lat="44.66356" lon="7.06041">
        <ele>2401</ele>
        <time>2022-07-13T06:46:12Z</time>
      </trkpt>
      <trkpt lat="44.66347" lon="7.06036">
        <ele>2400</ele>
        <time>2022-07-13T06:46:21Z</time>
      </trkpt>
      <trkpt lat="44.6634" lon="7.06044">
        <ele>2394</ele>
        <time>2022-07-13T06:46:52Z</time>
      </trkpt>
      <trkpt lat="44.66346" lon="7.06054">
        <ele>2393</ele>
        <time>2022-07-13T06:47:02Z</time>
      </trkpt>
      <trkpt lat="44.66348" lon="7.06067">
        <ele>2387</ele>
        <time>2022-07-13T06:47:14Z</time>
      </trkpt>
      <trkpt lat="44.66339" lon="7.06065">
        <ele>2387</ele>
        <time>2022-07-13T06:47:23Z</time>
      </trkpt>
      <trkpt lat="44.6633" lon="7.06063">
        <ele>2383</ele>
        <time>2022-07-13T06:47:32Z</time>
      </trkpt>
      <trkpt lat="44.6632" lon="7.0606">
        <ele>2382</ele>
        <time>2022-07-13T06:47:42Z</time>
      </trkpt>
      <trkpt lat="44.66294" lon="7.06049">
        <ele>2377</ele>
        <time>2022-07-13T06:48:11Z</time>
      </trkpt>
      <trkpt lat="44.66285" lon="7.06048">
        <ele>2376</ele>
        <time>2022-07-13T06:48:20Z</time>
      </trkpt>
      <trkpt lat="44.66275" lon="7.06045">
        <ele>2372</ele>
        <time>2022-07-13T06:48:30Z</time>
      </trkpt>
      <trkpt lat="44.66274" lon="7.06058">
        <ele>2369</ele>
        <time>2022-07-13T06:48:42Z</time>
      </trkpt>
      <trkpt lat="44.66274" lon="7.06071">
        <ele>2367</ele>
        <time>2022-07-13T06:48:53Z</time>
      </trkpt>
      <trkpt lat="44.66266" lon="7.06078">
        <ele>2366</ele>
        <time>2022-07-13T06:49:04Z</time>
      </trkpt>
      <trkpt lat="44.66258" lon="7.06086">
        <ele>2364</ele>
        <time>2022-07-13T06:49:14Z</time>
      </trkpt>
      <trkpt lat="44.6625" lon="7.06094">
        <ele>2361</ele>
        <time>2022-07-13T06:49:24Z</time>
      </trkpt>
      <trkpt lat="44.66242" lon="7.06101">
        <ele>2357</ele>
        <time>2022-07-13T06:49:35Z</time>
      </trkpt>
      <trkpt lat="44.66235" lon="7.0611">
        <ele>2356</ele>
        <time>2022-07-13T06:49:49Z</time>
      </trkpt>
      <trkpt lat="44.66208" lon="7.06102">
        <ele>2354</ele>
        <time>2022-07-13T06:50:17Z</time>
      </trkpt>
      <trkpt lat="44.662" lon="7.06097">
        <ele>2352</ele>
        <time>2022-07-13T06:50:27Z</time>
      </trkpt>
      <trkpt lat="44.6619" lon="7.06094">
        <ele>2350</ele>
        <time>2022-07-13T06:50:36Z</time>
      </trkpt>
      <trkpt lat="44.66181" lon="7.06093">
        <ele>2349</ele>
        <time>2022-07-13T06:50:45Z</time>
      </trkpt>
      <trkpt lat="44.66172" lon="7.06094">
        <ele>2347</ele>
        <time>2022-07-13T06:50:55Z</time>
      </trkpt>
      <trkpt lat="44.66163" lon="7.06092">
        <ele>2346</ele>
        <time>2022-07-13T06:51:06Z</time>
      </trkpt>
      <trkpt lat="44.66154" lon="7.06092">
        <ele>2345</ele>
        <time>2022-07-13T06:51:16Z</time>
      </trkpt>
      <trkpt lat="44.66144" lon="7.0609">
        <ele>2345</ele>
        <time>2022-07-13T06:51:27Z</time>
      </trkpt>
      <trkpt lat="44.66117" lon="7.0608">
        <ele>2340</ele>
        <time>2022-07-13T06:51:57Z</time>
      </trkpt>
      <trkpt lat="44.6611" lon="7.06071">
        <ele>2339</ele>
        <time>2022-07-13T06:52:15Z</time>
      </trkpt>
      <trkpt lat="44.66101" lon="7.06069">
        <ele>2339</ele>
        <time>2022-07-13T06:53:21Z</time>
      </trkpt>
      <trkpt lat="44.66084" lon="7.06058">
        <ele>2341</ele>
        <time>2022-07-13T06:53:45Z</time>
      </trkpt>
      <trkpt lat="44.66076" lon="7.06052">
        <ele>2343</ele>
        <time>2022-07-13T06:53:56Z</time>
      </trkpt>
      <trkpt lat="44.66067" lon="7.06055">
        <ele>2341</ele>
        <time>2022-07-13T06:54:07Z</time>
      </trkpt>
      <trkpt lat="44.66058" lon="7.06055">
        <ele>2337</ele>
        <time>2022-07-13T06:54:17Z</time>
      </trkpt>
      <trkpt lat="44.6605" lon="7.06047">
        <ele>2337</ele>
        <time>2022-07-13T06:54:27Z</time>
      </trkpt>
      <trkpt lat="44.66032" lon="7.06048">
        <ele>2335</ele>
        <time>2022-07-13T06:54:47Z</time>
      </trkpt>
      <trkpt lat="44.66023" lon="7.06054">
        <ele>2333</ele>
        <time>2022-07-13T06:54:56Z</time>
      </trkpt>
      <trkpt lat="44.66013" lon="7.06057">
        <ele>2329</ele>
        <time>2022-07-13T06:55:05Z</time>
      </trkpt>
      <trkpt lat="44.66005" lon="7.0605">
        <ele>2327</ele>
        <time>2022-07-13T06:55:14Z</time>
      </trkpt>
      <trkpt lat="44.65996" lon="7.06049">
        <ele>2325</ele>
        <time>2022-07-13T06:55:23Z</time>
      </trkpt>
      <trkpt lat="44.65987" lon="7.06048">
        <ele>2323</ele>
        <time>2022-07-13T06:55:32Z</time>
      </trkpt>
      <trkpt lat="44.65979" lon="7.06039">
        <ele>2322</ele>
        <time>2022-07-13T06:55:43Z</time>
      </trkpt>
      <trkpt lat="44.65966" lon="7.06022">
        <ele>2316</ele>
        <time>2022-07-13T06:56:01Z</time>
      </trkpt>
      <trkpt lat="44.65962" lon="7.06034">
        <ele>2311</ele>
        <time>2022-07-13T06:56:29Z</time>
      </trkpt>
      <trkpt lat="44.65953" lon="7.06036">
        <ele>2310</ele>
        <time>2022-07-13T06:56:38Z</time>
      </trkpt>
      <trkpt lat="44.65949" lon="7.06024">
        <ele>2305</ele>
        <time>2022-07-13T06:56:48Z</time>
      </trkpt>
      <trkpt lat="44.65933" lon="7.0601">
        <ele>2304</ele>
        <time>2022-07-13T06:57:09Z</time>
      </trkpt>
      <trkpt lat="44.65933" lon="7.06024">
        <ele>2300</ele>
        <time>2022-07-13T06:57:28Z</time>
      </trkpt>
      <trkpt lat="44.65924" lon="7.06022">
        <ele>2299</ele>
        <time>2022-07-13T06:57:45Z</time>
      </trkpt>
      <trkpt lat="44.65915" lon="7.06018">
        <ele>2295</ele>
        <time>2022-07-13T06:57:56Z</time>
      </trkpt>
      <trkpt lat="44.65906" lon="7.0602">
        <ele>2295</ele>
        <time>2022-07-13T06:58:05Z</time>
      </trkpt>
      <trkpt lat="44.65911" lon="7.06032">
        <ele>2293</ele>
        <time>2022-07-13T06:58:25Z</time>
      </trkpt>
      <trkpt lat="44.65902" lon="7.06035">
        <ele>2287</ele>
        <time>2022-07-13T06:58:41Z</time>
      </trkpt>
      <trkpt lat="44.65892" lon="7.06034">
        <ele>2286</ele>
        <time>2022-07-13T06:58:52Z</time>
      </trkpt>
      <trkpt lat="44.65883" lon="7.06031">
        <ele>2282</ele>
        <time>2022-07-13T06:59:03Z</time>
      </trkpt>
      <trkpt lat="44.65874" lon="7.06034">
        <ele>2281</ele>
        <time>2022-07-13T06:59:14Z</time>
      </trkpt>
      <trkpt lat="44.65865" lon="7.06029">
        <ele>2278</ele>
        <time>2022-07-13T06:59:24Z</time>
      </trkpt>
      <trkpt lat="44.65856" lon="7.06027">
        <ele>2276</ele>
        <time>2022-07-13T06:59:35Z</time>
      </trkpt>
      <trkpt lat="44.65847" lon="7.06023">
        <ele>2275</ele>
        <time>2022-07-13T06:59:45Z</time>
      </trkpt>
      <trkpt lat="44.65838" lon="7.06021">
        <ele>2274</ele>
        <time>2022-07-13T06:59:55Z</time>
      </trkpt>
      <trkpt lat="44.65828" lon="7.06019">
        <ele>2271</ele>
        <time>2022-07-13T07:00:06Z</time>
      </trkpt>
      <trkpt lat="44.65819" lon="7.06021">
        <ele>2268</ele>
        <time>2022-07-13T07:00:24Z</time>
      </trkpt>
      <trkpt lat="44.6581" lon="7.06021">
        <ele>2263</ele>
        <time>2022-07-13T07:00:34Z</time>
      </trkpt>
      <trkpt lat="44.65806" lon="7.06033">
        <ele>2261</ele>
        <time>2022-07-13T07:00:44Z</time>
      </trkpt>
      <trkpt lat="44.65797" lon="7.06038">
        <ele>2259</ele>
        <time>2022-07-13T07:00:54Z</time>
      </trkpt>
      <trkpt lat="44.65788" lon="7.06038">
        <ele>2257</ele>
        <time>2022-07-13T07:01:03Z</time>
      </trkpt>
      <trkpt lat="44.65779" lon="7.06041">
        <ele>2253</ele>
        <time>2022-07-13T07:01:14Z</time>
      </trkpt>
      <trkpt lat="44.65769" lon="7.0604">
        <ele>2252</ele>
        <time>2022-07-13T07:01:25Z</time>
      </trkpt>
      <trkpt lat="44.65759" lon="7.06043">
        <ele>2244</ele>
        <time>2022-07-13T07:01:36Z</time>
      </trkpt>
      <trkpt lat="44.6575" lon="7.06039">
        <ele>2244</ele>
        <time>2022-07-13T07:01:46Z</time>
      </trkpt>
      <trkpt lat="44.65742" lon="7.06032">
        <ele>2243</ele>
        <time>2022-07-13T07:01:56Z</time>
      </trkpt>
      <trkpt lat="44.65705" lon="7.06018">
        <ele>2237</ele>
        <time>2022-07-13T07:02:33Z</time>
      </trkpt>
      <trkpt lat="44.65695" lon="7.06016">
        <ele>2236</ele>
        <time>2022-07-13T07:02:42Z</time>
      </trkpt>
      <trkpt lat="44.65677" lon="7.06013">
        <ele>2231</ele>
        <time>2022-07-13T07:03:00Z</time>
      </trkpt>
      <trkpt lat="44.65668" lon="7.06009">
        <ele>2228</ele>
        <time>2022-07-13T07:03:09Z</time>
      </trkpt>
      <trkpt lat="44.65659" lon="7.06005">
        <ele>2226</ele>
        <time>2022-07-13T07:03:18Z</time>
      </trkpt>
      <trkpt lat="44.65645" lon="7.05989">
        <ele>2223</ele>
        <time>2022-07-13T07:03:40Z</time>
      </trkpt>
      <trkpt lat="44.65638" lon="7.05981">
        <ele>2224</ele>
        <time>2022-07-13T07:03:52Z</time>
      </trkpt>
      <trkpt lat="44.6561" lon="7.05973">
        <ele>2224</ele>
        <time>2022-07-13T07:04:25Z</time>
      </trkpt>
      <trkpt lat="44.65601" lon="7.05971">
        <ele>2221</ele>
        <time>2022-07-13T07:04:34Z</time>
      </trkpt>
      <trkpt lat="44.65598" lon="7.05978">
        <ele>2217</ele>
        <time>2022-07-13T07:04:54Z</time>
      </trkpt>
      <trkpt lat="44.65604" lon="7.05987">
        <ele>2215</ele>
        <time>2022-07-13T07:05:03Z</time>
      </trkpt>
      <trkpt lat="44.65609" lon="7.05999">
        <ele>2207</ele>
        <time>2022-07-13T07:05:13Z</time>
      </trkpt>
      <trkpt lat="44.65602" lon="7.06007">
        <ele>2204</ele>
        <time>2022-07-13T07:05:31Z</time>
      </trkpt>
      <trkpt lat="44.65592" lon="7.06008">
        <ele>2204</ele>
        <time>2022-07-13T07:05:41Z</time>
      </trkpt>
      <trkpt lat="44.65574" lon="7.06005">
        <ele>2203</ele>
        <time>2022-07-13T07:05:59Z</time>
      </trkpt>
      <trkpt lat="44.65565" lon="7.06002">
        <ele>2200</ele>
        <time>2022-07-13T07:06:08Z</time>
      </trkpt>
      <trkpt lat="44.65557" lon="7.05996">
        <ele>2196</ele>
        <time>2022-07-13T07:06:17Z</time>
      </trkpt>
      <trkpt lat="44.65547" lon="7.05995">
        <ele>2194</ele>
        <time>2022-07-13T07:06:26Z</time>
      </trkpt>
      <trkpt lat="44.65539" lon="7.05988">
        <ele>2192</ele>
        <time>2022-07-13T07:06:35Z</time>
      </trkpt>
      <trkpt lat="44.6553" lon="7.05988">
        <ele>2190</ele>
        <time>2022-07-13T07:06:44Z</time>
      </trkpt>
      <trkpt lat="44.6552" lon="7.05987">
        <ele>2186</ele>
        <time>2022-07-13T07:06:53Z</time>
      </trkpt>
      <trkpt lat="44.6551" lon="7.05986">
        <ele>2185</ele>
        <time>2022-07-13T07:07:01Z</time>
      </trkpt>
      <trkpt lat="44.65501" lon="7.05987">
        <ele>2182</ele>
        <time>2022-07-13T07:07:11Z</time>
      </trkpt>
      <trkpt lat="44.65491" lon="7.05986">
        <ele>2180</ele>
        <time>2022-07-13T07:07:21Z</time>
      </trkpt>
      <trkpt lat="44.65482" lon="7.05982">
        <ele>2175</ele>
        <time>2022-07-13T07:07:31Z</time>
      </trkpt>
      <trkpt lat="44.65473" lon="7.05983">
        <ele>2173</ele>
        <time>2022-07-13T07:07:41Z</time>
      </trkpt>
      <trkpt lat="44.65465" lon="7.05988">
        <ele>2168</ele>
        <time>2022-07-13T07:07:51Z</time>
      </trkpt>
      <trkpt lat="44.65458" lon="7.05996">
        <ele>2166</ele>
        <time>2022-07-13T07:08:00Z</time>
      </trkpt>
      <trkpt lat="44.65449" lon="7.06">
        <ele>2160</ele>
        <time>2022-07-13T07:08:10Z</time>
      </trkpt>
      <trkpt lat="44.6544" lon="7.05998">
        <ele>2160</ele>
        <time>2022-07-13T07:08:19Z</time>
      </trkpt>
      <trkpt lat="44.65433" lon="7.06007">
        <ele>2159</ele>
        <time>2022-07-13T07:08:29Z</time>
      </trkpt>
      <trkpt lat="44.65424" lon="7.06011">
        <ele>2157</ele>
        <time>2022-07-13T07:08:38Z</time>
      </trkpt>
      <trkpt lat="44.65387" lon="7.06013">
        <ele>2151</ele>
        <time>2022-07-13T07:09:16Z</time>
      </trkpt>
      <trkpt lat="44.65369" lon="7.06016">
        <ele>2147</ele>
        <time>2022-07-13T07:09:35Z</time>
      </trkpt>
      <trkpt lat="44.65359" lon="7.06014">
        <ele>2145</ele>
        <time>2022-07-13T07:09:45Z</time>
      </trkpt>
      <trkpt lat="44.6535" lon="7.06013">
        <ele>2144</ele>
        <time>2022-07-13T07:09:54Z</time>
      </trkpt>
      <trkpt lat="44.65332" lon="7.06008">
        <ele>2135</ele>
        <time>2022-07-13T07:10:11Z</time>
      </trkpt>
      <trkpt lat="44.65323" lon="7.06008">
        <ele>2131</ele>
        <time>2022-07-13T07:10:19Z</time>
      </trkpt>
      <trkpt lat="44.65314" lon="7.06009">
        <ele>2130</ele>
        <time>2022-07-13T07:10:27Z</time>
      </trkpt>
      <trkpt lat="44.65285" lon="7.06015">
        <ele>2131</ele>
        <time>2022-07-13T07:10:54Z</time>
      </trkpt>
      <trkpt lat="44.65248" lon="7.06009">
        <ele>2133</ele>
        <time>2022-07-13T07:11:28Z</time>
      </trkpt>
      <trkpt lat="44.65229" lon="7.06007">
        <ele>2133</ele>
        <time>2022-07-13T07:11:44Z</time>
      </trkpt>
      <trkpt lat="44.652" lon="7.06002">
        <ele>2133</ele>
        <time>2022-07-13T07:12:09Z</time>
      </trkpt>
      <trkpt lat="44.65166" lon="7.06002">
        <ele>2132</ele>
        <time>2022-07-13T07:12:39Z</time>
      </trkpt>
      <trkpt lat="44.65162" lon="7.06002">
        <ele>2132</ele>
        <time>2022-07-13T07:12:43Z</time>
      </trkpt>
      <trkpt lat="44.65158" lon="7.06003">
        <ele>2131</ele>
        <time>2022-07-13T07:12:47Z</time>
      </trkpt>
      <trkpt lat="44.65154" lon="7.06004">
        <ele>2131</ele>
        <time>2022-07-13T07:12:51Z</time>
      </trkpt>
      <trkpt lat="44.65151" lon="7.06003">
        <ele>2131</ele>
        <time>2022-07-13T07:12:54Z</time>
      </trkpt>
      <trkpt lat="44.65144" lon="7.06">
        <ele>2132</ele>
        <time>2022-07-13T07:13:02Z</time>
      </trkpt>
      <trkpt lat="44.6514" lon="7.05999">
        <ele>2132</ele>
        <time>2022-07-13T07:13:05Z</time>
      </trkpt>
      <trkpt lat="44.65137" lon="7.05999">
        <ele>2132</ele>
        <time>2022-07-13T07:13:08Z</time>
      </trkpt>
      <trkpt lat="44.65103" lon="7.06008">
        <ele>2130</ele>
        <time>2022-07-13T07:13:39Z</time>
      </trkpt>
      <trkpt lat="44.65099" lon="7.0601">
        <ele>2129</ele>
        <time>2022-07-13T07:13:43Z</time>
      </trkpt>
      <trkpt lat="44.65089" lon="7.0601">
        <ele>2129</ele>
        <time>2022-07-13T07:13:52Z</time>
      </trkpt>
      <trkpt lat="44.65077" lon="7.06009">
        <ele>2129</ele>
        <time>2022-07-13T07:14:03Z</time>
      </trkpt>
      <trkpt lat="44.65061" lon="7.06012">
        <ele>2128</ele>
        <time>2022-07-13T07:14:16Z</time>
      </trkpt>
      <trkpt lat="44.65054" lon="7.06016">
        <ele>2127</ele>
        <time>2022-07-13T07:14:23Z</time>
      </trkpt>
      <trkpt lat="44.65042" lon="7.06016">
        <ele>2127</ele>
        <time>2022-07-13T07:14:33Z</time>
      </trkpt>
      <trkpt lat="44.65009" lon="7.0603">
        <ele>2123</ele>
        <time>2022-07-13T07:15:04Z</time>
      </trkpt>
      <trkpt lat="44.65005" lon="7.06031">
        <ele>2123</ele>
        <time>2022-07-13T07:15:14Z</time>
      </trkpt>
      <trkpt lat="44.64973" lon="7.06046">
        <ele>2124</ele>
        <time>2022-07-13T07:15:44Z</time>
      </trkpt>
      <trkpt lat="44.64953" lon="7.06048">
        <ele>2121</ele>
        <time>2022-07-13T07:16:01Z</time>
      </trkpt>
      <trkpt lat="44.64943" lon="7.06054">
        <ele>2120</ele>
        <time>2022-07-13T07:16:11Z</time>
      </trkpt>
      <trkpt lat="44.64922" lon="7.06072">
        <ele>2121</ele>
        <time>2022-07-13T07:16:32Z</time>
      </trkpt>
      <trkpt lat="44.64899" lon="7.06082">
        <ele>2123</ele>
        <time>2022-07-13T07:16:53Z</time>
      </trkpt>
      <trkpt lat="44.64886" lon="7.06087">
        <ele>2124</ele>
        <time>2022-07-13T07:17:04Z</time>
      </trkpt>
      <trkpt lat="44.64858" lon="7.06099">
        <ele>2127</ele>
        <time>2022-07-13T07:17:32Z</time>
      </trkpt>
      <trkpt lat="44.6484" lon="7.061">
        <ele>2124</ele>
        <time>2022-07-13T07:17:50Z</time>
      </trkpt>
      <trkpt lat="44.64812" lon="7.06107">
        <ele>2123</ele>
        <time>2022-07-13T07:18:15Z</time>
      </trkpt>
      <trkpt lat="44.64775" lon="7.06101">
        <ele>2120</ele>
        <time>2022-07-13T07:18:49Z</time>
      </trkpt>
      <trkpt lat="44.64766" lon="7.06102">
        <ele>2121</ele>
        <time>2022-07-13T07:18:57Z</time>
      </trkpt>
      <trkpt lat="44.64758" lon="7.0611">
        <ele>2121</ele>
        <time>2022-07-13T07:19:06Z</time>
      </trkpt>
      <trkpt lat="44.64748" lon="7.06115">
        <ele>2120</ele>
        <time>2022-07-13T07:19:15Z</time>
      </trkpt>
      <trkpt lat="44.64739" lon="7.06118">
        <ele>2120</ele>
        <time>2022-07-13T07:19:23Z</time>
      </trkpt>
      <trkpt lat="44.6473" lon="7.06117">
        <ele>2118</ele>
        <time>2022-07-13T07:19:31Z</time>
      </trkpt>
      <trkpt lat="44.64726" lon="7.06116">
        <ele>2117</ele>
        <time>2022-07-13T07:19:35Z</time>
      </trkpt>
      <trkpt lat="44.64714" lon="7.06113">
        <ele>2117</ele>
        <time>2022-07-13T07:19:46Z</time>
      </trkpt>
      <trkpt lat="44.64698" lon="7.06112">
        <ele>2115</ele>
        <time>2022-07-13T07:20:02Z</time>
      </trkpt>
      <trkpt lat="44.64695" lon="7.06117">
        <ele>2115</ele>
        <time>2022-07-13T07:20:06Z</time>
      </trkpt>
      <trkpt lat="44.64693" lon="7.06111">
        <ele>2115</ele>
        <time>2022-07-13T07:20:12Z</time>
      </trkpt>
      <trkpt lat="44.64694" lon="7.06105">
        <ele>2115</ele>
        <time>2022-07-13T07:20:24Z</time>
      </trkpt>
      <trkpt lat="44.64702" lon="7.06104">
        <ele>2115</ele>
        <time>2022-07-13T07:20:30Z</time>
      </trkpt>
      <trkpt lat="44.64701" lon="7.06104">
        <ele>2115</ele>
        <time>2022-07-13T07:21:17Z</time>
      </trkpt>
      <trkpt lat="44.64697" lon="7.06103">
        <ele>2115</ele>
        <time>2022-07-13T07:21:22Z</time>
      </trkpt>
      <trkpt lat="44.64692" lon="7.06104">
        <ele>2114</ele>
        <time>2022-07-13T07:21:34Z</time>
      </trkpt>
      <trkpt lat="44.64691" lon="7.06109">
        <ele>2116</ele>
        <time>2022-07-13T07:23:21Z</time>
      </trkpt>
      <trkpt lat="44.64688" lon="7.06108">
        <ele>2116</ele>
        <time>2022-07-13T07:23:25Z</time>
      </trkpt>
      <trkpt lat="44.6468" lon="7.06112">
        <ele>2117</ele>
        <time>2022-07-13T07:23:35Z</time>
      </trkpt>
      <trkpt lat="44.64671" lon="7.06118">
        <ele>2116</ele>
        <time>2022-07-13T07:23:46Z</time>
      </trkpt>
      <trkpt lat="44.64644" lon="7.06126">
        <ele>2112</ele>
        <time>2022-07-13T07:24:13Z</time>
      </trkpt>
      <trkpt lat="44.64636" lon="7.06121">
        <ele>2111</ele>
        <time>2022-07-13T07:24:23Z</time>
      </trkpt>
      <trkpt lat="44.6462" lon="7.06108">
        <ele>2106</ele>
        <time>2022-07-13T07:24:54Z</time>
      </trkpt>
      <trkpt lat="44.64614" lon="7.06098">
        <ele>2106</ele>
        <time>2022-07-13T07:25:01Z</time>
      </trkpt>
      <trkpt lat="44.6459" lon="7.06082">
        <ele>2106</ele>
        <time>2022-07-13T07:25:27Z</time>
      </trkpt>
      <trkpt lat="44.64581" lon="7.06081">
        <ele>2104</ele>
        <time>2022-07-13T07:25:38Z</time>
      </trkpt>
      <trkpt lat="44.64572" lon="7.06088">
        <ele>2103</ele>
        <time>2022-07-13T07:25:48Z</time>
      </trkpt>
      <trkpt lat="44.64541" lon="7.061">
        <ele>2094</ele>
        <time>2022-07-13T07:26:19Z</time>
      </trkpt>
      <trkpt lat="44.64533" lon="7.06102">
        <ele>2093</ele>
        <time>2022-07-13T07:26:26Z</time>
      </trkpt>
      <trkpt lat="44.6453" lon="7.06103">
        <ele>2093</ele>
        <time>2022-07-13T07:26:29Z</time>
      </trkpt>
      <trkpt lat="44.64526" lon="7.06101">
        <ele>2093</ele>
        <time>2022-07-13T07:26:33Z</time>
      </trkpt>
      <trkpt lat="44.6451" lon="7.06106">
        <ele>2093</ele>
        <time>2022-07-13T07:26:47Z</time>
      </trkpt>
      <trkpt lat="44.64507" lon="7.06106">
        <ele>2093</ele>
        <time>2022-07-13T07:26:50Z</time>
      </trkpt>
      <trkpt lat="44.645" lon="7.06103">
        <ele>2093</ele>
        <time>2022-07-13T07:26:57Z</time>
      </trkpt>
      <trkpt lat="44.64496" lon="7.061">
        <ele>2093</ele>
        <time>2022-07-13T07:27:01Z</time>
      </trkpt>
      <trkpt lat="44.64494" lon="7.06095">
        <ele>2094</ele>
        <time>2022-07-13T07:27:05Z</time>
      </trkpt>
      <trkpt lat="44.6449" lon="7.06093">
        <ele>2094</ele>
        <time>2022-07-13T07:27:09Z</time>
      </trkpt>
      <trkpt lat="44.64487" lon="7.06096">
        <ele>2092</ele>
        <time>2022-07-13T07:27:13Z</time>
      </trkpt>
      <trkpt lat="44.64483" lon="7.061">
        <ele>2091</ele>
        <time>2022-07-13T07:27:17Z</time>
      </trkpt>
      <trkpt lat="44.6448" lon="7.06102">
        <ele>2091</ele>
        <time>2022-07-13T07:27:21Z</time>
      </trkpt>
      <trkpt lat="44.64478" lon="7.06096">
        <ele>2091</ele>
        <time>2022-07-13T07:27:25Z</time>
      </trkpt>
      <trkpt lat="44.64479" lon="7.06091">
        <ele>2089</ele>
        <time>2022-07-13T07:27:28Z</time>
      </trkpt>
      <trkpt lat="44.64478" lon="7.06086">
        <ele>2088</ele>
        <time>2022-07-13T07:27:32Z</time>
      </trkpt>
      <trkpt lat="44.64474" lon="7.06087">
        <ele>2088</ele>
        <time>2022-07-13T07:27:36Z</time>
      </trkpt>
      <trkpt lat="44.64471" lon="7.0609">
        <ele>2087</ele>
        <time>2022-07-13T07:27:40Z</time>
      </trkpt>
      <trkpt lat="44.64458" lon="7.06078">
        <ele>2084</ele>
        <time>2022-07-13T07:27:56Z</time>
      </trkpt>
      <trkpt lat="44.64459" lon="7.06072">
        <ele>2084</ele>
        <time>2022-07-13T07:28:00Z</time>
      </trkpt>
      <trkpt lat="44.6446" lon="7.06068">
        <ele>2082</ele>
        <time>2022-07-13T07:28:03Z</time>
      </trkpt>
      <trkpt lat="44.64457" lon="7.06065">
        <ele>2081</ele>
        <time>2022-07-13T07:28:07Z</time>
      </trkpt>
      <trkpt lat="44.64445" lon="7.06063">
        <ele>2077</ele>
        <time>2022-07-13T07:28:19Z</time>
      </trkpt>
      <trkpt lat="44.64438" lon="7.06065">
        <ele>2075</ele>
        <time>2022-07-13T07:28:27Z</time>
      </trkpt>
      <trkpt lat="44.64426" lon="7.06062">
        <ele>2073</ele>
        <time>2022-07-13T07:28:39Z</time>
      </trkpt>
      <trkpt lat="44.64422" lon="7.06059">
        <ele>2073</ele>
        <time>2022-07-13T07:28:43Z</time>
      </trkpt>
      <trkpt lat="44.64419" lon="7.06055">
        <ele>2072</ele>
        <time>2022-07-13T07:28:47Z</time>
      </trkpt>
      <trkpt lat="44.64389" lon="7.06037">
        <ele>2068</ele>
        <time>2022-07-13T07:29:19Z</time>
      </trkpt>
      <trkpt lat="44.64357" lon="7.06043">
        <ele>2060</ele>
        <time>2022-07-13T07:29:51Z</time>
      </trkpt>
      <trkpt lat="44.64334" lon="7.06047">
        <ele>2057</ele>
        <time>2022-07-13T07:30:14Z</time>
      </trkpt>
      <trkpt lat="44.6433" lon="7.06049">
        <ele>2057</ele>
        <time>2022-07-13T07:30:17Z</time>
      </trkpt>
      <trkpt lat="44.64326" lon="7.06051">
        <ele>2057</ele>
        <time>2022-07-13T07:30:20Z</time>
      </trkpt>
      <trkpt lat="44.64323" lon="7.06053">
        <ele>2057</ele>
        <time>2022-07-13T07:30:23Z</time>
      </trkpt>
      <trkpt lat="44.64319" lon="7.06055">
        <ele>2056</ele>
        <time>2022-07-13T07:30:27Z</time>
      </trkpt>
      <trkpt lat="44.64296" lon="7.06051">
        <ele>2053</ele>
        <time>2022-07-13T07:30:51Z</time>
      </trkpt>
      <trkpt lat="44.64292" lon="7.06052">
        <ele>2052</ele>
        <time>2022-07-13T07:30:56Z</time>
      </trkpt>
      <trkpt lat="44.6428" lon="7.06068">
        <ele>2050</ele>
        <time>2022-07-13T07:31:12Z</time>
      </trkpt>
      <trkpt lat="44.64277" lon="7.06073">
        <ele>2049</ele>
        <time>2022-07-13T07:31:16Z</time>
      </trkpt>
      <trkpt lat="44.64269" lon="7.06084">
        <ele>2048</ele>
        <time>2022-07-13T07:31:27Z</time>
      </trkpt>
      <trkpt lat="44.64267" lon="7.06088">
        <ele>2046</ele>
        <time>2022-07-13T07:31:31Z</time>
      </trkpt>
      <trkpt lat="44.64265" lon="7.06093">
        <ele>2045</ele>
        <time>2022-07-13T07:31:35Z</time>
      </trkpt>
      <trkpt lat="44.64254" lon="7.06101">
        <ele>2043</ele>
        <time>2022-07-13T07:31:47Z</time>
      </trkpt>
      <trkpt lat="44.64246" lon="7.06113">
        <ele>2043</ele>
        <time>2022-07-13T07:31:57Z</time>
      </trkpt>
      <trkpt lat="44.64244" lon="7.06117">
        <ele>2043</ele>
        <time>2022-07-13T07:32:00Z</time>
      </trkpt>
      <trkpt lat="44.64237" lon="7.06124">
        <ele>2043</ele>
        <time>2022-07-13T07:32:08Z</time>
      </trkpt>
      <trkpt lat="44.64229" lon="7.06126">
        <ele>2044</ele>
        <time>2022-07-13T07:32:16Z</time>
      </trkpt>
      <trkpt lat="44.64216" lon="7.06136">
        <ele>2042</ele>
        <time>2022-07-13T07:32:32Z</time>
      </trkpt>
      <trkpt lat="44.64211" lon="7.06144">
        <ele>2041</ele>
        <time>2022-07-13T07:32:41Z</time>
      </trkpt>
      <trkpt lat="44.64208" lon="7.06147">
        <ele>2041</ele>
        <time>2022-07-13T07:32:45Z</time>
      </trkpt>
      <trkpt lat="44.64205" lon="7.06148">
        <ele>2040</ele>
        <time>2022-07-13T07:32:49Z</time>
      </trkpt>
      <trkpt lat="44.64201" lon="7.06147">
        <ele>2040</ele>
        <time>2022-07-13T07:32:53Z</time>
      </trkpt>
      <trkpt lat="44.64197" lon="7.06149">
        <ele>2040</ele>
        <time>2022-07-13T07:32:58Z</time>
      </trkpt>
      <trkpt lat="44.64196" lon="7.06154">
        <ele>2040</ele>
        <time>2022-07-13T07:33:01Z</time>
      </trkpt>
      <trkpt lat="44.64198" lon="7.06159">
        <ele>2042</ele>
        <time>2022-07-13T07:33:05Z</time>
      </trkpt>
      <trkpt lat="44.64202" lon="7.06161">
        <ele>2042</ele>
        <time>2022-07-13T07:33:11Z</time>
      </trkpt>
      <trkpt lat="44.64203" lon="7.06158">
        <ele>2041</ele>
        <time>2022-07-13T07:33:22Z</time>
      </trkpt>
      <trkpt lat="44.64201" lon="7.06159">
        <ele>2038</ele>
        <time>2022-07-13T07:34:27Z</time>
      </trkpt>
      <trkpt lat="44.64201" lon="7.06165">
        <ele>2039</ele>
        <time>2022-07-13T07:35:06Z</time>
      </trkpt>
      <trkpt lat="44.642" lon="7.0617">
        <ele>2039</ele>
        <time>2022-07-13T07:35:19Z</time>
      </trkpt>
      <trkpt lat="44.64197" lon="7.06173">
        <ele>2040</ele>
        <time>2022-07-13T07:35:24Z</time>
      </trkpt>
      <trkpt lat="44.64194" lon="7.06175">
        <ele>2040</ele>
        <time>2022-07-13T07:35:30Z</time>
      </trkpt>
      <trkpt lat="44.6418" lon="7.06173">
        <ele>2040</ele>
        <time>2022-07-13T07:36:35Z</time>
      </trkpt>
      <trkpt lat="44.64173" lon="7.06168">
        <ele>2039</ele>
        <time>2022-07-13T07:36:49Z</time>
      </trkpt>
      <trkpt lat="44.6417" lon="7.06167">
        <ele>2039</ele>
        <time>2022-07-13T07:36:56Z</time>
      </trkpt>
      <trkpt lat="44.64166" lon="7.06169">
        <ele>2039</ele>
        <time>2022-07-13T07:37:07Z</time>
      </trkpt>
      <trkpt lat="44.64152" lon="7.06172">
        <ele>2037</ele>
        <time>2022-07-13T07:37:22Z</time>
      </trkpt>
      <trkpt lat="44.64149" lon="7.06172">
        <ele>2036</ele>
        <time>2022-07-13T07:37:25Z</time>
      </trkpt>
      <trkpt lat="44.64145" lon="7.0617">
        <ele>2035</ele>
        <time>2022-07-13T07:37:29Z</time>
      </trkpt>
      <trkpt lat="44.64138" lon="7.06171">
        <ele>2033</ele>
        <time>2022-07-13T07:37:37Z</time>
      </trkpt>
      <trkpt lat="44.64134" lon="7.06172">
        <ele>2033</ele>
        <time>2022-07-13T07:37:41Z</time>
      </trkpt>
      <trkpt lat="44.64131" lon="7.06169">
        <ele>2033</ele>
        <time>2022-07-13T07:37:49Z</time>
      </trkpt>
      <trkpt lat="44.64128" lon="7.06168">
        <ele>2032</ele>
        <time>2022-07-13T07:37:57Z</time>
      </trkpt>
      <trkpt lat="44.64125" lon="7.06172">
        <ele>2032</ele>
        <time>2022-07-13T07:38:01Z</time>
      </trkpt>
      <trkpt lat="44.64123" lon="7.06177">
        <ele>2032</ele>
        <time>2022-07-13T07:38:05Z</time>
      </trkpt>
      <trkpt lat="44.64127" lon="7.06176">
        <ele>2032</ele>
        <time>2022-07-13T07:38:18Z</time>
      </trkpt>
      <trkpt lat="44.64126" lon="7.06178">
        <ele>2035</ele>
        <time>2022-07-13T07:39:14Z</time>
      </trkpt>
      <trkpt lat="44.64118" lon="7.06185">
        <ele>2033</ele>
        <time>2022-07-13T07:39:20Z</time>
      </trkpt>
      <trkpt lat="44.64112" lon="7.06194">
        <ele>2033</ele>
        <time>2022-07-13T07:39:26Z</time>
      </trkpt>
      <trkpt lat="44.64109" lon="7.06198">
        <ele>2033</ele>
        <time>2022-07-13T07:39:29Z</time>
      </trkpt>
      <trkpt lat="44.64106" lon="7.062">
        <ele>2032</ele>
        <time>2022-07-13T07:39:32Z</time>
      </trkpt>
      <trkpt lat="44.64102" lon="7.06202">
        <ele>2031</ele>
        <time>2022-07-13T07:39:35Z</time>
      </trkpt>
      <trkpt lat="44.64099" lon="7.06205">
        <ele>2032</ele>
        <time>2022-07-13T07:39:37Z</time>
      </trkpt>
      <trkpt lat="44.64079" lon="7.06208">
        <ele>2030</ele>
        <time>2022-07-13T07:39:52Z</time>
      </trkpt>
      <trkpt lat="44.64072" lon="7.06208">
        <ele>2029</ele>
        <time>2022-07-13T07:39:58Z</time>
      </trkpt>
      <trkpt lat="44.64069" lon="7.06206">
        <ele>2028</ele>
        <time>2022-07-13T07:40:01Z</time>
      </trkpt>
      <trkpt lat="44.64066" lon="7.06204">
        <ele>2027</ele>
        <time>2022-07-13T07:40:04Z</time>
      </trkpt>
      <trkpt lat="44.64058" lon="7.06201">
        <ele>2026</ele>
        <time>2022-07-13T07:40:10Z</time>
      </trkpt>
      <trkpt lat="44.64054" lon="7.06199">
        <ele>2025</ele>
        <time>2022-07-13T07:40:13Z</time>
      </trkpt>
      <trkpt lat="44.6404" lon="7.06175">
        <ele>2022</ele>
        <time>2022-07-13T07:40:28Z</time>
      </trkpt>
      <trkpt lat="44.64037" lon="7.06172">
        <ele>2022</ele>
        <time>2022-07-13T07:40:31Z</time>
      </trkpt>
      <trkpt lat="44.64029" lon="7.06171">
        <ele>2023</ele>
        <time>2022-07-13T07:40:37Z</time>
      </trkpt>
      <trkpt lat="44.64025" lon="7.06168">
        <ele>2023</ele>
        <time>2022-07-13T07:40:40Z</time>
      </trkpt>
      <trkpt lat="44.64014" lon="7.06161">
        <ele>2023</ele>
        <time>2022-07-13T07:40:49Z</time>
      </trkpt>
      <trkpt lat="44.64002" lon="7.06158">
        <ele>2025</ele>
        <time>2022-07-13T07:40:58Z</time>
      </trkpt>
      <trkpt lat="44.63987" lon="7.06153">
        <ele>2024</ele>
        <time>2022-07-13T07:41:11Z</time>
      </trkpt>
      <trkpt lat="44.63984" lon="7.0615">
        <ele>2023</ele>
        <time>2022-07-13T07:41:14Z</time>
      </trkpt>
      <trkpt lat="44.63982" lon="7.06146">
        <ele>2023</ele>
        <time>2022-07-13T07:41:17Z</time>
      </trkpt>
      <trkpt lat="44.63979" lon="7.06143">
        <ele>2022</ele>
        <time>2022-07-13T07:41:20Z</time>
      </trkpt>
      <trkpt lat="44.63976" lon="7.06142">
        <ele>2022</ele>
        <time>2022-07-13T07:41:23Z</time>
      </trkpt>
      <trkpt lat="44.6396" lon="7.06143">
        <ele>2019</ele>
        <time>2022-07-13T07:41:36Z</time>
      </trkpt>
      <trkpt lat="44.63957" lon="7.06145">
        <ele>2019</ele>
        <time>2022-07-13T07:41:39Z</time>
      </trkpt>
      <trkpt lat="44.63954" lon="7.06147">
        <ele>2020</ele>
        <time>2022-07-13T07:41:45Z</time>
      </trkpt>
      <trkpt lat="44.6395" lon="7.06147">
        <ele>2017</ele>
        <time>2022-07-13T07:43:56Z</time>
      </trkpt>
      <trkpt lat="44.63946" lon="7.06146">
        <ele>2017</ele>
        <time>2022-07-13T07:43:59Z</time>
      </trkpt>
      <trkpt lat="44.63947" lon="7.06141">
        <ele>2015</ele>
        <time>2022-07-13T07:44:03Z</time>
      </trkpt>
      <trkpt lat="44.63949" lon="7.06136">
        <ele>2014</ele>
        <time>2022-07-13T07:44:07Z</time>
      </trkpt>
      <trkpt lat="44.63945" lon="7.06134">
        <ele>2013</ele>
        <time>2022-07-13T07:44:11Z</time>
      </trkpt>
      <trkpt lat="44.63937" lon="7.06134">
        <ele>2011</ele>
        <time>2022-07-13T07:44:18Z</time>
      </trkpt>
      <trkpt lat="44.6393" lon="7.0614">
        <ele>2009</ele>
        <time>2022-07-13T07:44:25Z</time>
      </trkpt>
      <trkpt lat="44.63926" lon="7.0614">
        <ele>2008</ele>
        <time>2022-07-13T07:44:29Z</time>
      </trkpt>
      <trkpt lat="44.63902" lon="7.0615">
        <ele>2004</ele>
        <time>2022-07-13T07:44:50Z</time>
      </trkpt>
      <trkpt lat="44.63888" lon="7.06157">
        <ele>2004</ele>
        <time>2022-07-13T07:45:02Z</time>
      </trkpt>
      <trkpt lat="44.63885" lon="7.06161">
        <ele>2004</ele>
        <time>2022-07-13T07:45:05Z</time>
      </trkpt>
      <trkpt lat="44.63882" lon="7.06164">
        <ele>2004</ele>
        <time>2022-07-13T07:45:08Z</time>
      </trkpt>
      <trkpt lat="44.63877" lon="7.0617">
        <ele>2004</ele>
        <time>2022-07-13T07:45:16Z</time>
      </trkpt>
      <trkpt lat="44.63873" lon="7.0617">
        <ele>2004</ele>
        <time>2022-07-13T07:45:19Z</time>
      </trkpt>
      <trkpt lat="44.6387" lon="7.06168">
        <ele>2003</ele>
        <time>2022-07-13T07:45:22Z</time>
      </trkpt>
      <trkpt lat="44.63869" lon="7.06162">
        <ele>2002</ele>
        <time>2022-07-13T07:45:25Z</time>
      </trkpt>
      <trkpt lat="44.6387" lon="7.06157">
        <ele>2001</ele>
        <time>2022-07-13T07:45:28Z</time>
      </trkpt>
      <trkpt lat="44.6387" lon="7.06151">
        <ele>2000</ele>
        <time>2022-07-13T07:45:32Z</time>
      </trkpt>
      <trkpt lat="44.63869" lon="7.06146">
        <ele>2000</ele>
        <time>2022-07-13T07:45:35Z</time>
      </trkpt>
      <trkpt lat="44.63865" lon="7.06144">
        <ele>2000</ele>
        <time>2022-07-13T07:45:38Z</time>
      </trkpt>
      <trkpt lat="44.63862" lon="7.06141">
        <ele>2000</ele>
        <time>2022-07-13T07:45:41Z</time>
      </trkpt>
      <trkpt lat="44.63859" lon="7.06139">
        <ele>1999</ele>
        <time>2022-07-13T07:45:44Z</time>
      </trkpt>
      <trkpt lat="44.63851" lon="7.06143">
        <ele>1997</ele>
        <time>2022-07-13T07:45:52Z</time>
      </trkpt>
      <trkpt lat="44.63847" lon="7.06145">
        <ele>1997</ele>
        <time>2022-07-13T07:45:56Z</time>
      </trkpt>
      <trkpt lat="44.63843" lon="7.06146">
        <ele>1996</ele>
        <time>2022-07-13T07:45:59Z</time>
      </trkpt>
      <trkpt lat="44.6384" lon="7.06146">
        <ele>1996</ele>
        <time>2022-07-13T07:46:02Z</time>
      </trkpt>
      <trkpt lat="44.63829" lon="7.06149">
        <ele>1996</ele>
        <time>2022-07-13T07:46:12Z</time>
      </trkpt>
      <trkpt lat="44.63825" lon="7.06152">
        <ele>1996</ele>
        <time>2022-07-13T07:46:16Z</time>
      </trkpt>
      <trkpt lat="44.63822" lon="7.06155">
        <ele>1996</ele>
        <time>2022-07-13T07:46:19Z</time>
      </trkpt>
      <trkpt lat="44.63819" lon="7.06158">
        <ele>1996</ele>
        <time>2022-07-13T07:46:23Z</time>
      </trkpt>
      <trkpt lat="44.63816" lon="7.06161">
        <ele>1995</ele>
        <time>2022-07-13T07:46:27Z</time>
      </trkpt>
      <trkpt lat="44.63805" lon="7.06162">
        <ele>1992</ele>
        <time>2022-07-13T07:46:37Z</time>
      </trkpt>
      <trkpt lat="44.63801" lon="7.06162">
        <ele>1991</ele>
        <time>2022-07-13T07:46:41Z</time>
      </trkpt>
      <trkpt lat="44.63797" lon="7.06161">
        <ele>1991</ele>
        <time>2022-07-13T07:46:45Z</time>
      </trkpt>
      <trkpt lat="44.63793" lon="7.06162">
        <ele>1991</ele>
        <time>2022-07-13T07:46:48Z</time>
      </trkpt>
      <trkpt lat="44.6379" lon="7.06164">
        <ele>1991</ele>
        <time>2022-07-13T07:46:51Z</time>
      </trkpt>
      <trkpt lat="44.63784" lon="7.06171">
        <ele>1992</ele>
        <time>2022-07-13T07:46:58Z</time>
      </trkpt>
      <trkpt lat="44.63766" lon="7.06182">
        <ele>1988</ele>
        <time>2022-07-13T07:47:17Z</time>
      </trkpt>
      <trkpt lat="44.63759" lon="7.06184">
        <ele>1986</ele>
        <time>2022-07-13T07:47:25Z</time>
      </trkpt>
      <trkpt lat="44.63748" lon="7.06185">
        <ele>1985</ele>
        <time>2022-07-13T07:47:55Z</time>
      </trkpt>
      <trkpt lat="44.6374" lon="7.06183">
        <ele>1984</ele>
        <time>2022-07-13T07:48:03Z</time>
      </trkpt>
      <trkpt lat="44.63732" lon="7.06186">
        <ele>1985</ele>
        <time>2022-07-13T07:48:12Z</time>
      </trkpt>
      <trkpt lat="44.63725" lon="7.06191">
        <ele>1984</ele>
        <time>2022-07-13T07:48:22Z</time>
      </trkpt>
      <trkpt lat="44.63721" lon="7.06189">
        <ele>1982</ele>
        <time>2022-07-13T07:48:26Z</time>
      </trkpt>
      <trkpt lat="44.63717" lon="7.06189">
        <ele>1982</ele>
        <time>2022-07-13T07:48:30Z</time>
      </trkpt>
      <trkpt lat="44.63714" lon="7.06192">
        <ele>1981</ele>
        <time>2022-07-13T07:48:34Z</time>
      </trkpt>
      <trkpt lat="44.63711" lon="7.06195">
        <ele>1980</ele>
        <time>2022-07-13T07:48:39Z</time>
      </trkpt>
      <trkpt lat="44.63708" lon="7.06196">
        <ele>1978</ele>
        <time>2022-07-13T07:48:43Z</time>
      </trkpt>
      <trkpt lat="44.63705" lon="7.062">
        <ele>1976</ele>
        <time>2022-07-13T07:48:48Z</time>
      </trkpt>
      <trkpt lat="44.63697" lon="7.06205">
        <ele>1977</ele>
        <time>2022-07-13T07:48:56Z</time>
      </trkpt>
      <trkpt lat="44.63694" lon="7.06202">
        <ele>1976</ele>
        <time>2022-07-13T07:49:00Z</time>
      </trkpt>
      <trkpt lat="44.63692" lon="7.06197">
        <ele>1974</ele>
        <time>2022-07-13T07:49:04Z</time>
      </trkpt>
      <trkpt lat="44.63692" lon="7.06192">
        <ele>1974</ele>
        <time>2022-07-13T07:49:08Z</time>
      </trkpt>
      <trkpt lat="44.63693" lon="7.06186">
        <ele>1972</ele>
        <time>2022-07-13T07:49:12Z</time>
      </trkpt>
      <trkpt lat="44.63693" lon="7.06181">
        <ele>1972</ele>
        <time>2022-07-13T07:49:15Z</time>
      </trkpt>
      <trkpt lat="44.6369" lon="7.06177">
        <ele>1971</ele>
        <time>2022-07-13T07:49:19Z</time>
      </trkpt>
      <trkpt lat="44.63685" lon="7.06184">
        <ele>1969</ele>
        <time>2022-07-13T07:49:29Z</time>
      </trkpt>
      <trkpt lat="44.63681" lon="7.06185">
        <ele>1967</ele>
        <time>2022-07-13T07:49:34Z</time>
      </trkpt>
      <trkpt lat="44.63675" lon="7.06179">
        <ele>1963</ele>
        <time>2022-07-13T07:49:42Z</time>
      </trkpt>
      <trkpt lat="44.63671" lon="7.06176">
        <ele>1962</ele>
        <time>2022-07-13T07:49:46Z</time>
      </trkpt>
      <trkpt lat="44.63668" lon="7.06175">
        <ele>1961</ele>
        <time>2022-07-13T07:49:50Z</time>
      </trkpt>
      <trkpt lat="44.63664" lon="7.06174">
        <ele>1960</ele>
        <time>2022-07-13T07:49:54Z</time>
      </trkpt>
      <trkpt lat="44.63661" lon="7.06172">
        <ele>1959</ele>
        <time>2022-07-13T07:49:58Z</time>
      </trkpt>
      <trkpt lat="44.63654" lon="7.06176">
        <ele>1957</ele>
        <time>2022-07-13T07:50:07Z</time>
      </trkpt>
      <trkpt lat="44.63651" lon="7.0618">
        <ele>1955</ele>
        <time>2022-07-13T07:50:11Z</time>
      </trkpt>
      <trkpt lat="44.6365" lon="7.06185">
        <ele>1955</ele>
        <time>2022-07-13T07:50:15Z</time>
      </trkpt>
      <trkpt lat="44.63648" lon="7.0619">
        <ele>1953</ele>
        <time>2022-07-13T07:50:20Z</time>
      </trkpt>
      <trkpt lat="44.63644" lon="7.06193">
        <ele>1952</ele>
        <time>2022-07-13T07:50:24Z</time>
      </trkpt>
      <trkpt lat="44.6364" lon="7.06193">
        <ele>1951</ele>
        <time>2022-07-13T07:50:28Z</time>
      </trkpt>
      <trkpt lat="44.63637" lon="7.06191">
        <ele>1950</ele>
        <time>2022-07-13T07:50:32Z</time>
      </trkpt>
      <trkpt lat="44.63633" lon="7.06193">
        <ele>1950</ele>
        <time>2022-07-13T07:50:37Z</time>
      </trkpt>
      <trkpt lat="44.63632" lon="7.06198">
        <ele>1950</ele>
        <time>2022-07-13T07:50:41Z</time>
      </trkpt>
      <trkpt lat="44.63627" lon="7.06204">
        <ele>1948</ele>
        <time>2022-07-13T07:50:49Z</time>
      </trkpt>
      <trkpt lat="44.63624" lon="7.06209">
        <ele>1947</ele>
        <time>2022-07-13T07:50:53Z</time>
      </trkpt>
      <trkpt lat="44.63622" lon="7.06213">
        <ele>1946</ele>
        <time>2022-07-13T07:50:57Z</time>
      </trkpt>
      <trkpt lat="44.63618" lon="7.06214">
        <ele>1945</ele>
        <time>2022-07-13T07:51:01Z</time>
      </trkpt>
      <trkpt lat="44.63608" lon="7.0622">
        <ele>1943</ele>
        <time>2022-07-13T07:51:13Z</time>
      </trkpt>
      <trkpt lat="44.63605" lon="7.06225">
        <ele>1942</ele>
        <time>2022-07-13T07:51:18Z</time>
      </trkpt>
      <trkpt lat="44.63602" lon="7.06229">
        <ele>1941</ele>
        <time>2022-07-13T07:51:22Z</time>
      </trkpt>
      <trkpt lat="44.63598" lon="7.06229">
        <ele>1940</ele>
        <time>2022-07-13T07:51:26Z</time>
      </trkpt>
      <trkpt lat="44.63595" lon="7.06231">
        <ele>1938</ele>
        <time>2022-07-13T07:51:30Z</time>
      </trkpt>
      <trkpt lat="44.63588" lon="7.06234">
        <ele>1936</ele>
        <time>2022-07-13T07:51:37Z</time>
      </trkpt>
      <trkpt lat="44.63583" lon="7.06233">
        <ele>1935</ele>
        <time>2022-07-13T07:51:41Z</time>
      </trkpt>
      <trkpt lat="44.63572" lon="7.06225">
        <ele>1934</ele>
        <time>2022-07-13T07:51:53Z</time>
      </trkpt>
      <trkpt lat="44.63568" lon="7.0622">
        <ele>1934</ele>
        <time>2022-07-13T07:52:14Z</time>
      </trkpt>
      <trkpt lat="44.63567" lon="7.06217">
        <ele>1934</ele>
        <time>2022-07-13T07:53:43Z</time>
      </trkpt>
      <trkpt lat="44.63563" lon="7.06219">
        <ele>1934</ele>
        <time>2022-07-13T07:53:47Z</time>
      </trkpt>
      <trkpt lat="44.63558" lon="7.0622">
        <ele>1933</ele>
        <time>2022-07-13T07:53:51Z</time>
      </trkpt>
      <trkpt lat="44.63551" lon="7.06222">
        <ele>1932</ele>
        <time>2022-07-13T07:53:58Z</time>
      </trkpt>
      <trkpt lat="44.63538" lon="7.0623">
        <ele>1932</ele>
        <time>2022-07-13T07:54:11Z</time>
      </trkpt>
      <trkpt lat="44.6353" lon="7.0623">
        <ele>1932</ele>
        <time>2022-07-13T07:54:27Z</time>
      </trkpt>
      <trkpt lat="44.63526" lon="7.06229">
        <ele>1932</ele>
        <time>2022-07-13T07:54:31Z</time>
      </trkpt>
      <trkpt lat="44.63523" lon="7.06227">
        <ele>1931</ele>
        <time>2022-07-13T07:54:35Z</time>
      </trkpt>
      <trkpt lat="44.63511" lon="7.06222">
        <ele>1930</ele>
        <time>2022-07-13T07:54:46Z</time>
      </trkpt>
      <trkpt lat="44.63507" lon="7.06224">
        <ele>1930</ele>
        <time>2022-07-13T07:54:50Z</time>
      </trkpt>
      <trkpt lat="44.63507" lon="7.0623">
        <ele>1935</ele>
        <time>2022-07-13T07:54:58Z</time>
      </trkpt>
      <trkpt lat="44.63503" lon="7.06229">
        <ele>1935</ele>
        <time>2022-07-13T07:55:02Z</time>
      </trkpt>
      <trkpt lat="44.63502" lon="7.0622">
        <ele>1933</ele>
        <time>2022-07-13T07:55:03Z</time>
      </trkpt>
      <trkpt lat="44.63487" lon="7.06215">
        <ele>1929</ele>
        <time>2022-07-13T07:55:17Z</time>
      </trkpt>
      <trkpt lat="44.63484" lon="7.06217">
        <ele>1930</ele>
        <time>2022-07-13T07:55:23Z</time>
      </trkpt>
      <trkpt lat="44.63482" lon="7.06212">
        <ele>1930</ele>
        <time>2022-07-13T07:55:37Z</time>
      </trkpt>
      <trkpt lat="44.63479" lon="7.06211">
        <ele>1929</ele>
        <time>2022-07-13T07:55:42Z</time>
      </trkpt>
      <trkpt lat="44.63475" lon="7.06212">
        <ele>1929</ele>
        <time>2022-07-13T07:55:46Z</time>
      </trkpt>
      <trkpt lat="44.63471" lon="7.06212">
        <ele>1928</ele>
        <time>2022-07-13T07:55:50Z</time>
      </trkpt>
      <trkpt lat="44.63468" lon="7.0621">
        <ele>1927</ele>
        <time>2022-07-13T07:55:54Z</time>
      </trkpt>
      <trkpt lat="44.63464" lon="7.06209">
        <ele>1926</ele>
        <time>2022-07-13T07:55:58Z</time>
      </trkpt>
      <trkpt lat="44.63457" lon="7.06204">
        <ele>1925</ele>
        <time>2022-07-13T07:56:05Z</time>
      </trkpt>
      <trkpt lat="44.63445" lon="7.06193">
        <ele>1924</ele>
        <time>2022-07-13T07:56:18Z</time>
      </trkpt>
      <trkpt lat="44.63439" lon="7.06188">
        <ele>1924</ele>
        <time>2022-07-13T07:56:24Z</time>
      </trkpt>
      <trkpt lat="44.63426" lon="7.06179">
        <ele>1924</ele>
        <time>2022-07-13T07:56:36Z</time>
      </trkpt>
      <trkpt lat="44.63404" lon="7.06157">
        <ele>1923</ele>
        <time>2022-07-13T07:56:59Z</time>
      </trkpt>
      <trkpt lat="44.63401" lon="7.06154">
        <ele>1923</ele>
        <time>2022-07-13T07:57:03Z</time>
      </trkpt>
      <trkpt lat="44.63396" lon="7.06153">
        <ele>1924</ele>
        <time>2022-07-13T07:57:07Z</time>
      </trkpt>
      <trkpt lat="44.63368" lon="7.06151">
        <ele>1924</ele>
        <time>2022-07-13T07:57:38Z</time>
      </trkpt>
      <trkpt lat="44.63361" lon="7.0615">
        <ele>1924</ele>
        <time>2022-07-13T07:57:45Z</time>
      </trkpt>
      <trkpt lat="44.63344" lon="7.06149">
        <ele>1925</ele>
        <time>2022-07-13T07:58:01Z</time>
      </trkpt>
      <trkpt lat="44.63334" lon="7.06148">
        <ele>1925</ele>
        <time>2022-07-13T07:58:10Z</time>
      </trkpt>
      <trkpt lat="44.63317" lon="7.0616">
        <ele>1924</ele>
        <time>2022-07-13T07:58:26Z</time>
      </trkpt>
      <trkpt lat="44.63301" lon="7.06174">
        <ele>1924</ele>
        <time>2022-07-13T07:58:44Z</time>
      </trkpt>
      <trkpt lat="44.6329" lon="7.0618">
        <ele>1924</ele>
        <time>2022-07-13T07:58:55Z</time>
      </trkpt>
      <trkpt lat="44.6328" lon="7.06189">
        <ele>1922</ele>
        <time>2022-07-13T07:59:05Z</time>
      </trkpt>
      <trkpt lat="44.6327" lon="7.06194">
        <ele>1921</ele>
        <time>2022-07-13T07:59:14Z</time>
      </trkpt>
      <trkpt lat="44.63259" lon="7.06195">
        <ele>1920</ele>
        <time>2022-07-13T07:59:23Z</time>
      </trkpt>
      <trkpt lat="44.63256" lon="7.06193">
        <ele>1921</ele>
        <time>2022-07-13T07:59:26Z</time>
      </trkpt>
      <trkpt lat="44.63252" lon="7.06192">
        <ele>1922</ele>
        <time>2022-07-13T07:59:44Z</time>
      </trkpt>
      <trkpt lat="44.63241" lon="7.06191">
        <ele>1923</ele>
        <time>2022-07-13T07:59:55Z</time>
      </trkpt>
      <trkpt lat="44.63237" lon="7.06193">
        <ele>1923</ele>
        <time>2022-07-13T07:59:59Z</time>
      </trkpt>
      <trkpt lat="44.6323" lon="7.06195">
        <ele>1922</ele>
        <time>2022-07-13T08:00:07Z</time>
      </trkpt>
      <trkpt lat="44.63226" lon="7.06197">
        <ele>1922</ele>
        <time>2022-07-13T08:00:12Z</time>
      </trkpt>
      <trkpt lat="44.63222" lon="7.06196">
        <ele>1922</ele>
        <time>2022-07-13T08:00:15Z</time>
      </trkpt>
      <trkpt lat="44.63219" lon="7.06196">
        <ele>1921</ele>
        <time>2022-07-13T08:00:19Z</time>
      </trkpt>
      <trkpt lat="44.63211" lon="7.06197">
        <ele>1920</ele>
        <time>2022-07-13T08:00:27Z</time>
      </trkpt>
      <trkpt lat="44.63207" lon="7.06201">
        <ele>1919</ele>
        <time>2022-07-13T08:00:31Z</time>
      </trkpt>
      <trkpt lat="44.6321" lon="7.06204">
        <ele>1920</ele>
        <time>2022-07-13T08:01:11Z</time>
      </trkpt>
      <trkpt lat="44.63213" lon="7.06208">
        <ele>1919</ele>
        <time>2022-07-13T08:01:15Z</time>
      </trkpt>
      <trkpt lat="44.63214" lon="7.06214">
        <ele>1919</ele>
        <time>2022-07-13T08:01:19Z</time>
      </trkpt>
      <trkpt lat="44.63211" lon="7.06218">
        <ele>1917</ele>
        <time>2022-07-13T08:01:23Z</time>
      </trkpt>
      <trkpt lat="44.63207" lon="7.06221">
        <ele>1917</ele>
        <time>2022-07-13T08:01:26Z</time>
      </trkpt>
      <trkpt lat="44.63204" lon="7.0622">
        <ele>1918</ele>
        <time>2022-07-13T08:01:30Z</time>
      </trkpt>
      <trkpt lat="44.632" lon="7.06223">
        <ele>1917</ele>
        <time>2022-07-13T08:01:34Z</time>
      </trkpt>
      <trkpt lat="44.63198" lon="7.06228">
        <ele>1916</ele>
        <time>2022-07-13T08:01:38Z</time>
      </trkpt>
      <trkpt lat="44.63199" lon="7.06233">
        <ele>1916</ele>
        <time>2022-07-13T08:01:45Z</time>
      </trkpt>
      <trkpt lat="44.63202" lon="7.06236">
        <ele>1917</ele>
        <time>2022-07-13T08:01:51Z</time>
      </trkpt>
      <trkpt lat="44.63214" lon="7.06239">
        <ele>1920</ele>
        <time>2022-07-13T08:02:10Z</time>
      </trkpt>
      <trkpt lat="44.63224" lon="7.06243">
        <ele>1919</ele>
        <time>2022-07-13T08:02:32Z</time>
      </trkpt>
      <trkpt lat="44.63228" lon="7.06247">
        <ele>1918</ele>
        <time>2022-07-13T08:02:39Z</time>
      </trkpt>
      <trkpt lat="44.63223" lon="7.06259">
        <ele>1919</ele>
        <time>2022-07-13T08:03:02Z</time>
      </trkpt>
      <trkpt lat="44.63214" lon="7.06263">
        <ele>1921</ele>
        <time>2022-07-13T08:03:14Z</time>
      </trkpt>
      <trkpt lat="44.63208" lon="7.06274">
        <ele>1924</ele>
        <time>2022-07-13T08:03:39Z</time>
      </trkpt>
      <trkpt lat="44.63214" lon="7.06284">
        <ele>1926</ele>
        <time>2022-07-13T08:03:57Z</time>
      </trkpt>
      <trkpt lat="44.63219" lon="7.06296">
        <ele>1932</ele>
        <time>2022-07-13T08:04:16Z</time>
      </trkpt>
      <trkpt lat="44.63235" lon="7.06309">
        <ele>1945</ele>
        <time>2022-07-13T08:04:57Z</time>
      </trkpt>
      <trkpt lat="44.63243" lon="7.06316">
        <ele>1945</ele>
        <time>2022-07-13T08:05:15Z</time>
      </trkpt>
      <trkpt lat="44.6325" lon="7.06314">
        <ele>1951</ele>
        <time>2022-07-13T08:05:30Z</time>
      </trkpt>
      <trkpt lat="44.63254" lon="7.06311">
        <ele>1953</ele>
        <time>2022-07-13T08:05:38Z</time>
      </trkpt>
      <trkpt lat="44.63262" lon="7.06313">
        <ele>1951</ele>
        <time>2022-07-13T08:05:47Z</time>
      </trkpt>
      <trkpt lat="44.63264" lon="7.06315">
        <ele>1950</ele>
        <time>2022-07-13T08:06:06Z</time>
      </trkpt>
      <trkpt lat="44.63263" lon="7.06321">
        <ele>1950</ele>
        <time>2022-07-13T08:06:09Z</time>
      </trkpt>
      <trkpt lat="44.6326" lon="7.06324">
        <ele>1953</ele>
        <time>2022-07-13T08:06:13Z</time>
      </trkpt>
      <trkpt lat="44.63256" lon="7.06332">
        <ele>1956</ele>
        <time>2022-07-13T08:06:24Z</time>
      </trkpt>
      <trkpt lat="44.6325" lon="7.06343">
        <ele>1957</ele>
        <time>2022-07-13T08:06:41Z</time>
      </trkpt>
      <trkpt lat="44.63243" lon="7.06347">
        <ele>1959</ele>
        <time>2022-07-13T08:06:51Z</time>
      </trkpt>
      <trkpt lat="44.63242" lon="7.06352">
        <ele>1960</ele>
        <time>2022-07-13T08:06:56Z</time>
      </trkpt>
      <trkpt lat="44.6324" lon="7.06357">
        <ele>1960</ele>
        <time>2022-07-13T08:07:01Z</time>
      </trkpt>
      <trkpt lat="44.63237" lon="7.0636">
        <ele>1960</ele>
        <time>2022-07-13T08:07:06Z</time>
      </trkpt>
      <trkpt lat="44.63234" lon="7.06362">
        <ele>1961</ele>
        <time>2022-07-13T08:07:14Z</time>
      </trkpt>
      <trkpt lat="44.6323" lon="7.06361">
        <ele>1963</ele>
        <time>2022-07-13T08:07:19Z</time>
      </trkpt>
      <trkpt lat="44.63226" lon="7.0636">
        <ele>1963</ele>
        <time>2022-07-13T08:07:24Z</time>
      </trkpt>
      <trkpt lat="44.63223" lon="7.06362">
        <ele>1965</ele>
        <time>2022-07-13T08:07:29Z</time>
      </trkpt>
      <trkpt lat="44.63222" lon="7.06367">
        <ele>1965</ele>
        <time>2022-07-13T08:07:33Z</time>
      </trkpt>
      <trkpt lat="44.63219" lon="7.06371">
        <ele>1966</ele>
        <time>2022-07-13T08:07:37Z</time>
      </trkpt>
      <trkpt lat="44.63217" lon="7.06377">
        <ele>1968</ele>
        <time>2022-07-13T08:07:42Z</time>
      </trkpt>
      <trkpt lat="44.63213" lon="7.06379">
        <ele>1967</ele>
        <time>2022-07-13T08:07:46Z</time>
      </trkpt>
      <trkpt lat="44.63208" lon="7.06382">
        <ele>1968</ele>
        <time>2022-07-13T08:07:50Z</time>
      </trkpt>
      <trkpt lat="44.63199" lon="7.06399">
        <ele>1974</ele>
        <time>2022-07-13T08:08:09Z</time>
      </trkpt>
      <trkpt lat="44.63195" lon="7.064">
        <ele>1976</ele>
        <time>2022-07-13T08:08:13Z</time>
      </trkpt>
      <trkpt lat="44.63192" lon="7.06402">
        <ele>1981</ele>
        <time>2022-07-13T08:08:18Z</time>
      </trkpt>
      <trkpt lat="44.63188" lon="7.06403">
        <ele>1983</ele>
        <time>2022-07-13T08:08:22Z</time>
      </trkpt>
      <trkpt lat="44.63185" lon="7.06407">
        <ele>1985</ele>
        <time>2022-07-13T08:08:26Z</time>
      </trkpt>
      <trkpt lat="44.63184" lon="7.06411">
        <ele>1986</ele>
        <time>2022-07-13T08:08:31Z</time>
      </trkpt>
      <trkpt lat="44.63183" lon="7.06416">
        <ele>1986</ele>
        <time>2022-07-13T08:08:36Z</time>
      </trkpt>
      <trkpt lat="44.63181" lon="7.06421">
        <ele>1987</ele>
        <time>2022-07-13T08:08:41Z</time>
      </trkpt>
      <trkpt lat="44.63178" lon="7.06423">
        <ele>1985</ele>
        <time>2022-07-13T08:08:47Z</time>
      </trkpt>
      <trkpt lat="44.63176" lon="7.06428">
        <ele>1985</ele>
        <time>2022-07-13T08:08:54Z</time>
      </trkpt>
      <trkpt lat="44.63173" lon="7.06433">
        <ele>1989</ele>
        <time>2022-07-13T08:09:01Z</time>
      </trkpt>
      <trkpt lat="44.63171" lon="7.06437">
        <ele>1988</ele>
        <time>2022-07-13T08:09:05Z</time>
      </trkpt>
      <trkpt lat="44.63172" lon="7.06442">
        <ele>1988</ele>
        <time>2022-07-13T08:09:11Z</time>
      </trkpt>
      <trkpt lat="44.63173" lon="7.06463">
        <ele>1988</ele>
        <time>2022-07-13T08:09:34Z</time>
      </trkpt>
      <trkpt lat="44.63173" lon="7.06474">
        <ele>1988</ele>
        <time>2022-07-13T08:09:45Z</time>
      </trkpt>
      <trkpt lat="44.63167" lon="7.06481">
        <ele>1988</ele>
        <time>2022-07-13T08:09:54Z</time>
      </trkpt>
      <trkpt lat="44.63164" lon="7.06484">
        <ele>1989</ele>
        <time>2022-07-13T08:09:58Z</time>
      </trkpt>
      <trkpt lat="44.6316" lon="7.06486">
        <ele>1989</ele>
        <time>2022-07-13T08:10:02Z</time>
      </trkpt>
      <trkpt lat="44.63158" lon="7.0649">
        <ele>1989</ele>
        <time>2022-07-13T08:10:07Z</time>
      </trkpt>
      <trkpt lat="44.63156" lon="7.06495">
        <ele>1990</ele>
        <time>2022-07-13T08:10:11Z</time>
      </trkpt>
      <trkpt lat="44.63154" lon="7.06499">
        <ele>1990</ele>
        <time>2022-07-13T08:10:16Z</time>
      </trkpt>
      <trkpt lat="44.63154" lon="7.06504">
        <ele>1991</ele>
        <time>2022-07-13T08:10:21Z</time>
      </trkpt>
      <trkpt lat="44.63154" lon="7.06509">
        <ele>1994</ele>
        <time>2022-07-13T08:10:27Z</time>
      </trkpt>
      <trkpt lat="44.63154" lon="7.06515">
        <ele>1994</ele>
        <time>2022-07-13T08:10:33Z</time>
      </trkpt>
      <trkpt lat="44.63151" lon="7.06525">
        <ele>1995</ele>
        <time>2022-07-13T08:10:45Z</time>
      </trkpt>
      <trkpt lat="44.63139" lon="7.06537">
        <ele>1994</ele>
        <time>2022-07-13T08:11:03Z</time>
      </trkpt>
      <trkpt lat="44.63136" lon="7.0654">
        <ele>1995</ele>
        <time>2022-07-13T08:11:07Z</time>
      </trkpt>
      <trkpt lat="44.6313" lon="7.06546">
        <ele>1995</ele>
        <time>2022-07-13T08:11:16Z</time>
      </trkpt>
      <trkpt lat="44.63122" lon="7.06548">
        <ele>1995</ele>
        <time>2022-07-13T08:11:26Z</time>
      </trkpt>
      <trkpt lat="44.63114" lon="7.06549">
        <ele>1993</ele>
        <time>2022-07-13T08:11:33Z</time>
      </trkpt>
      <trkpt lat="44.63108" lon="7.06546">
        <ele>1996</ele>
        <time>2022-07-13T08:11:46Z</time>
      </trkpt>
      <trkpt lat="44.63107" lon="7.06551">
        <ele>1998</ele>
        <time>2022-07-13T08:11:50Z</time>
      </trkpt>
      <trkpt lat="44.631" lon="7.0655">
        <ele>1996</ele>
        <time>2022-07-13T08:11:59Z</time>
      </trkpt>
      <trkpt lat="44.63098" lon="7.06557">
        <ele>1996</ele>
        <time>2022-07-13T08:12:06Z</time>
      </trkpt>
      <trkpt lat="44.63091" lon="7.06565">
        <ele>2000</ele>
        <time>2022-07-13T08:12:17Z</time>
      </trkpt>
      <trkpt lat="44.63087" lon="7.06565">
        <ele>2001</ele>
        <time>2022-07-13T08:12:21Z</time>
      </trkpt>
      <trkpt lat="44.63083" lon="7.0657">
        <ele>2001</ele>
        <time>2022-07-13T08:13:09Z</time>
      </trkpt>
      <trkpt lat="44.6307" lon="7.06576">
        <ele>1997</ele>
        <time>2022-07-13T08:13:15Z</time>
      </trkpt>
      <trkpt lat="44.63066" lon="7.06572">
        <ele>1997</ele>
        <time>2022-07-13T08:13:20Z</time>
      </trkpt>
      <trkpt lat="44.63052" lon="7.06585">
        <ele>1998</ele>
        <time>2022-07-13T08:13:42Z</time>
      </trkpt>
      <trkpt lat="44.63049" lon="7.0659">
        <ele>1999</ele>
        <time>2022-07-13T08:13:46Z</time>
      </trkpt>
      <trkpt lat="44.63046" lon="7.06592">
        <ele>1998</ele>
        <time>2022-07-13T08:13:50Z</time>
      </trkpt>
      <trkpt lat="44.6303" lon="7.06595">
        <ele>1998</ele>
        <time>2022-07-13T08:14:02Z</time>
      </trkpt>
      <trkpt lat="44.63026" lon="7.06598">
        <ele>1997</ele>
        <time>2022-07-13T08:14:05Z</time>
      </trkpt>
      <trkpt lat="44.63017" lon="7.066">
        <ele>1996</ele>
        <time>2022-07-13T08:14:13Z</time>
      </trkpt>
      <trkpt lat="44.6301" lon="7.06604">
        <ele>1998</ele>
        <time>2022-07-13T08:14:18Z</time>
      </trkpt>
      <trkpt lat="44.63006" lon="7.06609">
        <ele>1999</ele>
        <time>2022-07-13T08:14:21Z</time>
      </trkpt>
      <trkpt lat="44.62999" lon="7.06613">
        <ele>2000</ele>
        <time>2022-07-13T08:14:28Z</time>
      </trkpt>
      <trkpt lat="44.62995" lon="7.06615">
        <ele>1999</ele>
        <time>2022-07-13T08:14:32Z</time>
      </trkpt>
      <trkpt lat="44.62987" lon="7.06617">
        <ele>1999</ele>
        <time>2022-07-13T08:14:41Z</time>
      </trkpt>
      <trkpt lat="44.62985" lon="7.06622">
        <ele>2001</ele>
        <time>2022-07-13T08:14:46Z</time>
      </trkpt>
      <trkpt lat="44.6298" lon="7.06621">
        <ele>2002</ele>
        <time>2022-07-13T08:14:50Z</time>
      </trkpt>
      <trkpt lat="44.62965" lon="7.06623">
        <ele>2003</ele>
        <time>2022-07-13T08:15:03Z</time>
      </trkpt>
      <trkpt lat="44.62962" lon="7.06622">
        <ele>2005</ele>
        <time>2022-07-13T08:15:07Z</time>
      </trkpt>
      <trkpt lat="44.62956" lon="7.06614">
        <ele>2003</ele>
        <time>2022-07-13T08:15:16Z</time>
      </trkpt>
      <trkpt lat="44.62955" lon="7.06609">
        <ele>2003</ele>
        <time>2022-07-13T08:15:19Z</time>
      </trkpt>
      <trkpt lat="44.62951" lon="7.06607">
        <ele>2002</ele>
        <time>2022-07-13T08:15:25Z</time>
      </trkpt>
      <trkpt lat="44.62948" lon="7.0661">
        <ele>2003</ele>
        <time>2022-07-13T08:15:29Z</time>
      </trkpt>
      <trkpt lat="44.62945" lon="7.06615">
        <ele>2003</ele>
        <time>2022-07-13T08:15:33Z</time>
      </trkpt>
      <trkpt lat="44.62937" lon="7.06613">
        <ele>2002</ele>
        <time>2022-07-13T08:15:40Z</time>
      </trkpt>
      <trkpt lat="44.62934" lon="7.06614">
        <ele>2001</ele>
        <time>2022-07-13T08:15:44Z</time>
      </trkpt>
      <trkpt lat="44.62931" lon="7.06616">
        <ele>2000</ele>
        <time>2022-07-13T08:15:47Z</time>
      </trkpt>
      <trkpt lat="44.62919" lon="7.06617">
        <ele>2000</ele>
        <time>2022-07-13T08:16:01Z</time>
      </trkpt>
      <trkpt lat="44.62915" lon="7.06619">
        <ele>1999</ele>
        <time>2022-07-13T08:16:06Z</time>
      </trkpt>
      <trkpt lat="44.62913" lon="7.06624">
        <ele>1999</ele>
        <time>2022-07-13T08:16:11Z</time>
      </trkpt>
      <trkpt lat="44.6291" lon="7.06627">
        <ele>2000</ele>
        <time>2022-07-13T08:16:16Z</time>
      </trkpt>
      <trkpt lat="44.62907" lon="7.06631">
        <ele>1999</ele>
        <time>2022-07-13T08:16:21Z</time>
      </trkpt>
      <trkpt lat="44.62903" lon="7.06631">
        <ele>1999</ele>
        <time>2022-07-13T08:16:25Z</time>
      </trkpt>
      <trkpt lat="44.62902" lon="7.06626">
        <ele>1999</ele>
        <time>2022-07-13T08:16:28Z</time>
      </trkpt>
      <trkpt lat="44.62899" lon="7.06623">
        <ele>1999</ele>
        <time>2022-07-13T08:16:32Z</time>
      </trkpt>
      <trkpt lat="44.62896" lon="7.06622">
        <ele>1999</ele>
        <time>2022-07-13T08:16:37Z</time>
      </trkpt>
      <trkpt lat="44.62891" lon="7.06634">
        <ele>2000</ele>
        <time>2022-07-13T08:16:49Z</time>
      </trkpt>
      <trkpt lat="44.62885" lon="7.06643">
        <ele>2002</ele>
        <time>2022-07-13T08:17:01Z</time>
      </trkpt>
      <trkpt lat="44.6288" lon="7.06647">
        <ele>1998</ele>
        <time>2022-07-13T08:18:21Z</time>
      </trkpt>
      <trkpt lat="44.62876" lon="7.06647">
        <ele>1998</ele>
        <time>2022-07-13T08:18:24Z</time>
      </trkpt>
      <trkpt lat="44.62874" lon="7.06643">
        <ele>1999</ele>
        <time>2022-07-13T08:18:28Z</time>
      </trkpt>
      <trkpt lat="44.62866" lon="7.06638">
        <ele>1999</ele>
        <time>2022-07-13T08:18:38Z</time>
      </trkpt>
      <trkpt lat="44.62862" lon="7.06637">
        <ele>1998</ele>
        <time>2022-07-13T08:18:44Z</time>
      </trkpt>
      <trkpt lat="44.62859" lon="7.06637">
        <ele>1999</ele>
        <time>2022-07-13T08:18:49Z</time>
      </trkpt>
      <trkpt lat="44.62856" lon="7.06636">
        <ele>2000</ele>
        <time>2022-07-13T08:18:53Z</time>
      </trkpt>
      <trkpt lat="44.62852" lon="7.06637">
        <ele>2001</ele>
        <time>2022-07-13T08:18:59Z</time>
      </trkpt>
      <trkpt lat="44.62849" lon="7.06638">
        <ele>2003</ele>
        <time>2022-07-13T08:19:05Z</time>
      </trkpt>
      <trkpt lat="44.62846" lon="7.06641">
        <ele>2004</ele>
        <time>2022-07-13T08:19:12Z</time>
      </trkpt>
      <trkpt lat="44.62843" lon="7.06642">
        <ele>2004</ele>
        <time>2022-07-13T08:19:19Z</time>
      </trkpt>
      <trkpt lat="44.62836" lon="7.06646">
        <ele>2005</ele>
        <time>2022-07-13T08:19:29Z</time>
      </trkpt>
      <trkpt lat="44.62832" lon="7.06647">
        <ele>2006</ele>
        <time>2022-07-13T08:19:36Z</time>
      </trkpt>
      <trkpt lat="44.62828" lon="7.06648">
        <ele>2007</ele>
        <time>2022-07-13T08:19:41Z</time>
      </trkpt>
      <trkpt lat="44.62828" lon="7.06653">
        <ele>2008</ele>
        <time>2022-07-13T08:19:46Z</time>
      </trkpt>
      <trkpt lat="44.62825" lon="7.06656">
        <ele>2008</ele>
        <time>2022-07-13T08:19:53Z</time>
      </trkpt>
      <trkpt lat="44.62821" lon="7.06658">
        <ele>2010</ele>
        <time>2022-07-13T08:19:59Z</time>
      </trkpt>
      <trkpt lat="44.62818" lon="7.0666">
        <ele>2011</ele>
        <time>2022-07-13T08:20:06Z</time>
      </trkpt>
      <trkpt lat="44.62814" lon="7.06658">
        <ele>2012</ele>
        <time>2022-07-13T08:20:10Z</time>
      </trkpt>
      <trkpt lat="44.62811" lon="7.0666">
        <ele>2012</ele>
        <time>2022-07-13T08:20:20Z</time>
      </trkpt>
      <trkpt lat="44.62812" lon="7.06665">
        <ele>2012</ele>
        <time>2022-07-13T08:20:24Z</time>
      </trkpt>
      <trkpt lat="44.6281" lon="7.06669">
        <ele>2013</ele>
        <time>2022-07-13T08:20:28Z</time>
      </trkpt>
      <trkpt lat="44.62807" lon="7.06672">
        <ele>2015</ele>
        <time>2022-07-13T08:20:36Z</time>
      </trkpt>
      <trkpt lat="44.62808" lon="7.06677">
        <ele>2017</ele>
        <time>2022-07-13T08:20:42Z</time>
      </trkpt>
      <trkpt lat="44.62805" lon="7.06681">
        <ele>2019</ele>
        <time>2022-07-13T08:20:51Z</time>
      </trkpt>
      <trkpt lat="44.62803" lon="7.06685">
        <ele>2019</ele>
        <time>2022-07-13T08:20:57Z</time>
      </trkpt>
      <trkpt lat="44.62801" lon="7.06695">
        <ele>2019</ele>
        <time>2022-07-13T08:21:06Z</time>
      </trkpt>
      <trkpt lat="44.628" lon="7.067">
        <ele>2019</ele>
        <time>2022-07-13T08:21:10Z</time>
      </trkpt>
      <trkpt lat="44.62794" lon="7.06713">
        <ele>2022</ele>
        <time>2022-07-13T08:21:22Z</time>
      </trkpt>
      <trkpt lat="44.62795" lon="7.06719">
        <ele>2023</ele>
        <time>2022-07-13T08:21:26Z</time>
      </trkpt>
      <trkpt lat="44.62799" lon="7.06723">
        <ele>2023</ele>
        <time>2022-07-13T08:21:31Z</time>
      </trkpt>
      <trkpt lat="44.62796" lon="7.06728">
        <ele>2022</ele>
        <time>2022-07-13T08:21:37Z</time>
      </trkpt>
      <trkpt lat="44.62794" lon="7.06732">
        <ele>2020</ele>
        <time>2022-07-13T08:21:41Z</time>
      </trkpt>
      <trkpt lat="44.62793" lon="7.06766">
        <ele>2018</ele>
        <time>2022-07-13T08:22:04Z</time>
      </trkpt>
      <trkpt lat="44.62791" lon="7.06784">
        <ele>2018</ele>
        <time>2022-07-13T08:22:17Z</time>
      </trkpt>
      <trkpt lat="44.62792" lon="7.06789">
        <ele>2017</ele>
        <time>2022-07-13T08:22:22Z</time>
      </trkpt>
      <trkpt lat="44.62791" lon="7.06794">
        <ele>2017</ele>
        <time>2022-07-13T08:22:26Z</time>
      </trkpt>
      <trkpt lat="44.62789" lon="7.06798">
        <ele>2019</ele>
        <time>2022-07-13T08:22:30Z</time>
      </trkpt>
      <trkpt lat="44.62786" lon="7.06803">
        <ele>2021</ele>
        <time>2022-07-13T08:22:35Z</time>
      </trkpt>
      <trkpt lat="44.62784" lon="7.06807">
        <ele>2022</ele>
        <time>2022-07-13T08:22:40Z</time>
      </trkpt>
      <trkpt lat="44.62785" lon="7.06812">
        <ele>2022</ele>
        <time>2022-07-13T08:22:45Z</time>
      </trkpt>
      <trkpt lat="44.62782" lon="7.06822">
        <ele>2023</ele>
        <time>2022-07-13T08:22:56Z</time>
      </trkpt>
      <trkpt lat="44.62781" lon="7.06827">
        <ele>2024</ele>
        <time>2022-07-13T08:23:01Z</time>
      </trkpt>
      <trkpt lat="44.6278" lon="7.06832">
        <ele>2025</ele>
        <time>2022-07-13T08:23:07Z</time>
      </trkpt>
      <trkpt lat="44.62784" lon="7.06834">
        <ele>2025</ele>
        <time>2022-07-13T08:23:29Z</time>
      </trkpt>
      <trkpt lat="44.62787" lon="7.06838">
        <ele>2027</ele>
        <time>2022-07-13T08:23:35Z</time>
      </trkpt>
      <trkpt lat="44.62789" lon="7.06842">
        <ele>2027</ele>
        <time>2022-07-13T08:23:40Z</time>
      </trkpt>
      <trkpt lat="44.62796" lon="7.06842">
        <ele>2026</ele>
        <time>2022-07-13T08:23:50Z</time>
      </trkpt>
      <trkpt lat="44.62797" lon="7.06848">
        <ele>2028</ele>
        <time>2022-07-13T08:23:55Z</time>
      </trkpt>
      <trkpt lat="44.62795" lon="7.06853">
        <ele>2031</ele>
        <time>2022-07-13T08:23:59Z</time>
      </trkpt>
      <trkpt lat="44.62798" lon="7.06856">
        <ele>2031</ele>
        <time>2022-07-13T08:24:04Z</time>
      </trkpt>
      <trkpt lat="44.62802" lon="7.06857">
        <ele>2032</ele>
        <time>2022-07-13T08:24:11Z</time>
      </trkpt>
      <trkpt lat="44.62804" lon="7.06862">
        <ele>2032</ele>
        <time>2022-07-13T08:24:18Z</time>
      </trkpt>
      <trkpt lat="44.62807" lon="7.06861">
        <ele>2033</ele>
        <time>2022-07-13T08:24:25Z</time>
      </trkpt>
      <trkpt lat="44.6281" lon="7.06863">
        <ele>2034</ele>
        <time>2022-07-13T08:24:33Z</time>
      </trkpt>
      <trkpt lat="44.6281" lon="7.06869">
        <ele>2035</ele>
        <time>2022-07-13T08:24:39Z</time>
      </trkpt>
      <trkpt lat="44.62806" lon="7.0687">
        <ele>2038</ele>
        <time>2022-07-13T08:24:43Z</time>
      </trkpt>
      <trkpt lat="44.62808" lon="7.0688">
        <ele>2040</ele>
        <time>2022-07-13T08:24:58Z</time>
      </trkpt>
      <trkpt lat="44.62807" lon="7.06884">
        <ele>2041</ele>
        <time>2022-07-13T08:25:03Z</time>
      </trkpt>
      <trkpt lat="44.62805" lon="7.06889">
        <ele>2039</ele>
        <time>2022-07-13T08:25:08Z</time>
      </trkpt>
      <trkpt lat="44.62799" lon="7.06894">
        <ele>2041</ele>
        <time>2022-07-13T08:25:16Z</time>
      </trkpt>
      <trkpt lat="44.62796" lon="7.06898">
        <ele>2041</ele>
        <time>2022-07-13T08:25:21Z</time>
      </trkpt>
      <trkpt lat="44.62794" lon="7.06902">
        <ele>2042</ele>
        <time>2022-07-13T08:25:25Z</time>
      </trkpt>
      <trkpt lat="44.62791" lon="7.06906">
        <ele>2043</ele>
        <time>2022-07-13T08:25:29Z</time>
      </trkpt>
      <trkpt lat="44.62792" lon="7.0691">
        <ele>2044</ele>
        <time>2022-07-13T08:25:35Z</time>
      </trkpt>
      <trkpt lat="44.62799" lon="7.06914">
        <ele>2041</ele>
        <time>2022-07-13T08:25:46Z</time>
      </trkpt>
      <trkpt lat="44.62801" lon="7.06919">
        <ele>2041</ele>
        <time>2022-07-13T08:25:50Z</time>
      </trkpt>
      <trkpt lat="44.62804" lon="7.06921">
        <ele>2041</ele>
        <time>2022-07-13T08:25:57Z</time>
      </trkpt>
      <trkpt lat="44.62804" lon="7.06926">
        <ele>2044</ele>
        <time>2022-07-13T08:26:06Z</time>
      </trkpt>
      <trkpt lat="44.62804" lon="7.06931">
        <ele>2043</ele>
        <time>2022-07-13T08:26:13Z</time>
      </trkpt>
      <trkpt lat="44.62804" lon="7.06936">
        <ele>2045</ele>
        <time>2022-07-13T08:26:19Z</time>
      </trkpt>
      <trkpt lat="44.62808" lon="7.06939">
        <ele>2047</ele>
        <time>2022-07-13T08:26:27Z</time>
      </trkpt>
      <trkpt lat="44.62812" lon="7.06946">
        <ele>2055</ele>
        <time>2022-07-13T08:26:41Z</time>
      </trkpt>
      <trkpt lat="44.62815" lon="7.0695">
        <ele>2063</ele>
        <time>2022-07-13T08:26:50Z</time>
      </trkpt>
      <trkpt lat="44.62819" lon="7.0695">
        <ele>2062</ele>
        <time>2022-07-13T08:27:00Z</time>
      </trkpt>
      <trkpt lat="44.62821" lon="7.06945">
        <ele>2059</ele>
        <time>2022-07-13T08:27:17Z</time>
      </trkpt>
      <trkpt lat="44.62824" lon="7.06946">
        <ele>2060</ele>
        <time>2022-07-13T08:27:25Z</time>
      </trkpt>
      <trkpt lat="44.62827" lon="7.06949">
        <ele>2062</ele>
        <time>2022-07-13T08:27:30Z</time>
      </trkpt>
      <trkpt lat="44.62831" lon="7.06952">
        <ele>2062</ele>
        <time>2022-07-13T08:27:37Z</time>
      </trkpt>
      <trkpt lat="44.62829" lon="7.06957">
        <ele>2063</ele>
        <time>2022-07-13T08:27:44Z</time>
      </trkpt>
      <trkpt lat="44.62828" lon="7.06962">
        <ele>2066</ele>
        <time>2022-07-13T08:27:49Z</time>
      </trkpt>
      <trkpt lat="44.62827" lon="7.06966">
        <ele>2067</ele>
        <time>2022-07-13T08:27:55Z</time>
      </trkpt>
      <trkpt lat="44.62829" lon="7.0697">
        <ele>2072</ele>
        <time>2022-07-13T08:28:03Z</time>
      </trkpt>
      <trkpt lat="44.62827" lon="7.06974">
        <ele>2074</ele>
        <time>2022-07-13T08:28:09Z</time>
      </trkpt>
      <trkpt lat="44.62826" lon="7.06979">
        <ele>2077</ele>
        <time>2022-07-13T08:28:15Z</time>
      </trkpt>
      <trkpt lat="44.62829" lon="7.06981">
        <ele>2076</ele>
        <time>2022-07-13T08:28:21Z</time>
      </trkpt>
      <trkpt lat="44.62822" lon="7.06989">
        <ele>2074</ele>
        <time>2022-07-13T08:28:44Z</time>
      </trkpt>
      <trkpt lat="44.62829" lon="7.06998">
        <ele>2075</ele>
        <time>2022-07-13T08:28:59Z</time>
      </trkpt>
      <trkpt lat="44.62838" lon="7.07">
        <ele>2074</ele>
        <time>2022-07-13T08:29:13Z</time>
      </trkpt>
      <trkpt lat="44.62834" lon="7.07011">
        <ele>2077</ele>
        <time>2022-07-13T08:29:34Z</time>
      </trkpt>
      <trkpt lat="44.62843" lon="7.07013">
        <ele>2079</ele>
        <time>2022-07-13T08:29:51Z</time>
      </trkpt>
      <trkpt lat="44.62846" lon="7.07019">
        <ele>2087</ele>
        <time>2022-07-13T08:30:34Z</time>
      </trkpt>
      <trkpt lat="44.62839" lon="7.07027">
        <ele>2089</ele>
        <time>2022-07-13T08:30:48Z</time>
      </trkpt>
      <trkpt lat="44.62842" lon="7.07039">
        <ele>2089</ele>
        <time>2022-07-13T08:31:12Z</time>
      </trkpt>
      <trkpt lat="44.62851" lon="7.07043">
        <ele>2090</ele>
        <time>2022-07-13T08:31:29Z</time>
      </trkpt>
      <trkpt lat="44.6286" lon="7.07044">
        <ele>2094</ele>
        <time>2022-07-13T08:31:51Z</time>
      </trkpt>
      <trkpt lat="44.62864" lon="7.07042">
        <ele>2095</ele>
        <time>2022-07-13T08:31:58Z</time>
      </trkpt>
      <trkpt lat="44.62867" lon="7.07041">
        <ele>2096</ele>
        <time>2022-07-13T08:32:04Z</time>
      </trkpt>
      <trkpt lat="44.62871" lon="7.07039">
        <ele>2099</ele>
        <time>2022-07-13T08:32:11Z</time>
      </trkpt>
      <trkpt lat="44.62874" lon="7.0704">
        <ele>2099</ele>
        <time>2022-07-13T08:32:17Z</time>
      </trkpt>
      <trkpt lat="44.62872" lon="7.07042">
        <ele>2105</ele>
        <time>2022-07-13T08:32:42Z</time>
      </trkpt>
      <trkpt lat="44.62864" lon="7.07053">
        <ele>2109</ele>
        <time>2022-07-13T08:32:57Z</time>
      </trkpt>
      <trkpt lat="44.62863" lon="7.07058">
        <ele>2112</ele>
        <time>2022-07-13T08:33:02Z</time>
      </trkpt>
      <trkpt lat="44.62864" lon="7.07063">
        <ele>2114</ele>
        <time>2022-07-13T08:33:10Z</time>
      </trkpt>
      <trkpt lat="44.62866" lon="7.07066">
        <ele>2114</ele>
        <time>2022-07-13T08:33:26Z</time>
      </trkpt>
      <trkpt lat="44.62869" lon="7.07063">
        <ele>2115</ele>
        <time>2022-07-13T08:33:31Z</time>
      </trkpt>
      <trkpt lat="44.62872" lon="7.07059">
        <ele>2116</ele>
        <time>2022-07-13T08:33:36Z</time>
      </trkpt>
      <trkpt lat="44.62876" lon="7.07057">
        <ele>2117</ele>
        <time>2022-07-13T08:33:42Z</time>
      </trkpt>
      <trkpt lat="44.62879" lon="7.07055">
        <ele>2117</ele>
        <time>2022-07-13T08:33:48Z</time>
      </trkpt>
      <trkpt lat="44.62883" lon="7.07057">
        <ele>2118</ele>
        <time>2022-07-13T08:33:55Z</time>
      </trkpt>
      <trkpt lat="44.62882" lon="7.07062">
        <ele>2119</ele>
        <time>2022-07-13T08:34:01Z</time>
      </trkpt>
      <trkpt lat="44.62879" lon="7.07065">
        <ele>2119</ele>
        <time>2022-07-13T08:34:06Z</time>
      </trkpt>
      <trkpt lat="44.62877" lon="7.0707">
        <ele>2119</ele>
        <time>2022-07-13T08:34:12Z</time>
      </trkpt>
      <trkpt lat="44.62877" lon="7.07075">
        <ele>2119</ele>
        <time>2022-07-13T08:34:19Z</time>
      </trkpt>
      <trkpt lat="44.62874" lon="7.0708">
        <ele>2121</ele>
        <time>2022-07-13T08:34:26Z</time>
      </trkpt>
      <trkpt lat="44.62874" lon="7.07085">
        <ele>2124</ele>
        <time>2022-07-13T08:34:37Z</time>
      </trkpt>
      <trkpt lat="44.62872" lon="7.07089">
        <ele>2125</ele>
        <time>2022-07-13T08:34:45Z</time>
      </trkpt>
      <trkpt lat="44.6287" lon="7.07094">
        <ele>2126</ele>
        <time>2022-07-13T08:34:53Z</time>
      </trkpt>
      <trkpt lat="44.62871" lon="7.07099">
        <ele>2126</ele>
        <time>2022-07-13T08:35:01Z</time>
      </trkpt>
      <trkpt lat="44.62874" lon="7.07108">
        <ele>2130</ele>
        <time>2022-07-13T08:35:13Z</time>
      </trkpt>
      <trkpt lat="44.62876" lon="7.07112">
        <ele>2129</ele>
        <time>2022-07-13T08:35:19Z</time>
      </trkpt>
      <trkpt lat="44.62878" lon="7.07116">
        <ele>2130</ele>
        <time>2022-07-13T08:35:25Z</time>
      </trkpt>
      <trkpt lat="44.6288" lon="7.0712">
        <ele>2132</ele>
        <time>2022-07-13T08:35:30Z</time>
      </trkpt>
      <trkpt lat="44.62882" lon="7.07124">
        <ele>2131</ele>
        <time>2022-07-13T08:35:35Z</time>
      </trkpt>
      <trkpt lat="44.62885" lon="7.07128">
        <ele>2129</ele>
        <time>2022-07-13T08:35:40Z</time>
      </trkpt>
      <trkpt lat="44.62887" lon="7.07132">
        <ele>2129</ele>
        <time>2022-07-13T08:35:44Z</time>
      </trkpt>
      <trkpt lat="44.62897" lon="7.07147">
        <ele>2133</ele>
        <time>2022-07-13T08:36:00Z</time>
      </trkpt>
      <trkpt lat="44.629" lon="7.07151">
        <ele>2135</ele>
        <time>2022-07-13T08:36:05Z</time>
      </trkpt>
      <trkpt lat="44.62905" lon="7.07159">
        <ele>2134</ele>
        <time>2022-07-13T08:36:14Z</time>
      </trkpt>
      <trkpt lat="44.62908" lon="7.07159">
        <ele>2135</ele>
        <time>2022-07-13T08:36:20Z</time>
      </trkpt>
      <trkpt lat="44.6291" lon="7.07163">
        <ele>2135</ele>
        <time>2022-07-13T08:36:26Z</time>
      </trkpt>
      <trkpt lat="44.62914" lon="7.07164">
        <ele>2135</ele>
        <time>2022-07-13T08:36:33Z</time>
      </trkpt>
      <trkpt lat="44.62917" lon="7.07163">
        <ele>2137</ele>
        <time>2022-07-13T08:36:39Z</time>
      </trkpt>
      <trkpt lat="44.62921" lon="7.07161">
        <ele>2138</ele>
        <time>2022-07-13T08:36:45Z</time>
      </trkpt>
      <trkpt lat="44.62925" lon="7.07163">
        <ele>2141</ele>
        <time>2022-07-13T08:36:51Z</time>
      </trkpt>
      <trkpt lat="44.62928" lon="7.07165">
        <ele>2143</ele>
        <time>2022-07-13T08:36:59Z</time>
      </trkpt>
      <trkpt lat="44.6293" lon="7.07169">
        <ele>2143</ele>
        <time>2022-07-13T08:37:05Z</time>
      </trkpt>
      <trkpt lat="44.62934" lon="7.0717">
        <ele>2143</ele>
        <time>2022-07-13T08:37:10Z</time>
      </trkpt>
      <trkpt lat="44.62937" lon="7.0717">
        <ele>2144</ele>
        <time>2022-07-13T08:37:15Z</time>
      </trkpt>
      <trkpt lat="44.62944" lon="7.07174">
        <ele>2147</ele>
        <time>2022-07-13T08:37:25Z</time>
      </trkpt>
      <trkpt lat="44.62948" lon="7.07175">
        <ele>2147</ele>
        <time>2022-07-13T08:37:30Z</time>
      </trkpt>
      <trkpt lat="44.62951" lon="7.07178">
        <ele>2146</ele>
        <time>2022-07-13T08:37:35Z</time>
      </trkpt>
      <trkpt lat="44.62955" lon="7.07177">
        <ele>2146</ele>
        <time>2022-07-13T08:37:41Z</time>
      </trkpt>
      <trkpt lat="44.62957" lon="7.07173">
        <ele>2147</ele>
        <time>2022-07-13T08:37:48Z</time>
      </trkpt>
      <trkpt lat="44.6296" lon="7.07173">
        <ele>2147</ele>
        <time>2022-07-13T08:37:55Z</time>
      </trkpt>
      <trkpt lat="44.62963" lon="7.07177">
        <ele>2147</ele>
        <time>2022-07-13T08:38:01Z</time>
      </trkpt>
      <trkpt lat="44.62966" lon="7.07176">
        <ele>2145</ele>
        <time>2022-07-13T08:38:08Z</time>
      </trkpt>
      <trkpt lat="44.6297" lon="7.07177">
        <ele>2145</ele>
        <time>2022-07-13T08:38:14Z</time>
      </trkpt>
      <trkpt lat="44.62974" lon="7.07178">
        <ele>2146</ele>
        <time>2022-07-13T08:38:20Z</time>
      </trkpt>
      <trkpt lat="44.62977" lon="7.0718">
        <ele>2147</ele>
        <time>2022-07-13T08:38:26Z</time>
      </trkpt>
      <trkpt lat="44.6298" lon="7.07177">
        <ele>2148</ele>
        <time>2022-07-13T08:38:33Z</time>
      </trkpt>
      <trkpt lat="44.62984" lon="7.07177">
        <ele>2152</ele>
        <time>2022-07-13T08:38:39Z</time>
      </trkpt>
      <trkpt lat="44.62988" lon="7.07177">
        <ele>2152</ele>
        <time>2022-07-13T08:38:47Z</time>
      </trkpt>
      <trkpt lat="44.62992" lon="7.07176">
        <ele>2155</ele>
        <time>2022-07-13T08:38:56Z</time>
      </trkpt>
      <trkpt lat="44.62995" lon="7.07173">
        <ele>2156</ele>
        <time>2022-07-13T08:39:04Z</time>
      </trkpt>
      <trkpt lat="44.62997" lon="7.07169">
        <ele>2158</ele>
        <time>2022-07-13T08:39:12Z</time>
      </trkpt>
      <trkpt lat="44.63003" lon="7.07163">
        <ele>2159</ele>
        <time>2022-07-13T08:39:26Z</time>
      </trkpt>
      <trkpt lat="44.63005" lon="7.07168">
        <ele>2159</ele>
        <time>2022-07-13T08:39:35Z</time>
      </trkpt>
      <trkpt lat="44.63006" lon="7.07173">
        <ele>2161</ele>
        <time>2022-07-13T08:39:41Z</time>
      </trkpt>
      <trkpt lat="44.63004" lon="7.07178">
        <ele>2163</ele>
        <time>2022-07-13T08:39:46Z</time>
      </trkpt>
      <trkpt lat="44.63004" lon="7.07184">
        <ele>2164</ele>
        <time>2022-07-13T08:39:51Z</time>
      </trkpt>
      <trkpt lat="44.63008" lon="7.07185">
        <ele>2163</ele>
        <time>2022-07-13T08:39:56Z</time>
      </trkpt>
      <trkpt lat="44.6301" lon="7.07181">
        <ele>2163</ele>
        <time>2022-07-13T08:40:01Z</time>
      </trkpt>
      <trkpt lat="44.63013" lon="7.07179">
        <ele>2164</ele>
        <time>2022-07-13T08:40:07Z</time>
      </trkpt>
      <trkpt lat="44.63013" lon="7.07184">
        <ele>2166</ele>
        <time>2022-07-13T08:40:13Z</time>
      </trkpt>
      <trkpt lat="44.63017" lon="7.07183">
        <ele>2167</ele>
        <time>2022-07-13T08:40:23Z</time>
      </trkpt>
      <trkpt lat="44.6302" lon="7.0718">
        <ele>2166</ele>
        <time>2022-07-13T08:40:29Z</time>
      </trkpt>
      <trkpt lat="44.63023" lon="7.07181">
        <ele>2166</ele>
        <time>2022-07-13T08:40:36Z</time>
      </trkpt>
      <trkpt lat="44.63022" lon="7.07186">
        <ele>2166</ele>
        <time>2022-07-13T08:40:42Z</time>
      </trkpt>
      <trkpt lat="44.63025" lon="7.07189">
        <ele>2169</ele>
        <time>2022-07-13T08:40:49Z</time>
      </trkpt>
      <trkpt lat="44.63029" lon="7.07187">
        <ele>2169</ele>
        <time>2022-07-13T08:40:55Z</time>
      </trkpt>
      <trkpt lat="44.63033" lon="7.07186">
        <ele>2169</ele>
        <time>2022-07-13T08:41:01Z</time>
      </trkpt>
      <trkpt lat="44.63033" lon="7.07191">
        <ele>2169</ele>
        <time>2022-07-13T08:41:06Z</time>
      </trkpt>
      <trkpt lat="44.63029" lon="7.07193">
        <ele>2170</ele>
        <time>2022-07-13T08:41:10Z</time>
      </trkpt>
      <trkpt lat="44.63027" lon="7.07198">
        <ele>2171</ele>
        <time>2022-07-13T08:41:17Z</time>
      </trkpt>
      <trkpt lat="44.63031" lon="7.072">
        <ele>2171</ele>
        <time>2022-07-13T08:41:25Z</time>
      </trkpt>
      <trkpt lat="44.63034" lon="7.07199">
        <ele>2171</ele>
        <time>2022-07-13T08:41:31Z</time>
      </trkpt>
      <trkpt lat="44.63038" lon="7.07197">
        <ele>2174</ele>
        <time>2022-07-13T08:41:38Z</time>
      </trkpt>
      <trkpt lat="44.63041" lon="7.07195">
        <ele>2175</ele>
        <time>2022-07-13T08:41:46Z</time>
      </trkpt>
      <trkpt lat="44.63043" lon="7.072">
        <ele>2177</ele>
        <time>2022-07-13T08:41:55Z</time>
      </trkpt>
      <trkpt lat="44.63042" lon="7.07205">
        <ele>2179</ele>
        <time>2022-07-13T08:42:01Z</time>
      </trkpt>
      <trkpt lat="44.63043" lon="7.0721">
        <ele>2182</ele>
        <time>2022-07-13T08:42:10Z</time>
      </trkpt>
      <trkpt lat="44.63043" lon="7.07215">
        <ele>2183</ele>
        <time>2022-07-13T08:42:19Z</time>
      </trkpt>
      <trkpt lat="44.63043" lon="7.07225">
        <ele>2189</ele>
        <time>2022-07-13T08:42:34Z</time>
      </trkpt>
      <trkpt lat="44.63045" lon="7.07229">
        <ele>2191</ele>
        <time>2022-07-13T08:42:41Z</time>
      </trkpt>
      <trkpt lat="44.63053" lon="7.07227">
        <ele>2189</ele>
        <time>2022-07-13T08:42:56Z</time>
      </trkpt>
      <trkpt lat="44.63056" lon="7.07228">
        <ele>2188</ele>
        <time>2022-07-13T08:43:03Z</time>
      </trkpt>
      <trkpt lat="44.6306" lon="7.07232">
        <ele>2188</ele>
        <time>2022-07-13T08:43:11Z</time>
      </trkpt>
      <trkpt lat="44.63058" lon="7.07236">
        <ele>2188</ele>
        <time>2022-07-13T08:43:16Z</time>
      </trkpt>
      <trkpt lat="44.63056" lon="7.0724">
        <ele>2188</ele>
        <time>2022-07-13T08:43:21Z</time>
      </trkpt>
      <trkpt lat="44.63054" lon="7.07244">
        <ele>2189</ele>
        <time>2022-07-13T08:43:26Z</time>
      </trkpt>
      <trkpt lat="44.6305" lon="7.07247">
        <ele>2189</ele>
        <time>2022-07-13T08:43:32Z</time>
      </trkpt>
      <trkpt lat="44.63048" lon="7.07251">
        <ele>2188</ele>
        <time>2022-07-13T08:43:39Z</time>
      </trkpt>
      <trkpt lat="44.63052" lon="7.07253">
        <ele>2189</ele>
        <time>2022-07-13T08:43:44Z</time>
      </trkpt>
      <trkpt lat="44.63059" lon="7.07257">
        <ele>2189</ele>
        <time>2022-07-13T08:43:54Z</time>
      </trkpt>
      <trkpt lat="44.63061" lon="7.07261">
        <ele>2190</ele>
        <time>2022-07-13T08:44:01Z</time>
      </trkpt>
      <trkpt lat="44.6306" lon="7.07266">
        <ele>2192</ele>
        <time>2022-07-13T08:44:07Z</time>
      </trkpt>
      <trkpt lat="44.63061" lon="7.07271">
        <ele>2194</ele>
        <time>2022-07-13T08:44:18Z</time>
      </trkpt>
      <trkpt lat="44.63068" lon="7.0727">
        <ele>2199</ele>
        <time>2022-07-13T08:44:32Z</time>
      </trkpt>
      <trkpt lat="44.63068" lon="7.07276">
        <ele>2199</ele>
        <time>2022-07-13T08:44:38Z</time>
      </trkpt>
      <trkpt lat="44.63066" lon="7.07279">
        <ele>2200</ele>
        <time>2022-07-13T08:44:43Z</time>
      </trkpt>
      <trkpt lat="44.63063" lon="7.07283">
        <ele>2202</ele>
        <time>2022-07-13T08:44:50Z</time>
      </trkpt>
      <trkpt lat="44.63067" lon="7.07284">
        <ele>2203</ele>
        <time>2022-07-13T08:44:57Z</time>
      </trkpt>
      <trkpt lat="44.6307" lon="7.07284">
        <ele>2203</ele>
        <time>2022-07-13T08:45:02Z</time>
      </trkpt>
      <trkpt lat="44.63069" lon="7.07289">
        <ele>2204</ele>
        <time>2022-07-13T08:45:13Z</time>
      </trkpt>
      <trkpt lat="44.63066" lon="7.07292">
        <ele>2203</ele>
        <time>2022-07-13T08:45:20Z</time>
      </trkpt>
      <trkpt lat="44.63064" lon="7.07296">
        <ele>2204</ele>
        <time>2022-07-13T08:45:30Z</time>
      </trkpt>
      <trkpt lat="44.63068" lon="7.07298">
        <ele>2206</ele>
        <time>2022-07-13T08:45:38Z</time>
      </trkpt>
      <trkpt lat="44.63071" lon="7.07302">
        <ele>2209</ele>
        <time>2022-07-13T08:45:44Z</time>
      </trkpt>
      <trkpt lat="44.63074" lon="7.07305">
        <ele>2210</ele>
        <time>2022-07-13T08:45:50Z</time>
      </trkpt>
      <trkpt lat="44.63072" lon="7.07308">
        <ele>2211</ele>
        <time>2022-07-13T08:45:57Z</time>
      </trkpt>
      <trkpt lat="44.63066" lon="7.07314">
        <ele>2215</ele>
        <time>2022-07-13T08:46:11Z</time>
      </trkpt>
      <trkpt lat="44.63064" lon="7.07318">
        <ele>2215</ele>
        <time>2022-07-13T08:46:16Z</time>
      </trkpt>
      <trkpt lat="44.6306" lon="7.07318">
        <ele>2214</ele>
        <time>2022-07-13T08:46:22Z</time>
      </trkpt>
      <trkpt lat="44.63062" lon="7.07333">
        <ele>2216</ele>
        <time>2022-07-13T08:46:45Z</time>
      </trkpt>
      <trkpt lat="44.63062" lon="7.07338">
        <ele>2216</ele>
        <time>2022-07-13T08:46:51Z</time>
      </trkpt>
      <trkpt lat="44.63061" lon="7.07343">
        <ele>2217</ele>
        <time>2022-07-13T08:46:57Z</time>
      </trkpt>
      <trkpt lat="44.63061" lon="7.07348">
        <ele>2219</ele>
        <time>2022-07-13T08:47:05Z</time>
      </trkpt>
      <trkpt lat="44.63061" lon="7.07359">
        <ele>2218</ele>
        <time>2022-07-13T08:47:16Z</time>
      </trkpt>
      <trkpt lat="44.63064" lon="7.07362">
        <ele>2219</ele>
        <time>2022-07-13T08:47:23Z</time>
      </trkpt>
      <trkpt lat="44.63066" lon="7.07367">
        <ele>2220</ele>
        <time>2022-07-13T08:47:29Z</time>
      </trkpt>
      <trkpt lat="44.63067" lon="7.07371">
        <ele>2221</ele>
        <time>2022-07-13T08:47:35Z</time>
      </trkpt>
      <trkpt lat="44.6307" lon="7.07375">
        <ele>2223</ele>
        <time>2022-07-13T08:47:41Z</time>
      </trkpt>
      <trkpt lat="44.63074" lon="7.07383">
        <ele>2225</ele>
        <time>2022-07-13T08:47:51Z</time>
      </trkpt>
      <trkpt lat="44.63075" lon="7.07388">
        <ele>2226</ele>
        <time>2022-07-13T08:47:58Z</time>
      </trkpt>
      <trkpt lat="44.63076" lon="7.07393">
        <ele>2225</ele>
        <time>2022-07-13T08:48:04Z</time>
      </trkpt>
      <trkpt lat="44.6308" lon="7.07396">
        <ele>2226</ele>
        <time>2022-07-13T08:48:10Z</time>
      </trkpt>
      <trkpt lat="44.63083" lon="7.07398">
        <ele>2229</ele>
        <time>2022-07-13T08:48:16Z</time>
      </trkpt>
      <trkpt lat="44.63087" lon="7.07401">
        <ele>2229</ele>
        <time>2022-07-13T08:48:22Z</time>
      </trkpt>
      <trkpt lat="44.63098" lon="7.07404">
        <ele>2230</ele>
        <time>2022-07-13T08:48:42Z</time>
      </trkpt>
      <trkpt lat="44.63102" lon="7.07406">
        <ele>2230</ele>
        <time>2022-07-13T08:48:49Z</time>
      </trkpt>
      <trkpt lat="44.63109" lon="7.07409">
        <ele>2230</ele>
        <time>2022-07-13T08:49:01Z</time>
      </trkpt>
      <trkpt lat="44.63111" lon="7.07412">
        <ele>2230</ele>
        <time>2022-07-13T08:49:07Z</time>
      </trkpt>
      <trkpt lat="44.63114" lon="7.07416">
        <ele>2231</ele>
        <time>2022-07-13T08:49:14Z</time>
      </trkpt>
      <trkpt lat="44.63109" lon="7.07424">
        <ele>2235</ele>
        <time>2022-07-13T08:49:27Z</time>
      </trkpt>
      <trkpt lat="44.63108" lon="7.07429">
        <ele>2234</ele>
        <time>2022-07-13T08:49:34Z</time>
      </trkpt>
      <trkpt lat="44.6311" lon="7.07433">
        <ele>2235</ele>
        <time>2022-07-13T08:49:40Z</time>
      </trkpt>
      <trkpt lat="44.63113" lon="7.07434">
        <ele>2238</ele>
        <time>2022-07-13T08:49:47Z</time>
      </trkpt>
      <trkpt lat="44.63117" lon="7.07435">
        <ele>2239</ele>
        <time>2022-07-13T08:49:54Z</time>
      </trkpt>
      <trkpt lat="44.63118" lon="7.0744">
        <ele>2239</ele>
        <time>2022-07-13T08:50:00Z</time>
      </trkpt>
      <trkpt lat="44.63115" lon="7.07444">
        <ele>2239</ele>
        <time>2022-07-13T08:50:04Z</time>
      </trkpt>
      <trkpt lat="44.63112" lon="7.07452">
        <ele>2241</ele>
        <time>2022-07-13T08:50:17Z</time>
      </trkpt>
      <trkpt lat="44.63113" lon="7.07457">
        <ele>2242</ele>
        <time>2022-07-13T08:50:23Z</time>
      </trkpt>
      <trkpt lat="44.63115" lon="7.07461">
        <ele>2243</ele>
        <time>2022-07-13T08:50:29Z</time>
      </trkpt>
      <trkpt lat="44.63123" lon="7.0746">
        <ele>2246</ele>
        <time>2022-07-13T08:50:43Z</time>
      </trkpt>
      <trkpt lat="44.63125" lon="7.07462">
        <ele>2248</ele>
        <time>2022-07-13T08:50:58Z</time>
      </trkpt>
      <trkpt lat="44.63123" lon="7.07466">
        <ele>2248</ele>
        <time>2022-07-13T08:51:04Z</time>
      </trkpt>
      <trkpt lat="44.63116" lon="7.07471">
        <ele>2248</ele>
        <time>2022-07-13T08:51:14Z</time>
      </trkpt>
      <trkpt lat="44.63114" lon="7.07476">
        <ele>2249</ele>
        <time>2022-07-13T08:51:19Z</time>
      </trkpt>
      <trkpt lat="44.63112" lon="7.0748">
        <ele>2249</ele>
        <time>2022-07-13T08:51:25Z</time>
      </trkpt>
      <trkpt lat="44.63114" lon="7.07484">
        <ele>2251</ele>
        <time>2022-07-13T08:51:32Z</time>
      </trkpt>
      <trkpt lat="44.63122" lon="7.07485">
        <ele>2256</ele>
        <time>2022-07-13T08:51:48Z</time>
      </trkpt>
      <trkpt lat="44.63122" lon="7.0749">
        <ele>2255</ele>
        <time>2022-07-13T08:51:59Z</time>
      </trkpt>
      <trkpt lat="44.63119" lon="7.07495">
        <ele>2255</ele>
        <time>2022-07-13T08:52:05Z</time>
      </trkpt>
      <trkpt lat="44.63114" lon="7.07503">
        <ele>2258</ele>
        <time>2022-07-13T08:52:18Z</time>
      </trkpt>
      <trkpt lat="44.63113" lon="7.07507">
        <ele>2259</ele>
        <time>2022-07-13T08:52:24Z</time>
      </trkpt>
      <trkpt lat="44.63116" lon="7.0751">
        <ele>2260</ele>
        <time>2022-07-13T08:52:31Z</time>
      </trkpt>
      <trkpt lat="44.6312" lon="7.07509">
        <ele>2262</ele>
        <time>2022-07-13T08:52:36Z</time>
      </trkpt>
      <trkpt lat="44.6312" lon="7.07515">
        <ele>2263</ele>
        <time>2022-07-13T08:52:48Z</time>
      </trkpt>
      <trkpt lat="44.63117" lon="7.07518">
        <ele>2264</ele>
        <time>2022-07-13T08:52:53Z</time>
      </trkpt>
      <trkpt lat="44.6312" lon="7.0752">
        <ele>2264</ele>
        <time>2022-07-13T08:53:05Z</time>
      </trkpt>
      <trkpt lat="44.63124" lon="7.07519">
        <ele>2266</ele>
        <time>2022-07-13T08:53:11Z</time>
      </trkpt>
      <trkpt lat="44.63127" lon="7.0752">
        <ele>2268</ele>
        <time>2022-07-13T08:53:17Z</time>
      </trkpt>
      <trkpt lat="44.63126" lon="7.07525">
        <ele>2268</ele>
        <time>2022-07-13T08:53:24Z</time>
      </trkpt>
      <trkpt lat="44.63123" lon="7.07535">
        <ele>2270</ele>
        <time>2022-07-13T08:53:38Z</time>
      </trkpt>
      <trkpt lat="44.63123" lon="7.0754">
        <ele>2272</ele>
        <time>2022-07-13T08:53:44Z</time>
      </trkpt>
      <trkpt lat="44.63122" lon="7.07544">
        <ele>2273</ele>
        <time>2022-07-13T08:53:51Z</time>
      </trkpt>
      <trkpt lat="44.63125" lon="7.07547">
        <ele>2276</ele>
        <time>2022-07-13T08:54:00Z</time>
      </trkpt>
      <trkpt lat="44.63128" lon="7.07547">
        <ele>2276</ele>
        <time>2022-07-13T08:54:08Z</time>
      </trkpt>
      <trkpt lat="44.63132" lon="7.07548">
        <ele>2277</ele>
        <time>2022-07-13T08:54:14Z</time>
      </trkpt>
      <trkpt lat="44.63135" lon="7.07545">
        <ele>2278</ele>
        <time>2022-07-13T08:54:22Z</time>
      </trkpt>
      <trkpt lat="44.63138" lon="7.07548">
        <ele>2278</ele>
        <time>2022-07-13T08:54:27Z</time>
      </trkpt>
      <trkpt lat="44.63136" lon="7.07553">
        <ele>2278</ele>
        <time>2022-07-13T08:54:33Z</time>
      </trkpt>
      <trkpt lat="44.63136" lon="7.07558">
        <ele>2278</ele>
        <time>2022-07-13T08:54:38Z</time>
      </trkpt>
      <trkpt lat="44.63136" lon="7.07563">
        <ele>2278</ele>
        <time>2022-07-13T08:54:45Z</time>
      </trkpt>
      <trkpt lat="44.63134" lon="7.07568">
        <ele>2278</ele>
        <time>2022-07-13T08:54:51Z</time>
      </trkpt>
      <trkpt lat="44.63137" lon="7.07571">
        <ele>2280</ele>
        <time>2022-07-13T08:54:59Z</time>
      </trkpt>
      <trkpt lat="44.63139" lon="7.07575">
        <ele>2283</ele>
        <time>2022-07-13T08:55:05Z</time>
      </trkpt>
      <trkpt lat="44.63146" lon="7.0758">
        <ele>2285</ele>
        <time>2022-07-13T08:55:19Z</time>
      </trkpt>
      <trkpt lat="44.63146" lon="7.07585">
        <ele>2285</ele>
        <time>2022-07-13T08:55:25Z</time>
      </trkpt>
      <trkpt lat="44.63149" lon="7.07595">
        <ele>2288</ele>
        <time>2022-07-13T08:55:36Z</time>
      </trkpt>
      <trkpt lat="44.6315" lon="7.076">
        <ele>2291</ele>
        <time>2022-07-13T08:55:41Z</time>
      </trkpt>
      <trkpt lat="44.63151" lon="7.07605">
        <ele>2292</ele>
        <time>2022-07-13T08:55:48Z</time>
      </trkpt>
      <trkpt lat="44.63154" lon="7.0761">
        <ele>2292</ele>
        <time>2022-07-13T08:55:54Z</time>
      </trkpt>
      <trkpt lat="44.63156" lon="7.07614">
        <ele>2293</ele>
        <time>2022-07-13T08:56:02Z</time>
      </trkpt>
      <trkpt lat="44.63152" lon="7.07623">
        <ele>2293</ele>
        <time>2022-07-13T08:56:14Z</time>
      </trkpt>
      <trkpt lat="44.6315" lon="7.07627">
        <ele>2291</ele>
        <time>2022-07-13T08:56:21Z</time>
      </trkpt>
      <trkpt lat="44.63149" lon="7.07632">
        <ele>2291</ele>
        <time>2022-07-13T08:56:28Z</time>
      </trkpt>
      <trkpt lat="44.63149" lon="7.07638">
        <ele>2289</ele>
        <time>2022-07-13T08:56:35Z</time>
      </trkpt>
      <trkpt lat="44.63149" lon="7.07648">
        <ele>2290</ele>
        <time>2022-07-13T08:56:46Z</time>
      </trkpt>
      <trkpt lat="44.63148" lon="7.07654">
        <ele>2291</ele>
        <time>2022-07-13T08:56:52Z</time>
      </trkpt>
      <trkpt lat="44.63146" lon="7.07657">
        <ele>2290</ele>
        <time>2022-07-13T08:56:58Z</time>
      </trkpt>
      <trkpt lat="44.63142" lon="7.07666">
        <ele>2291</ele>
        <time>2022-07-13T08:57:08Z</time>
      </trkpt>
      <trkpt lat="44.63141" lon="7.07672">
        <ele>2291</ele>
        <time>2022-07-13T08:57:13Z</time>
      </trkpt>
      <trkpt lat="44.63142" lon="7.07676">
        <ele>2292</ele>
        <time>2022-07-13T08:57:18Z</time>
      </trkpt>
      <trkpt lat="44.63145" lon="7.07685">
        <ele>2296</ele>
        <time>2022-07-13T08:57:28Z</time>
      </trkpt>
      <trkpt lat="44.63145" lon="7.07696">
        <ele>2298</ele>
        <time>2022-07-13T08:57:38Z</time>
      </trkpt>
      <trkpt lat="44.63145" lon="7.07702">
        <ele>2300</ele>
        <time>2022-07-13T08:57:44Z</time>
      </trkpt>
      <trkpt lat="44.63146" lon="7.07707">
        <ele>2300</ele>
        <time>2022-07-13T08:57:49Z</time>
      </trkpt>
      <trkpt lat="44.63147" lon="7.07712">
        <ele>2302</ele>
        <time>2022-07-13T08:57:54Z</time>
      </trkpt>
      <trkpt lat="44.63148" lon="7.07718">
        <ele>2302</ele>
        <time>2022-07-13T08:57:59Z</time>
      </trkpt>
      <trkpt lat="44.63148" lon="7.07723">
        <ele>2303</ele>
        <time>2022-07-13T08:58:03Z</time>
      </trkpt>
      <trkpt lat="44.63148" lon="7.07734">
        <ele>2305</ele>
        <time>2022-07-13T08:58:13Z</time>
      </trkpt>
      <trkpt lat="44.63154" lon="7.07759">
        <ele>2306</ele>
        <time>2022-07-13T08:58:35Z</time>
      </trkpt>
      <trkpt lat="44.63156" lon="7.07763">
        <ele>2306</ele>
        <time>2022-07-13T08:58:39Z</time>
      </trkpt>
      <trkpt lat="44.63157" lon="7.07768">
        <ele>2306</ele>
        <time>2022-07-13T08:58:44Z</time>
      </trkpt>
      <trkpt lat="44.6316" lon="7.07777">
        <ele>2307</ele>
        <time>2022-07-13T08:58:53Z</time>
      </trkpt>
      <trkpt lat="44.63161" lon="7.07782">
        <ele>2308</ele>
        <time>2022-07-13T08:58:58Z</time>
      </trkpt>
      <trkpt lat="44.63162" lon="7.07798">
        <ele>2309</ele>
        <time>2022-07-13T08:59:13Z</time>
      </trkpt>
      <trkpt lat="44.63162" lon="7.07804">
        <ele>2309</ele>
        <time>2022-07-13T08:59:18Z</time>
      </trkpt>
      <trkpt lat="44.63163" lon="7.0781">
        <ele>2309</ele>
        <time>2022-07-13T08:59:24Z</time>
      </trkpt>
      <trkpt lat="44.63167" lon="7.07825">
        <ele>2309</ele>
        <time>2022-07-13T08:59:38Z</time>
      </trkpt>
      <trkpt lat="44.63173" lon="7.07851">
        <ele>2311</ele>
        <time>2022-07-13T08:59:58Z</time>
      </trkpt>
      <trkpt lat="44.63174" lon="7.07856">
        <ele>2311</ele>
        <time>2022-07-13T09:00:03Z</time>
      </trkpt>
      <trkpt lat="44.63178" lon="7.07865">
        <ele>2311</ele>
        <time>2022-07-13T09:00:12Z</time>
      </trkpt>
      <trkpt lat="44.63181" lon="7.07876">
        <ele>2311</ele>
        <time>2022-07-13T09:00:22Z</time>
      </trkpt>
      <trkpt lat="44.63184" lon="7.07879">
        <ele>2312</ele>
        <time>2022-07-13T09:00:28Z</time>
      </trkpt>
      <trkpt lat="44.63187" lon="7.07884">
        <ele>2311</ele>
        <time>2022-07-13T09:00:36Z</time>
      </trkpt>
      <trkpt lat="44.63192" lon="7.07904">
        <ele>2311</ele>
        <time>2022-07-13T09:00:53Z</time>
      </trkpt>
      <trkpt lat="44.63196" lon="7.07927">
        <ele>2312</ele>
        <time>2022-07-13T09:01:13Z</time>
      </trkpt>
      <trkpt lat="44.63198" lon="7.07932">
        <ele>2312</ele>
        <time>2022-07-13T09:01:19Z</time>
      </trkpt>
      <trkpt lat="44.63214" lon="7.07955">
        <ele>2317</ele>
        <time>2022-07-13T09:01:53Z</time>
      </trkpt>
      <trkpt lat="44.6322" lon="7.07959">
        <ele>2320</ele>
        <time>2022-07-13T09:02:05Z</time>
      </trkpt>
      <trkpt lat="44.63224" lon="7.07959">
        <ele>2322</ele>
        <time>2022-07-13T09:02:12Z</time>
      </trkpt>
      <trkpt lat="44.63228" lon="7.07959">
        <ele>2322</ele>
        <time>2022-07-13T09:02:18Z</time>
      </trkpt>
      <trkpt lat="44.63232" lon="7.07961">
        <ele>2322</ele>
        <time>2022-07-13T09:02:24Z</time>
      </trkpt>
      <trkpt lat="44.63235" lon="7.07965">
        <ele>2324</ele>
        <time>2022-07-13T09:02:30Z</time>
      </trkpt>
      <trkpt lat="44.63238" lon="7.07968">
        <ele>2326</ele>
        <time>2022-07-13T09:02:39Z</time>
      </trkpt>
      <trkpt lat="44.63241" lon="7.07972">
        <ele>2326</ele>
        <time>2022-07-13T09:02:44Z</time>
      </trkpt>
      <trkpt lat="44.63244" lon="7.07974">
        <ele>2326</ele>
        <time>2022-07-13T09:02:49Z</time>
      </trkpt>
      <trkpt lat="44.63254" lon="7.07989">
        <ele>2333</ele>
        <time>2022-07-13T09:03:14Z</time>
      </trkpt>
      <trkpt lat="44.63256" lon="7.07992">
        <ele>2333</ele>
        <time>2022-07-13T09:03:20Z</time>
      </trkpt>
      <trkpt lat="44.6326" lon="7.07995">
        <ele>2335</ele>
        <time>2022-07-13T09:03:27Z</time>
      </trkpt>
      <trkpt lat="44.63263" lon="7.07997">
        <ele>2336</ele>
        <time>2022-07-13T09:03:35Z</time>
      </trkpt>
      <trkpt lat="44.63266" lon="7.08001">
        <ele>2338</ele>
        <time>2022-07-13T09:03:41Z</time>
      </trkpt>
      <trkpt lat="44.63269" lon="7.08004">
        <ele>2339</ele>
        <time>2022-07-13T09:03:47Z</time>
      </trkpt>
      <trkpt lat="44.63272" lon="7.08008">
        <ele>2340</ele>
        <time>2022-07-13T09:03:55Z</time>
      </trkpt>
      <trkpt lat="44.63274" lon="7.08018">
        <ele>2342</ele>
        <time>2022-07-13T09:04:06Z</time>
      </trkpt>
      <trkpt lat="44.6328" lon="7.08031">
        <ele>2344</ele>
        <time>2022-07-13T09:04:26Z</time>
      </trkpt>
      <trkpt lat="44.63281" lon="7.08037">
        <ele>2344</ele>
        <time>2022-07-13T09:04:33Z</time>
      </trkpt>
      <trkpt lat="44.63284" lon="7.0804">
        <ele>2346</ele>
        <time>2022-07-13T09:04:40Z</time>
      </trkpt>
      <trkpt lat="44.63287" lon="7.08044">
        <ele>2346</ele>
        <time>2022-07-13T09:04:49Z</time>
      </trkpt>
      <trkpt lat="44.6329" lon="7.08046">
        <ele>2348</ele>
        <time>2022-07-13T09:05:00Z</time>
      </trkpt>
      <trkpt lat="44.63301" lon="7.0806">
        <ele>2353</ele>
        <time>2022-07-13T09:05:27Z</time>
      </trkpt>
      <trkpt lat="44.63311" lon="7.0807">
        <ele>2356</ele>
        <time>2022-07-13T09:05:48Z</time>
      </trkpt>
      <trkpt lat="44.63314" lon="7.08071">
        <ele>2356</ele>
        <time>2022-07-13T09:05:53Z</time>
      </trkpt>
      <trkpt lat="44.63319" lon="7.0808">
        <ele>2358</ele>
        <time>2022-07-13T09:06:04Z</time>
      </trkpt>
      <trkpt lat="44.63322" lon="7.08083">
        <ele>2358</ele>
        <time>2022-07-13T09:06:10Z</time>
      </trkpt>
      <trkpt lat="44.63324" lon="7.08088">
        <ele>2358</ele>
        <time>2022-07-13T09:06:17Z</time>
      </trkpt>
      <trkpt lat="44.63327" lon="7.0809">
        <ele>2359</ele>
        <time>2022-07-13T09:06:24Z</time>
      </trkpt>
      <trkpt lat="44.63329" lon="7.08095">
        <ele>2359</ele>
        <time>2022-07-13T09:06:31Z</time>
      </trkpt>
      <trkpt lat="44.63332" lon="7.08104">
        <ele>2360</ele>
        <time>2022-07-13T09:06:44Z</time>
      </trkpt>
      <trkpt lat="44.63334" lon="7.08109">
        <ele>2360</ele>
        <time>2022-07-13T09:06:50Z</time>
      </trkpt>
      <trkpt lat="44.63337" lon="7.08112">
        <ele>2361</ele>
        <time>2022-07-13T09:06:56Z</time>
      </trkpt>
      <trkpt lat="44.63339" lon="7.08117">
        <ele>2362</ele>
        <time>2022-07-13T09:07:02Z</time>
      </trkpt>
      <trkpt lat="44.63337" lon="7.08122">
        <ele>2362</ele>
        <time>2022-07-13T09:07:08Z</time>
      </trkpt>
      <trkpt lat="44.63337" lon="7.08127">
        <ele>2360</ele>
        <time>2022-07-13T09:07:13Z</time>
      </trkpt>
      <trkpt lat="44.6334" lon="7.08131">
        <ele>2361</ele>
        <time>2022-07-13T09:07:18Z</time>
      </trkpt>
      <trkpt lat="44.6334" lon="7.08137">
        <ele>2363</ele>
        <time>2022-07-13T09:07:24Z</time>
      </trkpt>
      <trkpt lat="44.63341" lon="7.08142">
        <ele>2362</ele>
        <time>2022-07-13T09:07:29Z</time>
      </trkpt>
      <trkpt lat="44.63342" lon="7.08153">
        <ele>2363</ele>
        <time>2022-07-13T09:07:39Z</time>
      </trkpt>
      <trkpt lat="44.63331" lon="7.08168">
        <ele>2362</ele>
        <time>2022-07-13T09:08:02Z</time>
      </trkpt>
      <trkpt lat="44.63331" lon="7.08174">
        <ele>2361</ele>
        <time>2022-07-13T09:08:07Z</time>
      </trkpt>
      <trkpt lat="44.63332" lon="7.08179">
        <ele>2361</ele>
        <time>2022-07-13T09:08:11Z</time>
      </trkpt>
      <trkpt lat="44.63343" lon="7.08183">
        <ele>2362</ele>
        <time>2022-07-13T09:08:28Z</time>
      </trkpt>
      <trkpt lat="44.63346" lon="7.08187">
        <ele>2362</ele>
        <time>2022-07-13T09:08:33Z</time>
      </trkpt>
      <trkpt lat="44.6335" lon="7.08187">
        <ele>2362</ele>
        <time>2022-07-13T09:08:38Z</time>
      </trkpt>
      <trkpt lat="44.63354" lon="7.08195">
        <ele>2363</ele>
        <time>2022-07-13T09:08:47Z</time>
      </trkpt>
      <trkpt lat="44.63356" lon="7.08199">
        <ele>2363</ele>
        <time>2022-07-13T09:08:52Z</time>
      </trkpt>
      <trkpt lat="44.63359" lon="7.08204">
        <ele>2363</ele>
        <time>2022-07-13T09:09:34Z</time>
      </trkpt>
      <trkpt lat="44.6336" lon="7.08209">
        <ele>2363</ele>
        <time>2022-07-13T09:09:38Z</time>
      </trkpt>
      <trkpt lat="44.63365" lon="7.08218">
        <ele>2362</ele>
        <time>2022-07-13T09:09:49Z</time>
      </trkpt>
      <trkpt lat="44.63366" lon="7.08223">
        <ele>2362</ele>
        <time>2022-07-13T09:09:54Z</time>
      </trkpt>
      <trkpt lat="44.63366" lon="7.08228">
        <ele>2362</ele>
        <time>2022-07-13T09:09:59Z</time>
      </trkpt>
      <trkpt lat="44.63367" lon="7.08234">
        <ele>2361</ele>
        <time>2022-07-13T09:10:04Z</time>
      </trkpt>
      <trkpt lat="44.6337" lon="7.08243">
        <ele>2361</ele>
        <time>2022-07-13T09:10:12Z</time>
      </trkpt>
      <trkpt lat="44.63373" lon="7.08247">
        <ele>2362</ele>
        <time>2022-07-13T09:10:17Z</time>
      </trkpt>
      <trkpt lat="44.63377" lon="7.08248">
        <ele>2364</ele>
        <time>2022-07-13T09:10:22Z</time>
      </trkpt>
      <trkpt lat="44.63384" lon="7.08263">
        <ele>2365</ele>
        <time>2022-07-13T09:10:38Z</time>
      </trkpt>
      <trkpt lat="44.63383" lon="7.08268">
        <ele>2365</ele>
        <time>2022-07-13T09:10:43Z</time>
      </trkpt>
      <trkpt lat="44.63385" lon="7.08278">
        <ele>2365</ele>
        <time>2022-07-13T09:10:52Z</time>
      </trkpt>
      <trkpt lat="44.63387" lon="7.08282">
        <ele>2366</ele>
        <time>2022-07-13T09:10:57Z</time>
      </trkpt>
      <trkpt lat="44.6339" lon="7.08286">
        <ele>2366</ele>
        <time>2022-07-13T09:11:04Z</time>
      </trkpt>
      <trkpt lat="44.63392" lon="7.0829">
        <ele>2366</ele>
        <time>2022-07-13T09:11:09Z</time>
      </trkpt>
      <trkpt lat="44.63394" lon="7.08295">
        <ele>2366</ele>
        <time>2022-07-13T09:11:21Z</time>
      </trkpt>
      <trkpt lat="44.63396" lon="7.08299">
        <ele>2367</ele>
        <time>2022-07-13T09:11:27Z</time>
      </trkpt>
      <trkpt lat="44.63393" lon="7.08301">
        <ele>2367</ele>
        <time>2022-07-13T09:11:31Z</time>
      </trkpt>
      <trkpt lat="44.63391" lon="7.08305">
        <ele>2367</ele>
        <time>2022-07-13T09:11:38Z</time>
      </trkpt>
      <trkpt lat="44.63393" lon="7.08309">
        <ele>2367</ele>
        <time>2022-07-13T09:11:43Z</time>
      </trkpt>
      <trkpt lat="44.63392" lon="7.08314">
        <ele>2369</ele>
        <time>2022-07-13T09:11:49Z</time>
      </trkpt>
      <trkpt lat="44.63395" lon="7.08319">
        <ele>2370</ele>
        <time>2022-07-13T09:11:54Z</time>
      </trkpt>
      <trkpt lat="44.63397" lon="7.08323">
        <ele>2371</ele>
        <time>2022-07-13T09:12:00Z</time>
      </trkpt>
      <trkpt lat="44.63401" lon="7.08326">
        <ele>2372</ele>
        <time>2022-07-13T09:12:05Z</time>
      </trkpt>
      <trkpt lat="44.63403" lon="7.0833">
        <ele>2373</ele>
        <time>2022-07-13T09:12:11Z</time>
      </trkpt>
      <trkpt lat="44.63401" lon="7.08334">
        <ele>2374</ele>
        <time>2022-07-13T09:12:18Z</time>
      </trkpt>
      <trkpt lat="44.63398" lon="7.08338">
        <ele>2374</ele>
        <time>2022-07-13T09:12:24Z</time>
      </trkpt>
      <trkpt lat="44.63398" lon="7.08343">
        <ele>2374</ele>
        <time>2022-07-13T09:12:29Z</time>
      </trkpt>
      <trkpt lat="44.63399" lon="7.08348">
        <ele>2377</ele>
        <time>2022-07-13T09:12:36Z</time>
      </trkpt>
      <trkpt lat="44.634" lon="7.08353">
        <ele>2378</ele>
        <time>2022-07-13T09:12:43Z</time>
      </trkpt>
      <trkpt lat="44.63398" lon="7.08358">
        <ele>2382</ele>
        <time>2022-07-13T09:12:51Z</time>
      </trkpt>
      <trkpt lat="44.63394" lon="7.08359">
        <ele>2382</ele>
        <time>2022-07-13T09:12:55Z</time>
      </trkpt>
      <trkpt lat="44.63396" lon="7.08364">
        <ele>2382</ele>
        <time>2022-07-13T09:13:04Z</time>
      </trkpt>
      <trkpt lat="44.63399" lon="7.08365">
        <ele>2383</ele>
        <time>2022-07-13T09:13:11Z</time>
      </trkpt>
      <trkpt lat="44.63403" lon="7.08365">
        <ele>2383</ele>
        <time>2022-07-13T09:13:17Z</time>
      </trkpt>
      <trkpt lat="44.63405" lon="7.08369">
        <ele>2385</ele>
        <time>2022-07-13T09:13:23Z</time>
      </trkpt>
      <trkpt lat="44.63409" lon="7.08371">
        <ele>2386</ele>
        <time>2022-07-13T09:13:31Z</time>
      </trkpt>
      <trkpt lat="44.63411" lon="7.08375">
        <ele>2388</ele>
        <time>2022-07-13T09:13:37Z</time>
      </trkpt>
      <trkpt lat="44.63413" lon="7.08378">
        <ele>2389</ele>
        <time>2022-07-13T09:13:50Z</time>
      </trkpt>
      <trkpt lat="44.6341" lon="7.0838">
        <ele>2390</ele>
        <time>2022-07-13T09:13:55Z</time>
      </trkpt>
      <trkpt lat="44.63411" lon="7.08386">
        <ele>2392</ele>
        <time>2022-07-13T09:14:03Z</time>
      </trkpt>
      <trkpt lat="44.63414" lon="7.08386">
        <ele>2393</ele>
        <time>2022-07-13T09:14:13Z</time>
      </trkpt>
      <trkpt lat="44.63417" lon="7.08382">
        <ele>2393</ele>
        <time>2022-07-13T09:14:21Z</time>
      </trkpt>
      <trkpt lat="44.63419" lon="7.08386">
        <ele>2394</ele>
        <time>2022-07-13T09:14:32Z</time>
      </trkpt>
      <trkpt lat="44.63419" lon="7.08391">
        <ele>2395</ele>
        <time>2022-07-13T09:14:38Z</time>
      </trkpt>
      <trkpt lat="44.63422" lon="7.08389">
        <ele>2398</ele>
        <time>2022-07-13T09:14:48Z</time>
      </trkpt>
      <trkpt lat="44.63425" lon="7.08391">
        <ele>2398</ele>
        <time>2022-07-13T09:14:57Z</time>
      </trkpt>
      <trkpt lat="44.63424" lon="7.08396">
        <ele>2398</ele>
        <time>2022-07-13T09:15:03Z</time>
      </trkpt>
      <trkpt lat="44.63425" lon="7.08401">
        <ele>2399</ele>
        <time>2022-07-13T09:15:12Z</time>
      </trkpt>
      <trkpt lat="44.63428" lon="7.08403">
        <ele>2399</ele>
        <time>2022-07-13T09:15:20Z</time>
      </trkpt>
      <trkpt lat="44.63431" lon="7.08401">
        <ele>2399</ele>
        <time>2022-07-13T09:15:26Z</time>
      </trkpt>
      <trkpt lat="44.63434" lon="7.08403">
        <ele>2401</ele>
        <time>2022-07-13T09:15:55Z</time>
      </trkpt>
      <trkpt lat="44.63438" lon="7.08402">
        <ele>2404</ele>
        <time>2022-07-13T09:16:03Z</time>
      </trkpt>
      <trkpt lat="44.63441" lon="7.08402">
        <ele>2403</ele>
        <time>2022-07-13T09:16:07Z</time>
      </trkpt>
      <trkpt lat="44.63445" lon="7.08402">
        <ele>2399</ele>
        <time>2022-07-13T09:16:14Z</time>
      </trkpt>
      <trkpt lat="44.63445" lon="7.08407">
        <ele>2398</ele>
        <time>2022-07-13T09:16:25Z</time>
      </trkpt>
      <trkpt lat="44.63445" lon="7.08412">
        <ele>2404</ele>
        <time>2022-07-13T09:16:36Z</time>
      </trkpt>
      <trkpt lat="44.63445" lon="7.08418">
        <ele>2408</ele>
        <time>2022-07-13T09:16:47Z</time>
      </trkpt>
      <trkpt lat="44.63449" lon="7.08416">
        <ele>2409</ele>
        <time>2022-07-13T09:16:57Z</time>
      </trkpt>
      <trkpt lat="44.63452" lon="7.08417">
        <ele>2410</ele>
        <time>2022-07-13T09:17:09Z</time>
      </trkpt>
      <trkpt lat="44.63455" lon="7.08418">
        <ele>2410</ele>
        <time>2022-07-13T09:17:17Z</time>
      </trkpt>
      <trkpt lat="44.63456" lon="7.08418">
        <ele>2414</ele>
        <time>2022-07-13T09:18:00Z</time>
      </trkpt>
      <trkpt lat="44.63457" lon="7.08422">
        <ele>2416</ele>
        <time>2022-07-13T09:18:08Z</time>
      </trkpt>
      <trkpt lat="44.63461" lon="7.08422">
        <ele>2417</ele>
        <time>2022-07-13T09:18:18Z</time>
      </trkpt>
      <trkpt lat="44.63464" lon="7.0842">
        <ele>2418</ele>
        <time>2022-07-13T09:18:33Z</time>
      </trkpt>
      <trkpt lat="44.63465" lon="7.08425">
        <ele>2423</ele>
        <time>2022-07-13T09:18:42Z</time>
      </trkpt>
      <trkpt lat="44.63463" lon="7.08427">
        <ele>2425</ele>
        <time>2022-07-13T09:18:49Z</time>
      </trkpt>
      <trkpt lat="44.63464" lon="7.08432">
        <ele>2430</ele>
        <time>2022-07-13T09:18:56Z</time>
      </trkpt>
      <trkpt lat="44.63465" lon="7.08437">
        <ele>2431</ele>
        <time>2022-07-13T09:19:01Z</time>
      </trkpt>
      <trkpt lat="44.63466" lon="7.08442">
        <ele>2433</ele>
        <time>2022-07-13T09:19:08Z</time>
      </trkpt>
      <trkpt lat="44.63464" lon="7.08446">
        <ele>2433</ele>
        <time>2022-07-13T09:19:14Z</time>
      </trkpt>
      <trkpt lat="44.63464" lon="7.08451">
        <ele>2434</ele>
        <time>2022-07-13T09:19:19Z</time>
      </trkpt>
      <trkpt lat="44.63466" lon="7.08455">
        <ele>2436</ele>
        <time>2022-07-13T09:19:27Z</time>
      </trkpt>
      <trkpt lat="44.63466" lon="7.08461">
        <ele>2438</ele>
        <time>2022-07-13T09:19:34Z</time>
      </trkpt>
      <trkpt lat="44.63463" lon="7.08464">
        <ele>2438</ele>
        <time>2022-07-13T09:19:39Z</time>
      </trkpt>
      <trkpt lat="44.63461" lon="7.08469">
        <ele>2440</ele>
        <time>2022-07-13T09:19:46Z</time>
      </trkpt>
      <trkpt lat="44.6346" lon="7.08473">
        <ele>2441</ele>
        <time>2022-07-13T09:19:52Z</time>
      </trkpt>
      <trkpt lat="44.63459" lon="7.08478">
        <ele>2441</ele>
        <time>2022-07-13T09:19:57Z</time>
      </trkpt>
      <trkpt lat="44.63457" lon="7.08482">
        <ele>2442</ele>
        <time>2022-07-13T09:20:04Z</time>
      </trkpt>
      <trkpt lat="44.63457" lon="7.08497">
        <ele>2446</ele>
        <time>2022-07-13T09:20:29Z</time>
      </trkpt>
      <trkpt lat="44.63458" lon="7.08508">
        <ele>2450</ele>
        <time>2022-07-13T09:20:41Z</time>
      </trkpt>
      <trkpt lat="44.63453" lon="7.08517">
        <ele>2451</ele>
        <time>2022-07-13T09:20:53Z</time>
      </trkpt>
      <trkpt lat="44.63453" lon="7.08523">
        <ele>2449</ele>
        <time>2022-07-13T09:20:58Z</time>
      </trkpt>
      <trkpt lat="44.63451" lon="7.08528">
        <ele>2448</ele>
        <time>2022-07-13T09:21:03Z</time>
      </trkpt>
      <trkpt lat="44.63452" lon="7.08533">
        <ele>2447</ele>
        <time>2022-07-13T09:21:09Z</time>
      </trkpt>
      <trkpt lat="44.63447" lon="7.08565">
        <ele>2448</ele>
        <time>2022-07-13T09:21:42Z</time>
      </trkpt>
      <trkpt lat="44.63445" lon="7.08576">
        <ele>2450</ele>
        <time>2022-07-13T09:21:54Z</time>
      </trkpt>
      <trkpt lat="44.63443" lon="7.08591">
        <ele>2451</ele>
        <time>2022-07-13T09:22:11Z</time>
      </trkpt>
      <trkpt lat="44.63442" lon="7.08602">
        <ele>2452</ele>
        <time>2022-07-13T09:22:22Z</time>
      </trkpt>
      <trkpt lat="44.63442" lon="7.08607">
        <ele>2453</ele>
        <time>2022-07-13T09:22:28Z</time>
      </trkpt>
      <trkpt lat="44.63441" lon="7.08613">
        <ele>2455</ele>
        <time>2022-07-13T09:22:34Z</time>
      </trkpt>
      <trkpt lat="44.63442" lon="7.08618">
        <ele>2456</ele>
        <time>2022-07-13T09:22:40Z</time>
      </trkpt>
      <trkpt lat="44.6344" lon="7.08633">
        <ele>2456</ele>
        <time>2022-07-13T09:22:59Z</time>
      </trkpt>
      <trkpt lat="44.63438" lon="7.08637">
        <ele>2457</ele>
        <time>2022-07-13T09:23:03Z</time>
      </trkpt>
      <trkpt lat="44.63436" lon="7.08642">
        <ele>2458</ele>
        <time>2022-07-13T09:23:08Z</time>
      </trkpt>
      <trkpt lat="44.63437" lon="7.08647">
        <ele>2458</ele>
        <time>2022-07-13T09:23:14Z</time>
      </trkpt>
      <trkpt lat="44.63435" lon="7.08658">
        <ele>2457</ele>
        <time>2022-07-13T09:23:26Z</time>
      </trkpt>
      <trkpt lat="44.63439" lon="7.08672">
        <ele>2460</ele>
        <time>2022-07-13T09:23:45Z</time>
      </trkpt>
      <trkpt lat="44.63439" lon="7.08677">
        <ele>2461</ele>
        <time>2022-07-13T09:23:52Z</time>
      </trkpt>
      <trkpt lat="44.63442" lon="7.0868">
        <ele>2462</ele>
        <time>2022-07-13T09:24:00Z</time>
      </trkpt>
      <trkpt lat="44.63443" lon="7.08675">
        <ele>2462</ele>
        <time>2022-07-13T09:24:05Z</time>
      </trkpt>
      <trkpt lat="44.63447" lon="7.08677">
        <ele>2462</ele>
        <time>2022-07-13T09:24:14Z</time>
      </trkpt>
      <trkpt lat="44.63446" lon="7.08682">
        <ele>2460</ele>
        <time>2022-07-13T09:24:20Z</time>
      </trkpt>
      <trkpt lat="44.63443" lon="7.08692">
        <ele>2464</ele>
        <time>2022-07-13T09:24:46Z</time>
      </trkpt>
      <trkpt lat="44.63442" lon="7.08697">
        <ele>2468</ele>
        <time>2022-07-13T09:24:54Z</time>
      </trkpt>
      <trkpt lat="44.63439" lon="7.087">
        <ele>2469</ele>
        <time>2022-07-13T09:24:59Z</time>
      </trkpt>
      <trkpt lat="44.63437" lon="7.08711">
        <ele>2474</ele>
        <time>2022-07-13T09:25:11Z</time>
      </trkpt>
      <trkpt lat="44.63439" lon="7.08716">
        <ele>2474</ele>
        <time>2022-07-13T09:25:17Z</time>
      </trkpt>
      <trkpt lat="44.63439" lon="7.08721">
        <ele>2474</ele>
        <time>2022-07-13T09:25:25Z</time>
      </trkpt>
      <trkpt lat="44.63438" lon="7.08726">
        <ele>2476</ele>
        <time>2022-07-13T09:25:34Z</time>
      </trkpt>
      <trkpt lat="44.63435" lon="7.0873">
        <ele>2479</ele>
        <time>2022-07-13T09:25:41Z</time>
      </trkpt>
      <trkpt lat="44.63432" lon="7.08731">
        <ele>2480</ele>
        <time>2022-07-13T09:25:46Z</time>
      </trkpt>
      <trkpt lat="44.63432" lon="7.08737">
        <ele>2481</ele>
        <time>2022-07-13T09:25:53Z</time>
      </trkpt>
      <trkpt lat="44.6342" lon="7.08751">
        <ele>2484</ele>
        <time>2022-07-13T09:26:19Z</time>
      </trkpt>
      <trkpt lat="44.63424" lon="7.08753">
        <ele>2486</ele>
        <time>2022-07-13T09:26:34Z</time>
      </trkpt>
      <trkpt lat="44.63428" lon="7.08753">
        <ele>2487</ele>
        <time>2022-07-13T09:26:40Z</time>
      </trkpt>
      <trkpt lat="44.63428" lon="7.08758">
        <ele>2488</ele>
        <time>2022-07-13T09:26:46Z</time>
      </trkpt>
      <trkpt lat="44.63424" lon="7.0876">
        <ele>2488</ele>
        <time>2022-07-13T09:26:49Z</time>
      </trkpt>
      <trkpt lat="44.63422" lon="7.08765">
        <ele>2492</ele>
        <time>2022-07-13T09:26:52Z</time>
      </trkpt>
      <trkpt lat="44.63419" lon="7.08769">
        <ele>2493</ele>
        <time>2022-07-13T09:26:58Z</time>
      </trkpt>
      <trkpt lat="44.63419" lon="7.08774">
        <ele>2495</ele>
        <time>2022-07-13T09:27:08Z</time>
      </trkpt>
      <trkpt lat="44.63422" lon="7.08778">
        <ele>2497</ele>
        <time>2022-07-13T09:27:21Z</time>
      </trkpt>
      <trkpt lat="44.63415" lon="7.08792">
        <ele>2499</ele>
        <time>2022-07-13T09:27:41Z</time>
      </trkpt>
      <trkpt lat="44.63413" lon="7.08796">
        <ele>2499</ele>
        <time>2022-07-13T09:27:49Z</time>
      </trkpt>
      <trkpt lat="44.6341" lon="7.088">
        <ele>2499</ele>
        <time>2022-07-13T09:27:55Z</time>
      </trkpt>
      <trkpt lat="44.6341" lon="7.08805">
        <ele>2498</ele>
        <time>2022-07-13T09:28:01Z</time>
      </trkpt>
      <trkpt lat="44.63408" lon="7.0881">
        <ele>2496</ele>
        <time>2022-07-13T09:28:07Z</time>
      </trkpt>
      <trkpt lat="44.63405" lon="7.08813">
        <ele>2496</ele>
        <time>2022-07-13T09:28:14Z</time>
      </trkpt>
      <trkpt lat="44.63409" lon="7.08815">
        <ele>2497</ele>
        <time>2022-07-13T09:28:28Z</time>
      </trkpt>
      <trkpt lat="44.63412" lon="7.08817">
        <ele>2497</ele>
        <time>2022-07-13T09:28:34Z</time>
      </trkpt>
      <trkpt lat="44.63415" lon="7.08819">
        <ele>2497</ele>
        <time>2022-07-13T09:28:40Z</time>
      </trkpt>
      <trkpt lat="44.63419" lon="7.08819">
        <ele>2498</ele>
        <time>2022-07-13T09:28:47Z</time>
      </trkpt>
      <trkpt lat="44.63423" lon="7.0882">
        <ele>2499</ele>
        <time>2022-07-13T09:28:55Z</time>
      </trkpt>
      <trkpt lat="44.63421" lon="7.08824">
        <ele>2499</ele>
        <time>2022-07-13T09:29:03Z</time>
      </trkpt>
      <trkpt lat="44.63418" lon="7.08828">
        <ele>2500</ele>
        <time>2022-07-13T09:29:09Z</time>
      </trkpt>
      <trkpt lat="44.63418" lon="7.08833">
        <ele>2503</ele>
        <time>2022-07-13T09:29:17Z</time>
      </trkpt>
      <trkpt lat="44.63419" lon="7.08838">
        <ele>2503</ele>
        <time>2022-07-13T09:29:26Z</time>
      </trkpt>
      <trkpt lat="44.63422" lon="7.08841">
        <ele>2504</ele>
        <time>2022-07-13T09:29:33Z</time>
      </trkpt>
      <trkpt lat="44.63424" lon="7.08844">
        <ele>2505</ele>
        <time>2022-07-13T09:29:40Z</time>
      </trkpt>
      <trkpt lat="44.63425" lon="7.08861">
        <ele>2505</ele>
        <time>2022-07-13T09:29:58Z</time>
      </trkpt>
      <trkpt lat="44.63426" lon="7.08866">
        <ele>2505</ele>
        <time>2022-07-13T09:30:04Z</time>
      </trkpt>
      <trkpt lat="44.63429" lon="7.08869">
        <ele>2504</ele>
        <time>2022-07-13T09:30:11Z</time>
      </trkpt>
      <trkpt lat="44.63432" lon="7.08871">
        <ele>2504</ele>
        <time>2022-07-13T09:30:17Z</time>
      </trkpt>
      <trkpt lat="44.63438" lon="7.08877">
        <ele>2505</ele>
        <time>2022-07-13T09:30:30Z</time>
      </trkpt>
      <trkpt lat="44.6344" lon="7.08883">
        <ele>2505</ele>
        <time>2022-07-13T09:30:37Z</time>
      </trkpt>
      <trkpt lat="44.63441" lon="7.08888">
        <ele>2504</ele>
        <time>2022-07-13T09:30:42Z</time>
      </trkpt>
      <trkpt lat="44.63444" lon="7.08893">
        <ele>2505</ele>
        <time>2022-07-13T09:30:48Z</time>
      </trkpt>
      <trkpt lat="44.63447" lon="7.08895">
        <ele>2506</ele>
        <time>2022-07-13T09:30:54Z</time>
      </trkpt>
      <trkpt lat="44.63451" lon="7.08897">
        <ele>2507</ele>
        <time>2022-07-13T09:30:59Z</time>
      </trkpt>
      <trkpt lat="44.63454" lon="7.089">
        <ele>2507</ele>
        <time>2022-07-13T09:31:04Z</time>
      </trkpt>
      <trkpt lat="44.63458" lon="7.08901">
        <ele>2508</ele>
        <time>2022-07-13T09:31:08Z</time>
      </trkpt>
      <trkpt lat="44.63463" lon="7.08908">
        <ele>2510</ele>
        <time>2022-07-13T09:31:19Z</time>
      </trkpt>
      <trkpt lat="44.63463" lon="7.08913">
        <ele>2511</ele>
        <time>2022-07-13T09:31:25Z</time>
      </trkpt>
      <trkpt lat="44.6346" lon="7.08917">
        <ele>2511</ele>
        <time>2022-07-13T09:31:30Z</time>
      </trkpt>
      <trkpt lat="44.63462" lon="7.08922">
        <ele>2513</ele>
        <time>2022-07-13T09:31:39Z</time>
      </trkpt>
      <trkpt lat="44.63461" lon="7.08932">
        <ele>2515</ele>
        <time>2022-07-13T09:31:53Z</time>
      </trkpt>
      <trkpt lat="44.63464" lon="7.08935">
        <ele>2516</ele>
        <time>2022-07-13T09:32:03Z</time>
      </trkpt>
      <trkpt lat="44.63465" lon="7.0894">
        <ele>2518</ele>
        <time>2022-07-13T09:32:10Z</time>
      </trkpt>
      <trkpt lat="44.63467" lon="7.08944">
        <ele>2518</ele>
        <time>2022-07-13T09:32:17Z</time>
      </trkpt>
      <trkpt lat="44.63471" lon="7.08945">
        <ele>2519</ele>
        <time>2022-07-13T09:32:24Z</time>
      </trkpt>
      <trkpt lat="44.63473" lon="7.08949">
        <ele>2519</ele>
        <time>2022-07-13T09:33:23Z</time>
      </trkpt>
      <trkpt lat="44.63476" lon="7.08952">
        <ele>2520</ele>
        <time>2022-07-13T09:33:29Z</time>
      </trkpt>
      <trkpt lat="44.63478" lon="7.08956">
        <ele>2521</ele>
        <time>2022-07-13T09:33:37Z</time>
      </trkpt>
      <trkpt lat="44.63479" lon="7.08962">
        <ele>2524</ele>
        <time>2022-07-13T09:33:50Z</time>
      </trkpt>
      <trkpt lat="44.63488" lon="7.08972">
        <ele>2530</ele>
        <time>2022-07-13T09:34:16Z</time>
      </trkpt>
      <trkpt lat="44.6349" lon="7.08976">
        <ele>2532</ele>
        <time>2022-07-13T09:34:23Z</time>
      </trkpt>
      <trkpt lat="44.63492" lon="7.08981">
        <ele>2533</ele>
        <time>2022-07-13T09:34:28Z</time>
      </trkpt>
      <trkpt lat="44.63494" lon="7.08986">
        <ele>2534</ele>
        <time>2022-07-13T09:34:34Z</time>
      </trkpt>
      <trkpt lat="44.63499" lon="7.09">
        <ele>2539</ele>
        <time>2022-07-13T09:34:56Z</time>
      </trkpt>
      <trkpt lat="44.63502" lon="7.09014">
        <ele>2541</ele>
        <time>2022-07-13T09:35:18Z</time>
      </trkpt>
      <trkpt lat="44.63503" lon="7.0902">
        <ele>2541</ele>
        <time>2022-07-13T09:35:26Z</time>
      </trkpt>
      <trkpt lat="44.63506" lon="7.09023">
        <ele>2542</ele>
        <time>2022-07-13T09:35:33Z</time>
      </trkpt>
      <trkpt lat="44.63508" lon="7.09019">
        <ele>2541</ele>
        <time>2022-07-13T09:35:39Z</time>
      </trkpt>
      <trkpt lat="44.63509" lon="7.09015">
        <ele>2542</ele>
        <time>2022-07-13T09:35:46Z</time>
      </trkpt>
      <trkpt lat="44.63517" lon="7.09014">
        <ele>2544</ele>
        <time>2022-07-13T09:36:00Z</time>
      </trkpt>
      <trkpt lat="44.6352" lon="7.09016">
        <ele>2545</ele>
        <time>2022-07-13T09:36:07Z</time>
      </trkpt>
      <trkpt lat="44.6352" lon="7.09022">
        <ele>2545</ele>
        <time>2022-07-13T09:36:13Z</time>
      </trkpt>
      <trkpt lat="44.63519" lon="7.09028">
        <ele>2545</ele>
        <time>2022-07-13T09:36:18Z</time>
      </trkpt>
      <trkpt lat="44.63522" lon="7.09043">
        <ele>2545</ele>
        <time>2022-07-13T09:36:35Z</time>
      </trkpt>
      <trkpt lat="44.63522" lon="7.09053">
        <ele>2547</ele>
        <time>2022-07-13T09:36:47Z</time>
      </trkpt>
      <trkpt lat="44.63524" lon="7.09058">
        <ele>2548</ele>
        <time>2022-07-13T09:36:55Z</time>
      </trkpt>
      <trkpt lat="44.63528" lon="7.0906">
        <ele>2550</ele>
        <time>2022-07-13T09:37:02Z</time>
      </trkpt>
      <trkpt lat="44.6353" lon="7.09063">
        <ele>2552</ele>
        <time>2022-07-13T09:37:09Z</time>
      </trkpt>
      <trkpt lat="44.6353" lon="7.09069">
        <ele>2552</ele>
        <time>2022-07-13T09:37:19Z</time>
      </trkpt>
      <trkpt lat="44.63535" lon="7.09076">
        <ele>2554</ele>
        <time>2022-07-13T09:37:33Z</time>
      </trkpt>
      <trkpt lat="44.63536" lon="7.09081">
        <ele>2555</ele>
        <time>2022-07-13T09:37:39Z</time>
      </trkpt>
      <trkpt lat="44.63536" lon="7.09086">
        <ele>2556</ele>
        <time>2022-07-13T09:37:46Z</time>
      </trkpt>
      <trkpt lat="44.63535" lon="7.09091">
        <ele>2557</ele>
        <time>2022-07-13T09:37:51Z</time>
      </trkpt>
      <trkpt lat="44.63534" lon="7.09101">
        <ele>2558</ele>
        <time>2022-07-13T09:38:02Z</time>
      </trkpt>
      <trkpt lat="44.63539" lon="7.09116">
        <ele>2559</ele>
        <time>2022-07-13T09:38:19Z</time>
      </trkpt>
      <trkpt lat="44.63542" lon="7.0912">
        <ele>2560</ele>
        <time>2022-07-13T09:38:25Z</time>
      </trkpt>
      <trkpt lat="44.6354" lon="7.09125">
        <ele>2561</ele>
        <time>2022-07-13T09:38:31Z</time>
      </trkpt>
      <trkpt lat="44.63541" lon="7.09135">
        <ele>2562</ele>
        <time>2022-07-13T09:38:43Z</time>
      </trkpt>
      <trkpt lat="44.63541" lon="7.09141">
        <ele>2563</ele>
        <time>2022-07-13T09:38:51Z</time>
      </trkpt>
      <trkpt lat="44.63539" lon="7.09145">
        <ele>2565</ele>
        <time>2022-07-13T09:38:57Z</time>
      </trkpt>
      <trkpt lat="44.6354" lon="7.09151">
        <ele>2565</ele>
        <time>2022-07-13T09:39:04Z</time>
      </trkpt>
      <trkpt lat="44.63541" lon="7.09156">
        <ele>2566</ele>
        <time>2022-07-13T09:39:10Z</time>
      </trkpt>
      <trkpt lat="44.6355" lon="7.09166">
        <ele>2568</ele>
        <time>2022-07-13T09:39:31Z</time>
      </trkpt>
      <trkpt lat="44.63556" lon="7.09172">
        <ele>2571</ele>
        <time>2022-07-13T09:39:44Z</time>
      </trkpt>
      <trkpt lat="44.63559" lon="7.09176">
        <ele>2572</ele>
        <time>2022-07-13T09:39:52Z</time>
      </trkpt>
      <trkpt lat="44.63559" lon="7.09181">
        <ele>2573</ele>
        <time>2022-07-13T09:39:58Z</time>
      </trkpt>
      <trkpt lat="44.63565" lon="7.09186">
        <ele>2575</ele>
        <time>2022-07-13T09:40:15Z</time>
      </trkpt>
      <trkpt lat="44.63567" lon="7.0919">
        <ele>2576</ele>
        <time>2022-07-13T09:40:22Z</time>
      </trkpt>
      <trkpt lat="44.63566" lon="7.09195">
        <ele>2577</ele>
        <time>2022-07-13T09:40:28Z</time>
      </trkpt>
      <trkpt lat="44.63563" lon="7.09198">
        <ele>2578</ele>
        <time>2022-07-13T09:40:33Z</time>
      </trkpt>
      <trkpt lat="44.63564" lon="7.09203">
        <ele>2579</ele>
        <time>2022-07-13T09:40:42Z</time>
      </trkpt>
      <trkpt lat="44.63563" lon="7.09208">
        <ele>2582</ele>
        <time>2022-07-13T09:40:53Z</time>
      </trkpt>
      <trkpt lat="44.6356" lon="7.09211">
        <ele>2583</ele>
        <time>2022-07-13T09:40:59Z</time>
      </trkpt>
      <trkpt lat="44.63559" lon="7.09216">
        <ele>2583</ele>
        <time>2022-07-13T09:41:06Z</time>
      </trkpt>
      <trkpt lat="44.63563" lon="7.09215">
        <ele>2584</ele>
        <time>2022-07-13T09:41:18Z</time>
      </trkpt>
      <trkpt lat="44.63565" lon="7.09219">
        <ele>2585</ele>
        <time>2022-07-13T09:41:26Z</time>
      </trkpt>
      <trkpt lat="44.63563" lon="7.09224">
        <ele>2588</ele>
        <time>2022-07-13T09:41:33Z</time>
      </trkpt>
      <trkpt lat="44.63563" lon="7.09229">
        <ele>2588</ele>
        <time>2022-07-13T09:41:41Z</time>
      </trkpt>
      <trkpt lat="44.63565" lon="7.09234">
        <ele>2588</ele>
        <time>2022-07-13T09:41:47Z</time>
      </trkpt>
      <trkpt lat="44.63565" lon="7.09239">
        <ele>2588</ele>
        <time>2022-07-13T09:41:54Z</time>
      </trkpt>
      <trkpt lat="44.63568" lon="7.09243">
        <ele>2589</ele>
        <time>2022-07-13T09:42:01Z</time>
      </trkpt>
      <trkpt lat="44.63569" lon="7.09247">
        <ele>2590</ele>
        <time>2022-07-13T09:42:09Z</time>
      </trkpt>
      <trkpt lat="44.63572" lon="7.09252">
        <ele>2591</ele>
        <time>2022-07-13T09:42:15Z</time>
      </trkpt>
      <trkpt lat="44.63571" lon="7.09257">
        <ele>2592</ele>
        <time>2022-07-13T09:42:21Z</time>
      </trkpt>
      <trkpt lat="44.63573" lon="7.09267">
        <ele>2590</ele>
        <time>2022-07-13T09:42:31Z</time>
      </trkpt>
      <trkpt lat="44.63572" lon="7.09277">
        <ele>2588</ele>
        <time>2022-07-13T09:42:41Z</time>
      </trkpt>
      <trkpt lat="44.6357" lon="7.09282">
        <ele>2587</ele>
        <time>2022-07-13T09:42:47Z</time>
      </trkpt>
      <trkpt lat="44.6357" lon="7.09287">
        <ele>2587</ele>
        <time>2022-07-13T09:42:52Z</time>
      </trkpt>
      <trkpt lat="44.63568" lon="7.09297">
        <ele>2586</ele>
        <time>2022-07-13T09:43:03Z</time>
      </trkpt>
      <trkpt lat="44.6357" lon="7.09302">
        <ele>2587</ele>
        <time>2022-07-13T09:43:10Z</time>
      </trkpt>
      <trkpt lat="44.6357" lon="7.09307">
        <ele>2589</ele>
        <time>2022-07-13T09:43:16Z</time>
      </trkpt>
      <trkpt lat="44.63568" lon="7.09312">
        <ele>2590</ele>
        <time>2022-07-13T09:43:22Z</time>
      </trkpt>
      <trkpt lat="44.63565" lon="7.09315">
        <ele>2590</ele>
        <time>2022-07-13T09:43:26Z</time>
      </trkpt>
      <trkpt lat="44.63564" lon="7.09319">
        <ele>2589</ele>
        <time>2022-07-13T09:43:31Z</time>
      </trkpt>
      <trkpt lat="44.63564" lon="7.09325">
        <ele>2590</ele>
        <time>2022-07-13T09:43:38Z</time>
      </trkpt>
      <trkpt lat="44.63566" lon="7.0933">
        <ele>2591</ele>
        <time>2022-07-13T09:43:44Z</time>
      </trkpt>
      <trkpt lat="44.63568" lon="7.09334">
        <ele>2593</ele>
        <time>2022-07-13T09:43:50Z</time>
      </trkpt>
      <trkpt lat="44.63569" lon="7.09339">
        <ele>2594</ele>
        <time>2022-07-13T09:43:56Z</time>
      </trkpt>
      <trkpt lat="44.63572" lon="7.09342">
        <ele>2596</ele>
        <time>2022-07-13T09:44:05Z</time>
      </trkpt>
      <trkpt lat="44.63575" lon="7.09341">
        <ele>2597</ele>
        <time>2022-07-13T09:44:14Z</time>
      </trkpt>
      <trkpt lat="44.63579" lon="7.09342">
        <ele>2599</ele>
        <time>2022-07-13T09:44:24Z</time>
      </trkpt>
      <trkpt lat="44.63583" lon="7.09342">
        <ele>2600</ele>
        <time>2022-07-13T09:44:34Z</time>
      </trkpt>
      <trkpt lat="44.63586" lon="7.0934">
        <ele>2602</ele>
        <time>2022-07-13T09:44:44Z</time>
      </trkpt>
      <trkpt lat="44.6359" lon="7.09342">
        <ele>2603</ele>
        <time>2022-07-13T09:44:50Z</time>
      </trkpt>
      <trkpt lat="44.63593" lon="7.0934">
        <ele>2605</ele>
        <time>2022-07-13T09:44:57Z</time>
      </trkpt>
      <trkpt lat="44.63594" lon="7.09345">
        <ele>2605</ele>
        <time>2022-07-13T09:45:02Z</time>
      </trkpt>
      <trkpt lat="44.63595" lon="7.09349">
        <ele>2605</ele>
        <time>2022-07-13T09:45:08Z</time>
      </trkpt>
      <trkpt lat="44.63598" lon="7.09353">
        <ele>2606</ele>
        <time>2022-07-13T09:45:15Z</time>
      </trkpt>
      <trkpt lat="44.636" lon="7.09358">
        <ele>2606</ele>
        <time>2022-07-13T09:45:23Z</time>
      </trkpt>
      <trkpt lat="44.63603" lon="7.09362">
        <ele>2607</ele>
        <time>2022-07-13T09:45:31Z</time>
      </trkpt>
      <trkpt lat="44.63603" lon="7.09361">
        <ele>2609</ele>
        <time>2022-07-13T09:45:57Z</time>
      </trkpt>
      <trkpt lat="44.63603" lon="7.09356">
        <ele>2610</ele>
        <time>2022-07-13T09:46:07Z</time>
      </trkpt>
      <trkpt lat="44.63607" lon="7.09356">
        <ele>2614</ele>
        <time>2022-07-13T09:46:16Z</time>
      </trkpt>
      <trkpt lat="44.63609" lon="7.0936">
        <ele>2614</ele>
        <time>2022-07-13T09:46:20Z</time>
      </trkpt>
      <trkpt lat="44.63614" lon="7.09373">
        <ele>2615</ele>
        <time>2022-07-13T09:46:39Z</time>
      </trkpt>
      <trkpt lat="44.63616" lon="7.09369">
        <ele>2616</ele>
        <time>2022-07-13T09:46:52Z</time>
      </trkpt>
      <trkpt lat="44.63616" lon="7.09364">
        <ele>2616</ele>
        <time>2022-07-13T09:46:58Z</time>
      </trkpt>
      <trkpt lat="44.63619" lon="7.09363">
        <ele>2621</ele>
        <time>2022-07-13T09:47:13Z</time>
      </trkpt>
      <trkpt lat="44.63621" lon="7.09368">
        <ele>2621</ele>
        <time>2022-07-13T09:47:19Z</time>
      </trkpt>
      <trkpt lat="44.63625" lon="7.09376">
        <ele>2623</ele>
        <time>2022-07-13T09:47:33Z</time>
      </trkpt>
      <trkpt lat="44.63628" lon="7.0938">
        <ele>2624</ele>
        <time>2022-07-13T09:47:40Z</time>
      </trkpt>
      <trkpt lat="44.6363" lon="7.09379">
        <ele>2629</ele>
        <time>2022-07-13T09:48:16Z</time>
      </trkpt>
      <trkpt lat="44.63634" lon="7.09379">
        <ele>2630</ele>
        <time>2022-07-13T09:48:25Z</time>
      </trkpt>
      <trkpt lat="44.63637" lon="7.09381">
        <ele>2635</ele>
        <time>2022-07-13T09:48:32Z</time>
      </trkpt>
      <trkpt lat="44.63641" lon="7.09383">
        <ele>2636</ele>
        <time>2022-07-13T09:48:40Z</time>
      </trkpt>
      <trkpt lat="44.63643" lon="7.09387">
        <ele>2638</ele>
        <time>2022-07-13T09:48:46Z</time>
      </trkpt>
      <trkpt lat="44.63644" lon="7.09392">
        <ele>2639</ele>
        <time>2022-07-13T09:48:53Z</time>
      </trkpt>
      <trkpt lat="44.63646" lon="7.09402">
        <ele>2641</ele>
        <time>2022-07-13T09:49:10Z</time>
      </trkpt>
      <trkpt lat="44.63649" lon="7.09401">
        <ele>2640</ele>
        <time>2022-07-13T09:49:29Z</time>
      </trkpt>
      <trkpt lat="44.63652" lon="7.09404">
        <ele>2641</ele>
        <time>2022-07-13T09:49:37Z</time>
      </trkpt>
      <trkpt lat="44.63654" lon="7.09407">
        <ele>2643</ele>
        <time>2022-07-13T09:49:50Z</time>
      </trkpt>
      <trkpt lat="44.63655" lon="7.09412">
        <ele>2644</ele>
        <time>2022-07-13T09:49:59Z</time>
      </trkpt>
      <trkpt lat="44.63657" lon="7.09417">
        <ele>2647</ele>
        <time>2022-07-13T09:50:10Z</time>
      </trkpt>
      <trkpt lat="44.63659" lon="7.09421">
        <ele>2648</ele>
        <time>2022-07-13T09:50:22Z</time>
      </trkpt>
      <trkpt lat="44.63661" lon="7.09425">
        <ele>2651</ele>
        <time>2022-07-13T09:50:31Z</time>
      </trkpt>
      <trkpt lat="44.63665" lon="7.09427">
        <ele>2652</ele>
        <time>2022-07-13T09:50:50Z</time>
      </trkpt>
      <trkpt lat="44.63668" lon="7.09426">
        <ele>2653</ele>
        <time>2022-07-13T09:51:00Z</time>
      </trkpt>
      <trkpt lat="44.63669" lon="7.09431">
        <ele>2653</ele>
        <time>2022-07-13T09:51:07Z</time>
      </trkpt>
      <trkpt lat="44.63671" lon="7.09436">
        <ele>2652</ele>
        <time>2022-07-13T09:51:17Z</time>
      </trkpt>
      <trkpt lat="44.63667" lon="7.09445">
        <ele>2655</ele>
        <time>2022-07-13T09:51:27Z</time>
      </trkpt>
      <trkpt lat="44.63656" lon="7.09447">
        <ele>2656</ele>
        <time>2022-07-13T09:51:42Z</time>
      </trkpt>
      <trkpt lat="44.63654" lon="7.09451">
        <ele>2657</ele>
        <time>2022-07-13T09:51:46Z</time>
      </trkpt>
      <trkpt lat="44.63657" lon="7.09453">
        <ele>2657</ele>
        <time>2022-07-13T09:52:01Z</time>
      </trkpt>
      <trkpt lat="44.63657" lon="7.09458">
        <ele>2658</ele>
        <time>2022-07-13T09:52:10Z</time>
      </trkpt>
      <trkpt lat="44.63655" lon="7.09462">
        <ele>2660</ele>
        <time>2022-07-13T09:52:17Z</time>
      </trkpt>
      <trkpt lat="44.63659" lon="7.09463">
        <ele>2660</ele>
        <time>2022-07-13T09:52:25Z</time>
      </trkpt>
      <trkpt lat="44.63662" lon="7.09462">
        <ele>2661</ele>
        <time>2022-07-13T09:52:31Z</time>
      </trkpt>
      <trkpt lat="44.63673" lon="7.09468">
        <ele>2666</ele>
        <time>2022-07-13T09:53:02Z</time>
      </trkpt>
      <trkpt lat="44.63687" lon="7.09475">
        <ele>2673</ele>
        <time>2022-07-13T09:53:30Z</time>
      </trkpt>
      <trkpt lat="44.63688" lon="7.0948">
        <ele>2673</ele>
        <time>2022-07-13T09:53:35Z</time>
      </trkpt>
      <trkpt lat="44.63691" lon="7.09483">
        <ele>2673</ele>
        <time>2022-07-13T09:53:45Z</time>
      </trkpt>
      <trkpt lat="44.63694" lon="7.0948">
        <ele>2674</ele>
        <time>2022-07-13T09:53:58Z</time>
      </trkpt>
      <trkpt lat="44.63697" lon="7.09478">
        <ele>2675</ele>
        <time>2022-07-13T09:54:11Z</time>
      </trkpt>
      <trkpt lat="44.63701" lon="7.09478">
        <ele>2676</ele>
        <time>2022-07-13T09:54:24Z</time>
      </trkpt>
      <trkpt lat="44.63704" lon="7.0948">
        <ele>2676</ele>
        <time>2022-07-13T09:54:29Z</time>
      </trkpt>
      <trkpt lat="44.63707" lon="7.09476">
        <ele>2676</ele>
        <time>2022-07-13T09:54:39Z</time>
      </trkpt>
      <trkpt lat="44.63706" lon="7.09471">
        <ele>2676</ele>
        <time>2022-07-13T09:54:48Z</time>
      </trkpt>
      <trkpt lat="44.63713" lon="7.09469">
        <ele>2677</ele>
        <time>2022-07-13T09:55:09Z</time>
      </trkpt>
      <trkpt lat="44.63715" lon="7.09473">
        <ele>2679</ele>
        <time>2022-07-13T09:55:15Z</time>
      </trkpt>
      <trkpt lat="44.63722" lon="7.09477">
        <ele>2679</ele>
        <time>2022-07-13T09:55:30Z</time>
      </trkpt>
      <trkpt lat="44.63726" lon="7.09479">
        <ele>2680</ele>
        <time>2022-07-13T09:55:37Z</time>
      </trkpt>
      <trkpt lat="44.63732" lon="7.09486">
        <ele>2683</ele>
        <time>2022-07-13T09:55:51Z</time>
      </trkpt>
      <trkpt lat="44.63735" lon="7.0949">
        <ele>2683</ele>
        <time>2022-07-13T09:55:57Z</time>
      </trkpt>
      <trkpt lat="44.63737" lon="7.09494">
        <ele>2684</ele>
        <time>2022-07-13T09:56:07Z</time>
      </trkpt>
      <trkpt lat="44.63739" lon="7.09498">
        <ele>2684</ele>
        <time>2022-07-13T09:56:13Z</time>
      </trkpt>
      <trkpt lat="44.63747" lon="7.0951">
        <ele>2685</ele>
        <time>2022-07-13T09:56:33Z</time>
      </trkpt>
      <trkpt lat="44.63749" lon="7.09514">
        <ele>2686</ele>
        <time>2022-07-13T09:56:40Z</time>
      </trkpt>
      <trkpt lat="44.63751" lon="7.09519">
        <ele>2687</ele>
        <time>2022-07-13T09:56:46Z</time>
      </trkpt>
      <trkpt lat="44.63752" lon="7.09523">
        <ele>2688</ele>
        <time>2022-07-13T09:56:55Z</time>
      </trkpt>
      <trkpt lat="44.63756" lon="7.09522">
        <ele>2690</ele>
        <time>2022-07-13T09:57:10Z</time>
      </trkpt>
      <trkpt lat="44.63759" lon="7.09525">
        <ele>2690</ele>
        <time>2022-07-13T09:57:15Z</time>
      </trkpt>
      <trkpt lat="44.63765" lon="7.0953">
        <ele>2693</ele>
        <time>2022-07-13T09:57:30Z</time>
      </trkpt>
      <trkpt lat="44.63768" lon="7.09534">
        <ele>2695</ele>
        <time>2022-07-13T09:57:35Z</time>
      </trkpt>
      <trkpt lat="44.63771" lon="7.09537">
        <ele>2695</ele>
        <time>2022-07-13T09:57:41Z</time>
      </trkpt>
      <trkpt lat="44.63774" lon="7.09541">
        <ele>2694</ele>
        <time>2022-07-13T09:57:46Z</time>
      </trkpt>
      <trkpt lat="44.63775" lon="7.09546">
        <ele>2694</ele>
        <time>2022-07-13T09:57:52Z</time>
      </trkpt>
      <trkpt lat="44.63778" lon="7.09546">
        <ele>2695</ele>
        <time>2022-07-13T09:58:01Z</time>
      </trkpt>
      <trkpt lat="44.63782" lon="7.09547">
        <ele>2696</ele>
        <time>2022-07-13T09:58:10Z</time>
      </trkpt>
      <trkpt lat="44.63785" lon="7.09549">
        <ele>2699</ele>
        <time>2022-07-13T09:58:18Z</time>
      </trkpt>
      <trkpt lat="44.63789" lon="7.09551">
        <ele>2699</ele>
        <time>2022-07-13T09:58:25Z</time>
      </trkpt>
      <trkpt lat="44.63792" lon="7.09552">
        <ele>2701</ele>
        <time>2022-07-13T09:58:34Z</time>
      </trkpt>
      <trkpt lat="44.63796" lon="7.09554">
        <ele>2701</ele>
        <time>2022-07-13T09:59:08Z</time>
      </trkpt>
      <trkpt lat="44.63798" lon="7.0955">
        <ele>2703</ele>
        <time>2022-07-13T09:59:20Z</time>
      </trkpt>
      <trkpt lat="44.63798" lon="7.09546">
        <ele>2704</ele>
        <time>2022-07-13T09:59:42Z</time>
      </trkpt>
      <trkpt lat="44.63799" lon="7.0954">
        <ele>2709</ele>
        <time>2022-07-13T09:59:58Z</time>
      </trkpt>
      <trkpt lat="44.63802" lon="7.09538">
        <ele>2709</ele>
        <time>2022-07-13T10:00:08Z</time>
      </trkpt>
      <trkpt lat="44.63801" lon="7.09533">
        <ele>2712</ele>
        <time>2022-07-13T10:00:21Z</time>
      </trkpt>
      <trkpt lat="44.63803" lon="7.09529">
        <ele>2715</ele>
        <time>2022-07-13T10:00:35Z</time>
      </trkpt>
      <trkpt lat="44.63801" lon="7.09525">
        <ele>2716</ele>
        <time>2022-07-13T10:00:53Z</time>
      </trkpt>
      <trkpt lat="44.63807" lon="7.09518">
        <ele>2724</ele>
        <time>2022-07-13T10:01:22Z</time>
      </trkpt>
      <trkpt lat="44.63811" lon="7.09516">
        <ele>2724</ele>
        <time>2022-07-13T10:01:30Z</time>
      </trkpt>
      <trkpt lat="44.63809" lon="7.09512">
        <ele>2725</ele>
        <time>2022-07-13T10:01:39Z</time>
      </trkpt>
      <trkpt lat="44.63807" lon="7.09508">
        <ele>2728</ele>
        <time>2022-07-13T10:01:47Z</time>
      </trkpt>
      <trkpt lat="44.63804" lon="7.09505">
        <ele>2728</ele>
        <time>2022-07-13T10:01:53Z</time>
      </trkpt>
      <trkpt lat="44.63801" lon="7.09505">
        <ele>2730</ele>
        <time>2022-07-13T10:02:02Z</time>
      </trkpt>
      <trkpt lat="44.63798" lon="7.09503">
        <ele>2732</ele>
        <time>2022-07-13T10:02:07Z</time>
      </trkpt>
      <trkpt lat="44.63796" lon="7.09498">
        <ele>2732</ele>
        <time>2022-07-13T10:02:12Z</time>
      </trkpt>
      <trkpt lat="44.63802" lon="7.0949">
        <ele>2733</ele>
        <time>2022-07-13T10:02:26Z</time>
      </trkpt>
      <trkpt lat="44.63804" lon="7.09486">
        <ele>2733</ele>
        <time>2022-07-13T10:02:33Z</time>
      </trkpt>
      <trkpt lat="44.63802" lon="7.09483">
        <ele>2733</ele>
        <time>2022-07-13T10:02:44Z</time>
      </trkpt>
      <trkpt lat="44.63798" lon="7.09481">
        <ele>2735</ele>
        <time>2022-07-13T10:02:53Z</time>
      </trkpt>
      <trkpt lat="44.63797" lon="7.09477">
        <ele>2736</ele>
        <time>2022-07-13T10:03:00Z</time>
      </trkpt>
      <trkpt lat="44.63797" lon="7.09471">
        <ele>2737</ele>
        <time>2022-07-13T10:03:08Z</time>
      </trkpt>
      <trkpt lat="44.63794" lon="7.09467">
        <ele>2738</ele>
        <time>2022-07-13T10:03:15Z</time>
      </trkpt>
      <trkpt lat="44.63793" lon="7.09463">
        <ele>2740</ele>
        <time>2022-07-13T10:03:22Z</time>
      </trkpt>
      <trkpt lat="44.63791" lon="7.09458">
        <ele>2740</ele>
        <time>2022-07-13T10:03:29Z</time>
      </trkpt>
      <trkpt lat="44.63788" lon="7.09454">
        <ele>2740</ele>
        <time>2022-07-13T10:03:35Z</time>
      </trkpt>
      <trkpt lat="44.63786" lon="7.0945">
        <ele>2740</ele>
        <time>2022-07-13T10:03:42Z</time>
      </trkpt>
      <trkpt lat="44.63781" lon="7.09442">
        <ele>2742</ele>
        <time>2022-07-13T10:03:56Z</time>
      </trkpt>
      <trkpt lat="44.63779" lon="7.09438">
        <ele>2743</ele>
        <time>2022-07-13T10:04:01Z</time>
      </trkpt>
      <trkpt lat="44.6378" lon="7.09433">
        <ele>2743</ele>
        <time>2022-07-13T10:04:07Z</time>
      </trkpt>
      <trkpt lat="44.63778" lon="7.09428">
        <ele>2742</ele>
        <time>2022-07-13T10:04:13Z</time>
      </trkpt>
      <trkpt lat="44.63779" lon="7.09423">
        <ele>2742</ele>
        <time>2022-07-13T10:04:18Z</time>
      </trkpt>
      <trkpt lat="44.63775" lon="7.09421">
        <ele>2741</ele>
        <time>2022-07-13T10:04:27Z</time>
      </trkpt>
      <trkpt lat="44.63774" lon="7.09409">
        <ele>2741</ele>
        <time>2022-07-13T10:04:53Z</time>
      </trkpt>
      <trkpt lat="44.63777" lon="7.09406">
        <ele>2742</ele>
        <time>2022-07-13T10:04:59Z</time>
      </trkpt>
      <trkpt lat="44.63779" lon="7.09402">
        <ele>2743</ele>
        <time>2022-07-13T10:05:04Z</time>
      </trkpt>
      <trkpt lat="44.6378" lon="7.09396">
        <ele>2743</ele>
        <time>2022-07-13T10:05:09Z</time>
      </trkpt>
      <trkpt lat="44.6378" lon="7.09391">
        <ele>2744</ele>
        <time>2022-07-13T10:05:17Z</time>
      </trkpt>
      <trkpt lat="44.63779" lon="7.09387">
        <ele>2746</ele>
        <time>2022-07-13T10:05:26Z</time>
      </trkpt>
      <trkpt lat="44.63778" lon="7.09381">
        <ele>2748</ele>
        <time>2022-07-13T10:05:34Z</time>
      </trkpt>
      <trkpt lat="44.63779" lon="7.09376">
        <ele>2750</ele>
        <time>2022-07-13T10:05:40Z</time>
      </trkpt>
      <trkpt lat="44.63779" lon="7.09371">
        <ele>2751</ele>
        <time>2022-07-13T10:05:47Z</time>
      </trkpt>
      <trkpt lat="44.63782" lon="7.09367">
        <ele>2753</ele>
        <time>2022-07-13T10:05:56Z</time>
      </trkpt>
      <trkpt lat="44.63785" lon="7.09365">
        <ele>2753</ele>
        <time>2022-07-13T10:06:07Z</time>
      </trkpt>
      <trkpt lat="44.63782" lon="7.09362">
        <ele>2754</ele>
        <time>2022-07-13T10:06:14Z</time>
      </trkpt>
      <trkpt lat="44.63784" lon="7.09358">
        <ele>2754</ele>
        <time>2022-07-13T10:06:23Z</time>
      </trkpt>
      <trkpt lat="44.63792" lon="7.09357">
        <ele>2758</ele>
        <time>2022-07-13T10:06:43Z</time>
      </trkpt>
      <trkpt lat="44.63796" lon="7.09355">
        <ele>2759</ele>
        <time>2022-07-13T10:06:50Z</time>
      </trkpt>
      <trkpt lat="44.63799" lon="7.09353">
        <ele>2760</ele>
        <time>2022-07-13T10:06:56Z</time>
      </trkpt>
      <trkpt lat="44.63801" lon="7.09349">
        <ele>2761</ele>
        <time>2022-07-13T10:07:04Z</time>
      </trkpt>
      <trkpt lat="44.63801" lon="7.09344">
        <ele>2763</ele>
        <time>2022-07-13T10:07:11Z</time>
      </trkpt>
      <trkpt lat="44.63797" lon="7.0934">
        <ele>2764</ele>
        <time>2022-07-13T10:07:22Z</time>
      </trkpt>
      <trkpt lat="44.63794" lon="7.09338">
        <ele>2765</ele>
        <time>2022-07-13T10:07:27Z</time>
      </trkpt>
      <trkpt lat="44.63792" lon="7.09334">
        <ele>2765</ele>
        <time>2022-07-13T10:07:33Z</time>
      </trkpt>
      <trkpt lat="44.63788" lon="7.09333">
        <ele>2766</ele>
        <time>2022-07-13T10:07:39Z</time>
      </trkpt>
      <trkpt lat="44.63785" lon="7.09335">
        <ele>2766</ele>
        <time>2022-07-13T10:07:47Z</time>
      </trkpt>
      <trkpt lat="44.63783" lon="7.09331">
        <ele>2766</ele>
        <time>2022-07-13T10:07:53Z</time>
      </trkpt>
      <trkpt lat="44.63785" lon="7.0933">
        <ele>2767</ele>
        <time>2022-07-13T10:16:58Z</time>
      </trkpt>
      <trkpt lat="44.63788" lon="7.09331">
        <ele>2767</ele>
        <time>2022-07-13T10:17:31Z</time>
      </trkpt>
      <trkpt lat="44.63791" lon="7.0934">
        <ele>2765</ele>
        <time>2022-07-13T10:17:42Z</time>
      </trkpt>
      <trkpt lat="44.63794" lon="7.09342">
        <ele>2764</ele>
        <time>2022-07-13T10:36:19Z</time>
      </trkpt>
      <trkpt lat="44.63799" lon="7.0935">
        <ele>2760</ele>
        <time>2022-07-13T10:36:31Z</time>
      </trkpt>
      <trkpt lat="44.63801" lon="7.09355">
        <ele>2759</ele>
        <time>2022-07-13T10:36:37Z</time>
      </trkpt>
      <trkpt lat="44.63797" lon="7.09358">
        <ele>2759</ele>
        <time>2022-07-13T10:36:43Z</time>
      </trkpt>
      <trkpt lat="44.63796" lon="7.09363">
        <ele>2758</ele>
        <time>2022-07-13T10:36:51Z</time>
      </trkpt>
      <trkpt lat="44.63795" lon="7.09368">
        <ele>2757</ele>
        <time>2022-07-13T10:37:00Z</time>
      </trkpt>
      <trkpt lat="44.63792" lon="7.0937">
        <ele>2755</ele>
        <time>2022-07-13T10:37:10Z</time>
      </trkpt>
      <trkpt lat="44.63788" lon="7.09369">
        <ele>2755</ele>
        <time>2022-07-13T10:37:14Z</time>
      </trkpt>
      <trkpt lat="44.63785" lon="7.09367">
        <ele>2754</ele>
        <time>2022-07-13T10:37:20Z</time>
      </trkpt>
      <trkpt lat="44.63782" lon="7.09368">
        <ele>2754</ele>
        <time>2022-07-13T10:37:39Z</time>
      </trkpt>
      <trkpt lat="44.6378" lon="7.09374">
        <ele>2751</ele>
        <time>2022-07-13T10:37:49Z</time>
      </trkpt>
      <trkpt lat="44.63779" lon="7.09384">
        <ele>2749</ele>
        <time>2022-07-13T10:38:00Z</time>
      </trkpt>
      <trkpt lat="44.63779" lon="7.09389">
        <ele>2747</ele>
        <time>2022-07-13T10:38:08Z</time>
      </trkpt>
      <trkpt lat="44.6378" lon="7.09394">
        <ele>2746</ele>
        <time>2022-07-13T10:38:17Z</time>
      </trkpt>
      <trkpt lat="44.63778" lon="7.09399">
        <ele>2743</ele>
        <time>2022-07-13T10:38:26Z</time>
      </trkpt>
      <trkpt lat="44.63778" lon="7.09404">
        <ele>2743</ele>
        <time>2022-07-13T10:38:32Z</time>
      </trkpt>
      <trkpt lat="44.63779" lon="7.09408">
        <ele>2742</ele>
        <time>2022-07-13T10:38:38Z</time>
      </trkpt>
      <trkpt lat="44.63781" lon="7.09413">
        <ele>2742</ele>
        <time>2022-07-13T10:38:43Z</time>
      </trkpt>
      <trkpt lat="44.63781" lon="7.09418">
        <ele>2741</ele>
        <time>2022-07-13T10:38:51Z</time>
      </trkpt>
      <trkpt lat="44.63781" lon="7.09423">
        <ele>2741</ele>
        <time>2022-07-13T10:38:59Z</time>
      </trkpt>
      <trkpt lat="44.63778" lon="7.09427">
        <ele>2740</ele>
        <time>2022-07-13T10:39:05Z</time>
      </trkpt>
      <trkpt lat="44.63779" lon="7.09432">
        <ele>2740</ele>
        <time>2022-07-13T10:39:13Z</time>
      </trkpt>
      <trkpt lat="44.63779" lon="7.09437">
        <ele>2739</ele>
        <time>2022-07-13T10:39:19Z</time>
      </trkpt>
      <trkpt lat="44.6378" lon="7.09442">
        <ele>2739</ele>
        <time>2022-07-13T10:39:25Z</time>
      </trkpt>
      <trkpt lat="44.63784" lon="7.09444">
        <ele>2737</ele>
        <time>2022-07-13T10:39:30Z</time>
      </trkpt>
      <trkpt lat="44.63786" lon="7.09449">
        <ele>2736</ele>
        <time>2022-07-13T10:39:36Z</time>
      </trkpt>
      <trkpt lat="44.63789" lon="7.09451">
        <ele>2733</ele>
        <time>2022-07-13T10:39:43Z</time>
      </trkpt>
      <trkpt lat="44.63793" lon="7.09451">
        <ele>2733</ele>
        <time>2022-07-13T10:39:55Z</time>
      </trkpt>
      <trkpt lat="44.63791" lon="7.09456">
        <ele>2733</ele>
        <time>2022-07-13T10:40:00Z</time>
      </trkpt>
      <trkpt lat="44.63792" lon="7.09462">
        <ele>2733</ele>
        <time>2022-07-13T10:40:10Z</time>
      </trkpt>
      <trkpt lat="44.63794" lon="7.09466">
        <ele>2732</ele>
        <time>2022-07-13T10:40:19Z</time>
      </trkpt>
      <trkpt lat="44.63796" lon="7.0947">
        <ele>2731</ele>
        <time>2022-07-13T10:40:27Z</time>
      </trkpt>
      <trkpt lat="44.63796" lon="7.09476">
        <ele>2731</ele>
        <time>2022-07-13T10:40:35Z</time>
      </trkpt>
      <trkpt lat="44.63799" lon="7.09481">
        <ele>2729</ele>
        <time>2022-07-13T10:40:46Z</time>
      </trkpt>
      <trkpt lat="44.63801" lon="7.09485">
        <ele>2728</ele>
        <time>2022-07-13T10:40:54Z</time>
      </trkpt>
      <trkpt lat="44.63804" lon="7.09488">
        <ele>2727</ele>
        <time>2022-07-13T10:41:00Z</time>
      </trkpt>
      <trkpt lat="44.63802" lon="7.09492">
        <ele>2727</ele>
        <time>2022-07-13T10:41:11Z</time>
      </trkpt>
      <trkpt lat="44.63801" lon="7.09497">
        <ele>2726</ele>
        <time>2022-07-13T10:41:21Z</time>
      </trkpt>
      <trkpt lat="44.63806" lon="7.09503">
        <ele>2724</ele>
        <time>2022-07-13T10:41:37Z</time>
      </trkpt>
      <trkpt lat="44.63807" lon="7.09508">
        <ele>2723</ele>
        <time>2022-07-13T10:41:43Z</time>
      </trkpt>
      <trkpt lat="44.63807" lon="7.09513">
        <ele>2722</ele>
        <time>2022-07-13T10:41:56Z</time>
      </trkpt>
      <trkpt lat="44.63809" lon="7.09518">
        <ele>2722</ele>
        <time>2022-07-13T10:42:04Z</time>
      </trkpt>
      <trkpt lat="44.63805" lon="7.09521">
        <ele>2721</ele>
        <time>2022-07-13T10:42:16Z</time>
      </trkpt>
      <trkpt lat="44.63805" lon="7.09525">
        <ele>2719</ele>
        <time>2022-07-13T10:42:35Z</time>
      </trkpt>
      <trkpt lat="44.63805" lon="7.09531">
        <ele>2717</ele>
        <time>2022-07-13T10:42:45Z</time>
      </trkpt>
      <trkpt lat="44.63803" lon="7.09535">
        <ele>2715</ele>
        <time>2022-07-13T10:42:51Z</time>
      </trkpt>
      <trkpt lat="44.63802" lon="7.0954">
        <ele>2711</ele>
        <time>2022-07-13T10:43:03Z</time>
      </trkpt>
      <trkpt lat="44.63799" lon="7.09542">
        <ele>2709</ele>
        <time>2022-07-13T10:43:14Z</time>
      </trkpt>
      <trkpt lat="44.63799" lon="7.09547">
        <ele>2707</ele>
        <time>2022-07-13T10:43:25Z</time>
      </trkpt>
      <trkpt lat="44.63797" lon="7.09551">
        <ele>2705</ele>
        <time>2022-07-13T10:43:36Z</time>
      </trkpt>
      <trkpt lat="44.63797" lon="7.09556">
        <ele>2704</ele>
        <time>2022-07-13T10:43:48Z</time>
      </trkpt>
      <trkpt lat="44.63793" lon="7.09564">
        <ele>2702</ele>
        <time>2022-07-13T10:44:20Z</time>
      </trkpt>
      <trkpt lat="44.63796" lon="7.09569">
        <ele>2701</ele>
        <time>2022-07-13T10:44:27Z</time>
      </trkpt>
      <trkpt lat="44.63796" lon="7.09574">
        <ele>2701</ele>
        <time>2022-07-13T10:44:34Z</time>
      </trkpt>
      <trkpt lat="44.63799" lon="7.09578">
        <ele>2701</ele>
        <time>2022-07-13T10:44:41Z</time>
      </trkpt>
      <trkpt lat="44.63802" lon="7.0958">
        <ele>2702</ele>
        <time>2022-07-13T10:44:49Z</time>
      </trkpt>
      <trkpt lat="44.63805" lon="7.09583">
        <ele>2702</ele>
        <time>2022-07-13T10:44:56Z</time>
      </trkpt>
      <trkpt lat="44.63807" lon="7.09587">
        <ele>2703</ele>
        <time>2022-07-13T10:45:01Z</time>
      </trkpt>
      <trkpt lat="44.63809" lon="7.09592">
        <ele>2703</ele>
        <time>2022-07-13T10:45:07Z</time>
      </trkpt>
      <trkpt lat="44.63809" lon="7.09597">
        <ele>2704</ele>
        <time>2022-07-13T10:45:12Z</time>
      </trkpt>
      <trkpt lat="44.63808" lon="7.09603">
        <ele>2705</ele>
        <time>2022-07-13T10:45:18Z</time>
      </trkpt>
      <trkpt lat="44.6381" lon="7.09612">
        <ele>2705</ele>
        <time>2022-07-13T10:45:30Z</time>
      </trkpt>
      <trkpt lat="44.63807" lon="7.09615">
        <ele>2704</ele>
        <time>2022-07-13T10:45:36Z</time>
      </trkpt>
      <trkpt lat="44.63804" lon="7.09618">
        <ele>2704</ele>
        <time>2022-07-13T10:45:40Z</time>
      </trkpt>
      <trkpt lat="44.63802" lon="7.09622">
        <ele>2703</ele>
        <time>2022-07-13T10:45:44Z</time>
      </trkpt>
      <trkpt lat="44.63798" lon="7.09621">
        <ele>2703</ele>
        <time>2022-07-13T10:45:48Z</time>
      </trkpt>
      <trkpt lat="44.63795" lon="7.09618">
        <ele>2703</ele>
        <time>2022-07-13T10:45:54Z</time>
      </trkpt>
      <trkpt lat="44.63791" lon="7.09616">
        <ele>2703</ele>
        <time>2022-07-13T10:45:59Z</time>
      </trkpt>
      <trkpt lat="44.63793" lon="7.09619">
        <ele>2703</ele>
        <time>2022-07-13T10:46:29Z</time>
      </trkpt>
      <trkpt lat="44.63793" lon="7.09625">
        <ele>2704</ele>
        <time>2022-07-13T10:46:33Z</time>
      </trkpt>
      <trkpt lat="44.63795" lon="7.09629">
        <ele>2705</ele>
        <time>2022-07-13T10:46:37Z</time>
      </trkpt>
      <trkpt lat="44.638" lon="7.09645">
        <ele>2707</ele>
        <time>2022-07-13T10:46:49Z</time>
      </trkpt>
      <trkpt lat="44.63802" lon="7.09649">
        <ele>2708</ele>
        <time>2022-07-13T10:46:54Z</time>
      </trkpt>
      <trkpt lat="44.63802" lon="7.09655">
        <ele>2709</ele>
        <time>2022-07-13T10:46:59Z</time>
      </trkpt>
      <trkpt lat="44.63805" lon="7.09664">
        <ele>2711</ele>
        <time>2022-07-13T10:47:12Z</time>
      </trkpt>
      <trkpt lat="44.63808" lon="7.09665">
        <ele>2712</ele>
        <time>2022-07-13T10:47:17Z</time>
      </trkpt>
      <trkpt lat="44.63811" lon="7.09669">
        <ele>2712</ele>
        <time>2022-07-13T10:47:22Z</time>
      </trkpt>
      <trkpt lat="44.63814" lon="7.09672">
        <ele>2712</ele>
        <time>2022-07-13T10:47:26Z</time>
      </trkpt>
      <trkpt lat="44.63817" lon="7.09675">
        <ele>2712</ele>
        <time>2022-07-13T10:47:30Z</time>
      </trkpt>
      <trkpt lat="44.6382" lon="7.09679">
        <ele>2712</ele>
        <time>2022-07-13T10:47:35Z</time>
      </trkpt>
      <trkpt lat="44.63822" lon="7.09683">
        <ele>2712</ele>
        <time>2022-07-13T10:47:40Z</time>
      </trkpt>
      <trkpt lat="44.6383" lon="7.09695">
        <ele>2712</ele>
        <time>2022-07-13T10:47:55Z</time>
      </trkpt>
      <trkpt lat="44.63832" lon="7.09699">
        <ele>2712</ele>
        <time>2022-07-13T10:48:01Z</time>
      </trkpt>
      <trkpt lat="44.63836" lon="7.09702">
        <ele>2711</ele>
        <time>2022-07-13T10:48:05Z</time>
      </trkpt>
      <trkpt lat="44.63837" lon="7.09707">
        <ele>2711</ele>
        <time>2022-07-13T10:48:12Z</time>
      </trkpt>
      <trkpt lat="44.63852" lon="7.09714">
        <ele>2706</ele>
        <time>2022-07-13T10:48:37Z</time>
      </trkpt>
      <trkpt lat="44.63855" lon="7.09717">
        <ele>2705</ele>
        <time>2022-07-13T10:48:43Z</time>
      </trkpt>
      <trkpt lat="44.63861" lon="7.09725">
        <ele>2704</ele>
        <time>2022-07-13T10:48:53Z</time>
      </trkpt>
      <trkpt lat="44.63863" lon="7.0973">
        <ele>2704</ele>
        <time>2022-07-13T10:48:58Z</time>
      </trkpt>
      <trkpt lat="44.63864" lon="7.09741">
        <ele>2705</ele>
        <time>2022-07-13T10:49:07Z</time>
      </trkpt>
      <trkpt lat="44.63865" lon="7.09746">
        <ele>2706</ele>
        <time>2022-07-13T10:49:11Z</time>
      </trkpt>
      <trkpt lat="44.63866" lon="7.09752">
        <ele>2706</ele>
        <time>2022-07-13T10:49:15Z</time>
      </trkpt>
      <trkpt lat="44.63871" lon="7.0976">
        <ele>2707</ele>
        <time>2022-07-13T10:49:27Z</time>
      </trkpt>
      <trkpt lat="44.63874" lon="7.09764">
        <ele>2707</ele>
        <time>2022-07-13T10:49:32Z</time>
      </trkpt>
      <trkpt lat="44.63877" lon="7.09768">
        <ele>2707</ele>
        <time>2022-07-13T10:49:37Z</time>
      </trkpt>
      <trkpt lat="44.63879" lon="7.09772">
        <ele>2707</ele>
        <time>2022-07-13T10:49:42Z</time>
      </trkpt>
      <trkpt lat="44.63882" lon="7.09776">
        <ele>2707</ele>
        <time>2022-07-13T10:49:47Z</time>
      </trkpt>
      <trkpt lat="44.63884" lon="7.0978">
        <ele>2707</ele>
        <time>2022-07-13T10:49:51Z</time>
      </trkpt>
      <trkpt lat="44.63886" lon="7.09796">
        <ele>2708</ele>
        <time>2022-07-13T10:50:04Z</time>
      </trkpt>
      <trkpt lat="44.63887" lon="7.09802">
        <ele>2709</ele>
        <time>2022-07-13T10:50:09Z</time>
      </trkpt>
      <trkpt lat="44.63889" lon="7.09807">
        <ele>2708</ele>
        <time>2022-07-13T10:50:17Z</time>
      </trkpt>
      <trkpt lat="44.63896" lon="7.09811">
        <ele>2708</ele>
        <time>2022-07-13T10:50:30Z</time>
      </trkpt>
      <trkpt lat="44.639" lon="7.09821">
        <ele>2709</ele>
        <time>2022-07-13T10:50:40Z</time>
      </trkpt>
      <trkpt lat="44.63904" lon="7.0983">
        <ele>2709</ele>
        <time>2022-07-13T10:50:49Z</time>
      </trkpt>
      <trkpt lat="44.63906" lon="7.09834">
        <ele>2710</ele>
        <time>2022-07-13T10:50:54Z</time>
      </trkpt>
      <trkpt lat="44.63913" lon="7.09838">
        <ele>2710</ele>
        <time>2022-07-13T10:51:04Z</time>
      </trkpt>
      <trkpt lat="44.63916" lon="7.09839">
        <ele>2710</ele>
        <time>2022-07-13T10:51:09Z</time>
      </trkpt>
      <trkpt lat="44.6392" lon="7.0984">
        <ele>2711</ele>
        <time>2022-07-13T10:51:14Z</time>
      </trkpt>
      <trkpt lat="44.63923" lon="7.09849">
        <ele>2712</ele>
        <time>2022-07-13T10:51:22Z</time>
      </trkpt>
      <trkpt lat="44.63924" lon="7.09854">
        <ele>2712</ele>
        <time>2022-07-13T10:51:26Z</time>
      </trkpt>
      <trkpt lat="44.63925" lon="7.09859">
        <ele>2713</ele>
        <time>2022-07-13T10:51:31Z</time>
      </trkpt>
      <trkpt lat="44.63928" lon="7.09862">
        <ele>2713</ele>
        <time>2022-07-13T10:51:36Z</time>
      </trkpt>
      <trkpt lat="44.63931" lon="7.09884">
        <ele>2714</ele>
        <time>2022-07-13T10:51:55Z</time>
      </trkpt>
      <trkpt lat="44.6393" lon="7.09896">
        <ele>2715</ele>
        <time>2022-07-13T10:52:05Z</time>
      </trkpt>
      <trkpt lat="44.6393" lon="7.09901">
        <ele>2716</ele>
        <time>2022-07-13T10:52:09Z</time>
      </trkpt>
      <trkpt lat="44.63931" lon="7.09906">
        <ele>2715</ele>
        <time>2022-07-13T10:52:13Z</time>
      </trkpt>
      <trkpt lat="44.63931" lon="7.09911">
        <ele>2716</ele>
        <time>2022-07-13T10:52:18Z</time>
      </trkpt>
      <trkpt lat="44.63934" lon="7.09914">
        <ele>2716</ele>
        <time>2022-07-13T10:52:25Z</time>
      </trkpt>
      <trkpt lat="44.63938" lon="7.09916">
        <ele>2716</ele>
        <time>2022-07-13T10:52:33Z</time>
      </trkpt>
      <trkpt lat="44.63951" lon="7.09937">
        <ele>2720</ele>
        <time>2022-07-13T10:52:57Z</time>
      </trkpt>
      <trkpt lat="44.63954" lon="7.0994">
        <ele>2720</ele>
        <time>2022-07-13T10:53:02Z</time>
      </trkpt>
      <trkpt lat="44.63958" lon="7.09941">
        <ele>2721</ele>
        <time>2022-07-13T10:53:08Z</time>
      </trkpt>
      <trkpt lat="44.63967" lon="7.09951">
        <ele>2722</ele>
        <time>2022-07-13T10:53:22Z</time>
      </trkpt>
      <trkpt lat="44.6397" lon="7.09955">
        <ele>2722</ele>
        <time>2022-07-13T10:53:26Z</time>
      </trkpt>
      <trkpt lat="44.63972" lon="7.09959">
        <ele>2722</ele>
        <time>2022-07-13T10:53:32Z</time>
      </trkpt>
      <trkpt lat="44.63973" lon="7.09965">
        <ele>2722</ele>
        <time>2022-07-13T10:53:37Z</time>
      </trkpt>
      <trkpt lat="44.63974" lon="7.0997">
        <ele>2723</ele>
        <time>2022-07-13T10:53:42Z</time>
      </trkpt>
      <trkpt lat="44.63977" lon="7.09984">
        <ele>2724</ele>
        <time>2022-07-13T10:53:57Z</time>
      </trkpt>
      <trkpt lat="44.63979" lon="7.09989">
        <ele>2725</ele>
        <time>2022-07-13T10:54:02Z</time>
      </trkpt>
      <trkpt lat="44.63981" lon="7.09993">
        <ele>2725</ele>
        <time>2022-07-13T10:54:07Z</time>
      </trkpt>
      <trkpt lat="44.63983" lon="7.09998">
        <ele>2726</ele>
        <time>2022-07-13T10:54:13Z</time>
      </trkpt>
      <trkpt lat="44.63984" lon="7.10003">
        <ele>2726</ele>
        <time>2022-07-13T10:54:18Z</time>
      </trkpt>
      <trkpt lat="44.63994" lon="7.10025">
        <ele>2730</ele>
        <time>2022-07-13T10:54:45Z</time>
      </trkpt>
      <trkpt lat="44.63997" lon="7.10034">
        <ele>2731</ele>
        <time>2022-07-13T10:54:55Z</time>
      </trkpt>
      <trkpt lat="44.63999" lon="7.10039">
        <ele>2732</ele>
        <time>2022-07-13T10:55:00Z</time>
      </trkpt>
      <trkpt lat="44.64003" lon="7.10042">
        <ele>2732</ele>
        <time>2022-07-13T10:55:06Z</time>
      </trkpt>
      <trkpt lat="44.64005" lon="7.10046">
        <ele>2731</ele>
        <time>2022-07-13T10:55:10Z</time>
      </trkpt>
      <trkpt lat="44.64009" lon="7.10055">
        <ele>2731</ele>
        <time>2022-07-13T10:55:22Z</time>
      </trkpt>
      <trkpt lat="44.6401" lon="7.1006">
        <ele>2731</ele>
        <time>2022-07-13T10:55:30Z</time>
      </trkpt>
      <trkpt lat="44.64008" lon="7.10065">
        <ele>2732</ele>
        <time>2022-07-13T10:55:34Z</time>
      </trkpt>
      <trkpt lat="44.64009" lon="7.10071">
        <ele>2732</ele>
        <time>2022-07-13T10:55:42Z</time>
      </trkpt>
      <trkpt lat="44.64008" lon="7.10076">
        <ele>2733</ele>
        <time>2022-07-13T10:55:48Z</time>
      </trkpt>
      <trkpt lat="44.64005" lon="7.10079">
        <ele>2734</ele>
        <time>2022-07-13T10:55:54Z</time>
      </trkpt>
      <trkpt lat="44.64003" lon="7.10083">
        <ele>2734</ele>
        <time>2022-07-13T10:55:59Z</time>
      </trkpt>
      <trkpt lat="44.64002" lon="7.10093">
        <ele>2735</ele>
        <time>2022-07-13T10:56:11Z</time>
      </trkpt>
      <trkpt lat="44.63999" lon="7.10096">
        <ele>2735</ele>
        <time>2022-07-13T10:56:17Z</time>
      </trkpt>
      <trkpt lat="44.63998" lon="7.10107">
        <ele>2736</ele>
        <time>2022-07-13T10:56:28Z</time>
      </trkpt>
      <trkpt lat="44.63998" lon="7.10112">
        <ele>2737</ele>
        <time>2022-07-13T10:56:33Z</time>
      </trkpt>
      <trkpt lat="44.64001" lon="7.10122">
        <ele>2738</ele>
        <time>2022-07-13T10:56:45Z</time>
      </trkpt>
      <trkpt lat="44.64003" lon="7.10139">
        <ele>2741</ele>
        <time>2022-07-13T10:57:05Z</time>
      </trkpt>
      <trkpt lat="44.64002" lon="7.10154">
        <ele>2740</ele>
        <time>2022-07-13T10:57:17Z</time>
      </trkpt>
      <trkpt lat="44.64002" lon="7.10165">
        <ele>2741</ele>
        <time>2022-07-13T10:57:27Z</time>
      </trkpt>
      <trkpt lat="44.64009" lon="7.10171">
        <ele>2741</ele>
        <time>2022-07-13T10:57:38Z</time>
      </trkpt>
      <trkpt lat="44.64015" lon="7.10177">
        <ele>2743</ele>
        <time>2022-07-13T10:57:51Z</time>
      </trkpt>
      <trkpt lat="44.64017" lon="7.10181">
        <ele>2744</ele>
        <time>2022-07-13T10:57:57Z</time>
      </trkpt>
      <trkpt lat="44.6402" lon="7.10185">
        <ele>2745</ele>
        <time>2022-07-13T10:58:03Z</time>
      </trkpt>
      <trkpt lat="44.64024" lon="7.10194">
        <ele>2745</ele>
        <time>2022-07-13T10:58:14Z</time>
      </trkpt>
      <trkpt lat="44.64024" lon="7.102">
        <ele>2746</ele>
        <time>2022-07-13T10:58:20Z</time>
      </trkpt>
      <trkpt lat="44.64025" lon="7.10204">
        <ele>2746</ele>
        <time>2022-07-13T10:58:29Z</time>
      </trkpt>
      <trkpt lat="44.64027" lon="7.10209">
        <ele>2746</ele>
        <time>2022-07-13T10:58:34Z</time>
      </trkpt>
      <trkpt lat="44.64024" lon="7.10213">
        <ele>2745</ele>
        <time>2022-07-13T10:58:40Z</time>
      </trkpt>
      <trkpt lat="44.64024" lon="7.10219">
        <ele>2746</ele>
        <time>2022-07-13T10:58:46Z</time>
      </trkpt>
      <trkpt lat="44.64027" lon="7.10223">
        <ele>2747</ele>
        <time>2022-07-13T10:58:51Z</time>
      </trkpt>
      <trkpt lat="44.6403" lon="7.10226">
        <ele>2748</ele>
        <time>2022-07-13T10:58:57Z</time>
      </trkpt>
      <trkpt lat="44.64033" lon="7.10229">
        <ele>2748</ele>
        <time>2022-07-13T10:59:02Z</time>
      </trkpt>
      <trkpt lat="44.64034" lon="7.10234">
        <ele>2749</ele>
        <time>2022-07-13T10:59:07Z</time>
      </trkpt>
      <trkpt lat="44.64035" lon="7.10239">
        <ele>2749</ele>
        <time>2022-07-13T10:59:12Z</time>
      </trkpt>
      <trkpt lat="44.64035" lon="7.10245">
        <ele>2749</ele>
        <time>2022-07-13T10:59:17Z</time>
      </trkpt>
      <trkpt lat="44.64037" lon="7.1025">
        <ele>2749</ele>
        <time>2022-07-13T10:59:21Z</time>
      </trkpt>
      <trkpt lat="44.64039" lon="7.10267">
        <ele>2750</ele>
        <time>2022-07-13T10:59:32Z</time>
      </trkpt>
      <trkpt lat="44.64038" lon="7.10272">
        <ele>2749</ele>
        <time>2022-07-13T10:59:38Z</time>
      </trkpt>
      <trkpt lat="44.64034" lon="7.10276">
        <ele>2748</ele>
        <time>2022-07-13T10:59:43Z</time>
      </trkpt>
      <trkpt lat="44.64031" lon="7.10279">
        <ele>2747</ele>
        <time>2022-07-13T10:59:48Z</time>
      </trkpt>
      <trkpt lat="44.6403" lon="7.10288">
        <ele>2748</ele>
        <time>2022-07-13T11:00:00Z</time>
      </trkpt>
      <trkpt lat="44.6403" lon="7.10293">
        <ele>2749</ele>
        <time>2022-07-13T11:00:05Z</time>
      </trkpt>
      <trkpt lat="44.6403" lon="7.10298">
        <ele>2751</ele>
        <time>2022-07-13T11:00:10Z</time>
      </trkpt>
      <trkpt lat="44.6403" lon="7.10303">
        <ele>2751</ele>
        <time>2022-07-13T11:00:16Z</time>
      </trkpt>
      <trkpt lat="44.64032" lon="7.10308">
        <ele>2753</ele>
        <time>2022-07-13T11:00:22Z</time>
      </trkpt>
      <trkpt lat="44.64034" lon="7.10328">
        <ele>2754</ele>
        <time>2022-07-13T11:00:42Z</time>
      </trkpt>
      <trkpt lat="44.64034" lon="7.10333">
        <ele>2754</ele>
        <time>2022-07-13T11:00:46Z</time>
      </trkpt>
      <trkpt lat="44.64036" lon="7.10339">
        <ele>2753</ele>
        <time>2022-07-13T11:00:51Z</time>
      </trkpt>
      <trkpt lat="44.64038" lon="7.10343">
        <ele>2753</ele>
        <time>2022-07-13T11:00:55Z</time>
      </trkpt>
      <trkpt lat="44.64044" lon="7.10357">
        <ele>2752</ele>
        <time>2022-07-13T11:01:07Z</time>
      </trkpt>
      <trkpt lat="44.64046" lon="7.10362">
        <ele>2752</ele>
        <time>2022-07-13T11:01:11Z</time>
      </trkpt>
      <trkpt lat="44.64046" lon="7.10367">
        <ele>2753</ele>
        <time>2022-07-13T11:01:15Z</time>
      </trkpt>
      <trkpt lat="44.64047" lon="7.10373">
        <ele>2753</ele>
        <time>2022-07-13T11:01:20Z</time>
      </trkpt>
      <trkpt lat="44.6405" lon="7.10377">
        <ele>2753</ele>
        <time>2022-07-13T11:01:25Z</time>
      </trkpt>
      <trkpt lat="44.64057" lon="7.10402">
        <ele>2751</ele>
        <time>2022-07-13T11:01:48Z</time>
      </trkpt>
      <trkpt lat="44.64057" lon="7.10407">
        <ele>2751</ele>
        <time>2022-07-13T11:01:53Z</time>
      </trkpt>
      <trkpt lat="44.64058" lon="7.10419">
        <ele>2753</ele>
        <time>2022-07-13T11:02:05Z</time>
      </trkpt>
      <trkpt lat="44.64062" lon="7.10422">
        <ele>2752</ele>
        <time>2022-07-13T11:02:10Z</time>
      </trkpt>
      <trkpt lat="44.64068" lon="7.10454">
        <ele>2750</ele>
        <time>2022-07-13T11:02:35Z</time>
      </trkpt>
      <trkpt lat="44.6407" lon="7.10459">
        <ele>2749</ele>
        <time>2022-07-13T11:02:40Z</time>
      </trkpt>
      <trkpt lat="44.64071" lon="7.10465">
        <ele>2749</ele>
        <time>2022-07-13T11:02:45Z</time>
      </trkpt>
      <trkpt lat="44.6407" lon="7.1047">
        <ele>2748</ele>
        <time>2022-07-13T11:02:50Z</time>
      </trkpt>
      <trkpt lat="44.6407" lon="7.10475">
        <ele>2747</ele>
        <time>2022-07-13T11:02:56Z</time>
      </trkpt>
      <trkpt lat="44.64073" lon="7.10478">
        <ele>2748</ele>
        <time>2022-07-13T11:03:02Z</time>
      </trkpt>
      <trkpt lat="44.64074" lon="7.10483">
        <ele>2749</ele>
        <time>2022-07-13T11:03:07Z</time>
      </trkpt>
      <trkpt lat="44.64073" lon="7.10488">
        <ele>2749</ele>
        <time>2022-07-13T11:03:12Z</time>
      </trkpt>
      <trkpt lat="44.64073" lon="7.10494">
        <ele>2750</ele>
        <time>2022-07-13T11:03:18Z</time>
      </trkpt>
      <trkpt lat="44.64072" lon="7.10499">
        <ele>2751</ele>
        <time>2022-07-13T11:03:23Z</time>
      </trkpt>
      <trkpt lat="44.64074" lon="7.10505">
        <ele>2752</ele>
        <time>2022-07-13T11:03:29Z</time>
      </trkpt>
      <trkpt lat="44.64082" lon="7.10522">
        <ele>2752</ele>
        <time>2022-07-13T11:03:46Z</time>
      </trkpt>
      <trkpt lat="44.64088" lon="7.10529">
        <ele>2752</ele>
        <time>2022-07-13T11:03:56Z</time>
      </trkpt>
      <trkpt lat="44.64094" lon="7.10542">
        <ele>2751</ele>
        <time>2022-07-13T11:04:08Z</time>
      </trkpt>
      <trkpt lat="44.64098" lon="7.10551">
        <ele>2751</ele>
        <time>2022-07-13T11:04:16Z</time>
      </trkpt>
      <trkpt lat="44.64098" lon="7.10557">
        <ele>2751</ele>
        <time>2022-07-13T11:04:21Z</time>
      </trkpt>
      <trkpt lat="44.64099" lon="7.10573">
        <ele>2754</ele>
        <time>2022-07-13T11:04:37Z</time>
      </trkpt>
      <trkpt lat="44.64099" lon="7.10583">
        <ele>2754</ele>
        <time>2022-07-13T11:04:48Z</time>
      </trkpt>
      <trkpt lat="44.64102" lon="7.10587">
        <ele>2755</ele>
        <time>2022-07-13T11:04:54Z</time>
      </trkpt>
      <trkpt lat="44.64106" lon="7.10587">
        <ele>2757</ele>
        <time>2022-07-13T11:05:00Z</time>
      </trkpt>
      <trkpt lat="44.64103" lon="7.10597">
        <ele>2758</ele>
        <time>2022-07-13T11:05:13Z</time>
      </trkpt>
      <trkpt lat="44.64106" lon="7.10599">
        <ele>2759</ele>
        <time>2022-07-13T11:05:20Z</time>
      </trkpt>
      <trkpt lat="44.64122" lon="7.10615">
        <ele>2762</ele>
        <time>2022-07-13T11:05:56Z</time>
      </trkpt>
      <trkpt lat="44.64128" lon="7.10621">
        <ele>2763</ele>
        <time>2022-07-13T11:06:07Z</time>
      </trkpt>
      <trkpt lat="44.6413" lon="7.10626">
        <ele>2764</ele>
        <time>2022-07-13T11:06:13Z</time>
      </trkpt>
      <trkpt lat="44.6413" lon="7.10631">
        <ele>2766</ele>
        <time>2022-07-13T11:06:18Z</time>
      </trkpt>
      <trkpt lat="44.64129" lon="7.10636">
        <ele>2768</ele>
        <time>2022-07-13T11:06:31Z</time>
      </trkpt>
      <trkpt lat="44.64135" lon="7.1065">
        <ele>2770</ele>
        <time>2022-07-13T11:06:52Z</time>
      </trkpt>
      <trkpt lat="44.64138" lon="7.10652">
        <ele>2771</ele>
        <time>2022-07-13T11:06:57Z</time>
      </trkpt>
      <trkpt lat="44.64141" lon="7.10654">
        <ele>2772</ele>
        <time>2022-07-13T11:07:59Z</time>
      </trkpt>
      <trkpt lat="44.64143" lon="7.10659">
        <ele>2771</ele>
        <time>2022-07-13T11:08:10Z</time>
      </trkpt>
      <trkpt lat="44.64147" lon="7.1067">
        <ele>2768</ele>
        <time>2022-07-13T11:08:19Z</time>
      </trkpt>
      <trkpt lat="44.64149" lon="7.10674">
        <ele>2767</ele>
        <time>2022-07-13T11:08:23Z</time>
      </trkpt>
      <trkpt lat="44.64153" lon="7.10684">
        <ele>2767</ele>
        <time>2022-07-13T11:08:31Z</time>
      </trkpt>
      <trkpt lat="44.64156" lon="7.10688">
        <ele>2768</ele>
        <time>2022-07-13T11:08:36Z</time>
      </trkpt>
      <trkpt lat="44.64159" lon="7.1069">
        <ele>2768</ele>
        <time>2022-07-13T11:08:40Z</time>
      </trkpt>
      <trkpt lat="44.6416" lon="7.10695">
        <ele>2768</ele>
        <time>2022-07-13T11:08:44Z</time>
      </trkpt>
      <trkpt lat="44.64161" lon="7.10701">
        <ele>2767</ele>
        <time>2022-07-13T11:08:49Z</time>
      </trkpt>
      <trkpt lat="44.64161" lon="7.10707">
        <ele>2767</ele>
        <time>2022-07-13T11:08:53Z</time>
      </trkpt>
      <trkpt lat="44.6416" lon="7.10711">
        <ele>2767</ele>
        <time>2022-07-13T11:08:57Z</time>
      </trkpt>
      <trkpt lat="44.6416" lon="7.10717">
        <ele>2768</ele>
        <time>2022-07-13T11:09:01Z</time>
      </trkpt>
      <trkpt lat="44.64167" lon="7.10723">
        <ele>2768</ele>
        <time>2022-07-13T11:09:11Z</time>
      </trkpt>
      <trkpt lat="44.6417" lon="7.10724">
        <ele>2768</ele>
        <time>2022-07-13T11:09:15Z</time>
      </trkpt>
      <trkpt lat="44.64176" lon="7.10729">
        <ele>2766</ele>
        <time>2022-07-13T11:09:23Z</time>
      </trkpt>
      <trkpt lat="44.6418" lon="7.1074">
        <ele>2765</ele>
        <time>2022-07-13T11:09:33Z</time>
      </trkpt>
      <trkpt lat="44.6418" lon="7.1075">
        <ele>2765</ele>
        <time>2022-07-13T11:09:42Z</time>
      </trkpt>
      <trkpt lat="44.64185" lon="7.10758">
        <ele>2765</ele>
        <time>2022-07-13T11:10:08Z</time>
      </trkpt>
      <trkpt lat="44.64189" lon="7.10767">
        <ele>2765</ele>
        <time>2022-07-13T11:10:22Z</time>
      </trkpt>
      <trkpt lat="44.64189" lon="7.10773">
        <ele>2765</ele>
        <time>2022-07-13T11:10:27Z</time>
      </trkpt>
      <trkpt lat="44.64187" lon="7.10784">
        <ele>2767</ele>
        <time>2022-07-13T11:10:36Z</time>
      </trkpt>
      <trkpt lat="44.64184" lon="7.10785">
        <ele>2766</ele>
        <time>2022-07-13T11:22:53Z</time>
      </trkpt>
      <trkpt lat="44.64184" lon="7.1079">
        <ele>2766</ele>
        <time>2022-07-13T11:24:47Z</time>
      </trkpt>
      <trkpt lat="44.64184" lon="7.10795">
        <ele>2764</ele>
        <time>2022-07-13T11:25:17Z</time>
      </trkpt>
      <trkpt lat="44.64185" lon="7.10811">
        <ele>2763</ele>
        <time>2022-07-13T11:25:27Z</time>
      </trkpt>
      <trkpt lat="44.64184" lon="7.10817">
        <ele>2763</ele>
        <time>2022-07-13T11:25:31Z</time>
      </trkpt>
      <trkpt lat="44.64185" lon="7.10822">
        <ele>2763</ele>
        <time>2022-07-13T11:25:36Z</time>
      </trkpt>
      <trkpt lat="44.64185" lon="7.10828">
        <ele>2762</ele>
        <time>2022-07-13T11:25:40Z</time>
      </trkpt>
      <trkpt lat="44.64188" lon="7.10838">
        <ele>2760</ele>
        <time>2022-07-13T11:25:50Z</time>
      </trkpt>
      <trkpt lat="44.64191" lon="7.10841">
        <ele>2759</ele>
        <time>2022-07-13T11:26:19Z</time>
      </trkpt>
      <trkpt lat="44.64191" lon="7.10847">
        <ele>2758</ele>
        <time>2022-07-13T11:26:23Z</time>
      </trkpt>
      <trkpt lat="44.64191" lon="7.10858">
        <ele>2758</ele>
        <time>2022-07-13T11:26:30Z</time>
      </trkpt>
      <trkpt lat="44.64193" lon="7.10863">
        <ele>2757</ele>
        <time>2022-07-13T11:26:34Z</time>
      </trkpt>
      <trkpt lat="44.64192" lon="7.10867">
        <ele>2757</ele>
        <time>2022-07-13T11:26:38Z</time>
      </trkpt>
      <trkpt lat="44.64192" lon="7.10878">
        <ele>2757</ele>
        <time>2022-07-13T11:26:51Z</time>
      </trkpt>
      <trkpt lat="44.64192" lon="7.10882">
        <ele>2757</ele>
        <time>2022-07-13T11:26:55Z</time>
      </trkpt>
      <trkpt lat="44.64191" lon="7.10887">
        <ele>2758</ele>
        <time>2022-07-13T11:27:00Z</time>
      </trkpt>
      <trkpt lat="44.64183" lon="7.10893">
        <ele>2757</ele>
        <time>2022-07-13T11:27:08Z</time>
      </trkpt>
      <trkpt lat="44.64175" lon="7.10912">
        <ele>2757</ele>
        <time>2022-07-13T11:27:27Z</time>
      </trkpt>
      <trkpt lat="44.64174" lon="7.10917">
        <ele>2756</ele>
        <time>2022-07-13T11:27:32Z</time>
      </trkpt>
      <trkpt lat="44.6417" lon="7.10931">
        <ele>2756</ele>
        <time>2022-07-13T11:27:44Z</time>
      </trkpt>
      <trkpt lat="44.6416" lon="7.1094">
        <ele>2755</ele>
        <time>2022-07-13T11:27:58Z</time>
      </trkpt>
      <trkpt lat="44.64158" lon="7.10944">
        <ele>2755</ele>
        <time>2022-07-13T11:28:03Z</time>
      </trkpt>
      <trkpt lat="44.64158" lon="7.1095">
        <ele>2754</ele>
        <time>2022-07-13T11:28:08Z</time>
      </trkpt>
      <trkpt lat="44.64156" lon="7.10954">
        <ele>2754</ele>
        <time>2022-07-13T11:28:13Z</time>
      </trkpt>
      <trkpt lat="44.64153" lon="7.10956">
        <ele>2754</ele>
        <time>2022-07-13T11:28:18Z</time>
      </trkpt>
      <trkpt lat="44.64151" lon="7.1096">
        <ele>2755</ele>
        <time>2022-07-13T11:28:25Z</time>
      </trkpt>
      <trkpt lat="44.64153" lon="7.10965">
        <ele>2756</ele>
        <time>2022-07-13T11:28:31Z</time>
      </trkpt>
      <trkpt lat="44.64152" lon="7.10982">
        <ele>2757</ele>
        <time>2022-07-13T11:28:46Z</time>
      </trkpt>
      <trkpt lat="44.64148" lon="7.10992">
        <ele>2757</ele>
        <time>2022-07-13T11:28:56Z</time>
      </trkpt>
      <trkpt lat="44.64144" lon="7.11013">
        <ele>2760</ele>
        <time>2022-07-13T11:29:16Z</time>
      </trkpt>
      <trkpt lat="44.64145" lon="7.11018">
        <ele>2760</ele>
        <time>2022-07-13T11:29:20Z</time>
      </trkpt>
      <trkpt lat="44.64143" lon="7.11034">
        <ele>2761</ele>
        <time>2022-07-13T11:29:35Z</time>
      </trkpt>
      <trkpt lat="44.64141" lon="7.11038">
        <ele>2762</ele>
        <time>2022-07-13T11:29:40Z</time>
      </trkpt>
      <trkpt lat="44.64138" lon="7.11041">
        <ele>2761</ele>
        <time>2022-07-13T11:29:45Z</time>
      </trkpt>
      <trkpt lat="44.64137" lon="7.11047">
        <ele>2761</ele>
        <time>2022-07-13T11:29:50Z</time>
      </trkpt>
      <trkpt lat="44.64136" lon="7.11063">
        <ele>2762</ele>
        <time>2022-07-13T11:30:04Z</time>
      </trkpt>
      <trkpt lat="44.64137" lon="7.11068">
        <ele>2761</ele>
        <time>2022-07-13T11:30:09Z</time>
      </trkpt>
      <trkpt lat="44.64141" lon="7.11078">
        <ele>2760</ele>
        <time>2022-07-13T11:30:18Z</time>
      </trkpt>
      <trkpt lat="44.64143" lon="7.11089">
        <ele>2759</ele>
        <time>2022-07-13T11:30:26Z</time>
      </trkpt>
      <trkpt lat="44.64154" lon="7.11118">
        <ele>2757</ele>
        <time>2022-07-13T11:30:54Z</time>
      </trkpt>
      <trkpt lat="44.64157" lon="7.11122">
        <ele>2757</ele>
        <time>2022-07-13T11:30:59Z</time>
      </trkpt>
      <trkpt lat="44.64156" lon="7.11127">
        <ele>2757</ele>
        <time>2022-07-13T11:31:10Z</time>
      </trkpt>
      <trkpt lat="44.64169" lon="7.11147">
        <ele>2751</ele>
        <time>2022-07-13T11:31:43Z</time>
      </trkpt>
      <trkpt lat="44.64178" lon="7.1117">
        <ele>2750</ele>
        <time>2022-07-13T11:32:04Z</time>
      </trkpt>
      <trkpt lat="44.64179" lon="7.11175">
        <ele>2750</ele>
        <time>2022-07-13T11:32:09Z</time>
      </trkpt>
      <trkpt lat="44.64178" lon="7.1118">
        <ele>2751</ele>
        <time>2022-07-13T11:33:31Z</time>
      </trkpt>
      <trkpt lat="44.64182" lon="7.11191">
        <ele>2750</ele>
        <time>2022-07-13T11:33:41Z</time>
      </trkpt>
      <trkpt lat="44.64183" lon="7.11195">
        <ele>2750</ele>
        <time>2022-07-13T11:33:48Z</time>
      </trkpt>
      <trkpt lat="44.64184" lon="7.112">
        <ele>2750</ele>
        <time>2022-07-13T11:33:53Z</time>
      </trkpt>
      <trkpt lat="44.64192" lon="7.11237">
        <ele>2747</ele>
        <time>2022-07-13T11:34:27Z</time>
      </trkpt>
      <trkpt lat="44.64194" lon="7.11248">
        <ele>2747</ele>
        <time>2022-07-13T11:34:36Z</time>
      </trkpt>
      <trkpt lat="44.64194" lon="7.11253">
        <ele>2747</ele>
        <time>2022-07-13T11:34:41Z</time>
      </trkpt>
      <trkpt lat="44.64195" lon="7.11275">
        <ele>2746</ele>
        <time>2022-07-13T11:34:56Z</time>
      </trkpt>
      <trkpt lat="44.64195" lon="7.11287">
        <ele>2745</ele>
        <time>2022-07-13T11:35:04Z</time>
      </trkpt>
      <trkpt lat="44.64195" lon="7.11292">
        <ele>2746</ele>
        <time>2022-07-13T11:35:08Z</time>
      </trkpt>
      <trkpt lat="44.64196" lon="7.11298">
        <ele>2746</ele>
        <time>2022-07-13T11:35:13Z</time>
      </trkpt>
      <trkpt lat="44.64199" lon="7.11324">
        <ele>2747</ele>
        <time>2022-07-13T11:35:44Z</time>
      </trkpt>
      <trkpt lat="44.64199" lon="7.11329">
        <ele>2747</ele>
        <time>2022-07-13T11:35:49Z</time>
      </trkpt>
      <trkpt lat="44.64197" lon="7.11334">
        <ele>2746</ele>
        <time>2022-07-13T11:35:54Z</time>
      </trkpt>
      <trkpt lat="44.64196" lon="7.11339">
        <ele>2745</ele>
        <time>2022-07-13T11:35:59Z</time>
      </trkpt>
      <trkpt lat="44.64194" lon="7.11355">
        <ele>2742</ele>
        <time>2022-07-13T11:36:12Z</time>
      </trkpt>
      <trkpt lat="44.64192" lon="7.11365">
        <ele>2741</ele>
        <time>2022-07-13T11:36:20Z</time>
      </trkpt>
      <trkpt lat="44.64193" lon="7.1137">
        <ele>2741</ele>
        <time>2022-07-13T11:36:24Z</time>
      </trkpt>
      <trkpt lat="44.64193" lon="7.11375">
        <ele>2741</ele>
        <time>2022-07-13T11:36:29Z</time>
      </trkpt>
      <trkpt lat="44.64193" lon="7.1138">
        <ele>2742</ele>
        <time>2022-07-13T11:36:35Z</time>
      </trkpt>
      <trkpt lat="44.64192" lon="7.1139">
        <ele>2743</ele>
        <time>2022-07-13T11:36:46Z</time>
      </trkpt>
      <trkpt lat="44.64191" lon="7.114">
        <ele>2745</ele>
        <time>2022-07-13T11:36:56Z</time>
      </trkpt>
      <trkpt lat="44.6419" lon="7.11405">
        <ele>2745</ele>
        <time>2022-07-13T11:37:02Z</time>
      </trkpt>
      <trkpt lat="44.64191" lon="7.1141">
        <ele>2745</ele>
        <time>2022-07-13T11:37:10Z</time>
      </trkpt>
      <trkpt lat="44.64191" lon="7.1142">
        <ele>2746</ele>
        <time>2022-07-13T11:37:20Z</time>
      </trkpt>
      <trkpt lat="44.6419" lon="7.11424">
        <ele>2746</ele>
        <time>2022-07-13T11:37:25Z</time>
      </trkpt>
      <trkpt lat="44.64189" lon="7.11435">
        <ele>2745</ele>
        <time>2022-07-13T11:37:36Z</time>
      </trkpt>
      <trkpt lat="44.64182" lon="7.11471">
        <ele>2744</ele>
        <time>2022-07-13T11:38:06Z</time>
      </trkpt>
      <trkpt lat="44.64179" lon="7.11498">
        <ele>2742</ele>
        <time>2022-07-13T11:38:26Z</time>
      </trkpt>
      <trkpt lat="44.64179" lon="7.1151">
        <ele>2742</ele>
        <time>2022-07-13T11:38:34Z</time>
      </trkpt>
      <trkpt lat="44.64179" lon="7.11516">
        <ele>2742</ele>
        <time>2022-07-13T11:38:38Z</time>
      </trkpt>
      <trkpt lat="44.64185" lon="7.11541">
        <ele>2743</ele>
        <time>2022-07-13T11:39:00Z</time>
      </trkpt>
      <trkpt lat="44.64191" lon="7.11554">
        <ele>2744</ele>
        <time>2022-07-13T11:39:14Z</time>
      </trkpt>
      <trkpt lat="44.64198" lon="7.11572">
        <ele>2745</ele>
        <time>2022-07-13T11:39:32Z</time>
      </trkpt>
      <trkpt lat="44.64217" lon="7.116">
        <ele>2742</ele>
        <time>2022-07-13T11:40:04Z</time>
      </trkpt>
      <trkpt lat="44.6422" lon="7.11603">
        <ele>2742</ele>
        <time>2022-07-13T11:40:08Z</time>
      </trkpt>
      <trkpt lat="44.64233" lon="7.11628">
        <ele>2740</ele>
        <time>2022-07-13T11:40:33Z</time>
      </trkpt>
      <trkpt lat="44.64235" lon="7.11639">
        <ele>2739</ele>
        <time>2022-07-13T11:40:42Z</time>
      </trkpt>
      <trkpt lat="44.64238" lon="7.11643">
        <ele>2739</ele>
        <time>2022-07-13T11:40:47Z</time>
      </trkpt>
      <trkpt lat="44.64245" lon="7.11648">
        <ele>2739</ele>
        <time>2022-07-13T11:40:58Z</time>
      </trkpt>
      <trkpt lat="44.64249" lon="7.11656">
        <ele>2739</ele>
        <time>2022-07-13T11:41:08Z</time>
      </trkpt>
      <trkpt lat="44.64269" lon="7.11671">
        <ele>2737</ele>
        <time>2022-07-13T11:41:46Z</time>
      </trkpt>
      <trkpt lat="44.64266" lon="7.11674">
        <ele>2734</ele>
        <time>2022-07-13T11:42:32Z</time>
      </trkpt>
      <trkpt lat="44.64266" lon="7.11668">
        <ele>2733</ele>
        <time>2022-07-13T11:43:12Z</time>
      </trkpt>
      <trkpt lat="44.64271" lon="7.11669">
        <ele>2732</ele>
        <time>2022-07-13T11:44:23Z</time>
      </trkpt>
      <trkpt lat="44.64274" lon="7.11673">
        <ele>2730</ele>
        <time>2022-07-13T11:44:29Z</time>
      </trkpt>
      <trkpt lat="44.64275" lon="7.11678">
        <ele>2729</ele>
        <time>2022-07-13T11:44:33Z</time>
      </trkpt>
      <trkpt lat="44.64277" lon="7.11683">
        <ele>2727</ele>
        <time>2022-07-13T11:44:39Z</time>
      </trkpt>
      <trkpt lat="44.6428" lon="7.11681">
        <ele>2727</ele>
        <time>2022-07-13T11:47:19Z</time>
      </trkpt>
      <trkpt lat="44.64287" lon="7.11677">
        <ele>2725</ele>
        <time>2022-07-13T11:47:29Z</time>
      </trkpt>
      <trkpt lat="44.64291" lon="7.11678">
        <ele>2725</ele>
        <time>2022-07-13T11:47:35Z</time>
      </trkpt>
      <trkpt lat="44.64294" lon="7.1168">
        <ele>2723</ele>
        <time>2022-07-13T11:47:41Z</time>
      </trkpt>
      <trkpt lat="44.64298" lon="7.1168">
        <ele>2722</ele>
        <time>2022-07-13T11:47:46Z</time>
      </trkpt>
      <trkpt lat="44.64299" lon="7.11685">
        <ele>2720</ele>
        <time>2022-07-13T11:47:50Z</time>
      </trkpt>
      <trkpt lat="44.64301" lon="7.11689">
        <ele>2720</ele>
        <time>2022-07-13T11:47:55Z</time>
      </trkpt>
      <trkpt lat="44.64305" lon="7.11686">
        <ele>2717</ele>
        <time>2022-07-13T11:48:01Z</time>
      </trkpt>
      <trkpt lat="44.64309" lon="7.11688">
        <ele>2717</ele>
        <time>2022-07-13T11:48:08Z</time>
      </trkpt>
      <trkpt lat="44.64311" lon="7.11693">
        <ele>2715</ele>
        <time>2022-07-13T11:48:13Z</time>
      </trkpt>
      <trkpt lat="44.64315" lon="7.11694">
        <ele>2715</ele>
        <time>2022-07-13T11:48:18Z</time>
      </trkpt>
      <trkpt lat="44.64323" lon="7.11695">
        <ele>2714</ele>
        <time>2022-07-13T11:48:26Z</time>
      </trkpt>
      <trkpt lat="44.64327" lon="7.11693">
        <ele>2713</ele>
        <time>2022-07-13T11:48:31Z</time>
      </trkpt>
      <trkpt lat="44.64328" lon="7.11688">
        <ele>2713</ele>
        <time>2022-07-13T11:48:37Z</time>
      </trkpt>
      <trkpt lat="44.64331" lon="7.11685">
        <ele>2711</ele>
        <time>2022-07-13T11:48:42Z</time>
      </trkpt>
      <trkpt lat="44.64338" lon="7.11683">
        <ele>2712</ele>
        <time>2022-07-13T11:48:50Z</time>
      </trkpt>
      <trkpt lat="44.64345" lon="7.11681">
        <ele>2714</ele>
        <time>2022-07-13T11:48:58Z</time>
      </trkpt>
      <trkpt lat="44.6435" lon="7.1168">
        <ele>2714</ele>
        <time>2022-07-13T11:49:03Z</time>
      </trkpt>
      <trkpt lat="44.64364" lon="7.11683">
        <ele>2713</ele>
        <time>2022-07-13T11:49:19Z</time>
      </trkpt>
      <trkpt lat="44.64368" lon="7.11686">
        <ele>2713</ele>
        <time>2022-07-13T11:49:24Z</time>
      </trkpt>
      <trkpt lat="44.64371" lon="7.11687">
        <ele>2713</ele>
        <time>2022-07-13T11:49:28Z</time>
      </trkpt>
      <trkpt lat="44.64375" lon="7.11686">
        <ele>2712</ele>
        <time>2022-07-13T11:49:33Z</time>
      </trkpt>
      <trkpt lat="44.64379" lon="7.11684">
        <ele>2712</ele>
        <time>2022-07-13T11:49:38Z</time>
      </trkpt>
      <trkpt lat="44.64382" lon="7.1168">
        <ele>2711</ele>
        <time>2022-07-13T11:49:44Z</time>
      </trkpt>
      <trkpt lat="44.64401" lon="7.11684">
        <ele>2708</ele>
        <time>2022-07-13T11:50:12Z</time>
      </trkpt>
      <trkpt lat="44.64404" lon="7.11687">
        <ele>2707</ele>
        <time>2022-07-13T11:50:18Z</time>
      </trkpt>
      <trkpt lat="44.64401" lon="7.11691">
        <ele>2707</ele>
        <time>2022-07-13T11:50:22Z</time>
      </trkpt>
      <trkpt lat="44.64398" lon="7.11693">
        <ele>2706</ele>
        <time>2022-07-13T11:50:26Z</time>
      </trkpt>
      <trkpt lat="44.644" lon="7.11696">
        <ele>2703</ele>
        <time>2022-07-13T11:50:36Z</time>
      </trkpt>
      <trkpt lat="44.64404" lon="7.11699">
        <ele>2702</ele>
        <time>2022-07-13T11:50:41Z</time>
      </trkpt>
      <trkpt lat="44.64407" lon="7.11701">
        <ele>2702</ele>
        <time>2022-07-13T11:50:45Z</time>
      </trkpt>
      <trkpt lat="44.64413" lon="7.11707">
        <ele>2701</ele>
        <time>2022-07-13T11:50:54Z</time>
      </trkpt>
      <trkpt lat="44.64427" lon="7.11718">
        <ele>2697</ele>
        <time>2022-07-13T11:51:13Z</time>
      </trkpt>
      <trkpt lat="44.64431" lon="7.1172">
        <ele>2696</ele>
        <time>2022-07-13T11:51:18Z</time>
      </trkpt>
      <trkpt lat="44.64453" lon="7.11702">
        <ele>2687</ele>
        <time>2022-07-13T11:51:49Z</time>
      </trkpt>
      <trkpt lat="44.64457" lon="7.11698">
        <ele>2686</ele>
        <time>2022-07-13T11:51:54Z</time>
      </trkpt>
      <trkpt lat="44.64461" lon="7.11696">
        <ele>2684</ele>
        <time>2022-07-13T11:51:59Z</time>
      </trkpt>
      <trkpt lat="44.64462" lon="7.11701">
        <ele>2684</ele>
        <time>2022-07-13T11:52:03Z</time>
      </trkpt>
      <trkpt lat="44.64459" lon="7.1171">
        <ele>2682</ele>
        <time>2022-07-13T11:52:11Z</time>
      </trkpt>
      <trkpt lat="44.64463" lon="7.11711">
        <ele>2681</ele>
        <time>2022-07-13T11:52:14Z</time>
      </trkpt>
      <trkpt lat="44.64466" lon="7.11709">
        <ele>2681</ele>
        <time>2022-07-13T11:52:18Z</time>
      </trkpt>
      <trkpt lat="44.64473" lon="7.11705">
        <ele>2679</ele>
        <time>2022-07-13T11:52:26Z</time>
      </trkpt>
      <trkpt lat="44.64476" lon="7.11703">
        <ele>2677</ele>
        <time>2022-07-13T11:52:31Z</time>
      </trkpt>
      <trkpt lat="44.64477" lon="7.11707">
        <ele>2677</ele>
        <time>2022-07-13T11:52:39Z</time>
      </trkpt>
      <trkpt lat="44.64475" lon="7.11711">
        <ele>2676</ele>
        <time>2022-07-13T11:52:42Z</time>
      </trkpt>
      <trkpt lat="44.6447" lon="7.11719">
        <ele>2675</ele>
        <time>2022-07-13T11:52:50Z</time>
      </trkpt>
      <trkpt lat="44.6447" lon="7.11724">
        <ele>2674</ele>
        <time>2022-07-13T11:52:55Z</time>
      </trkpt>
      <trkpt lat="44.64478" lon="7.11723">
        <ele>2672</ele>
        <time>2022-07-13T11:53:04Z</time>
      </trkpt>
      <trkpt lat="44.6448" lon="7.11719">
        <ele>2672</ele>
        <time>2022-07-13T11:53:09Z</time>
      </trkpt>
      <trkpt lat="44.64484" lon="7.11718">
        <ele>2672</ele>
        <time>2022-07-13T11:53:15Z</time>
      </trkpt>
      <trkpt lat="44.64491" lon="7.11714">
        <ele>2670</ele>
        <time>2022-07-13T11:53:26Z</time>
      </trkpt>
      <trkpt lat="44.64495" lon="7.11713">
        <ele>2669</ele>
        <time>2022-07-13T11:53:32Z</time>
      </trkpt>
      <trkpt lat="44.64494" lon="7.11718">
        <ele>2668</ele>
        <time>2022-07-13T11:53:36Z</time>
      </trkpt>
      <trkpt lat="44.64493" lon="7.11724">
        <ele>2667</ele>
        <time>2022-07-13T11:53:40Z</time>
      </trkpt>
      <trkpt lat="44.64497" lon="7.11725">
        <ele>2665</ele>
        <time>2022-07-13T11:53:47Z</time>
      </trkpt>
      <trkpt lat="44.645" lon="7.11722">
        <ele>2663</ele>
        <time>2022-07-13T11:53:52Z</time>
      </trkpt>
      <trkpt lat="44.64504" lon="7.1172">
        <ele>2662</ele>
        <time>2022-07-13T11:53:57Z</time>
      </trkpt>
      <trkpt lat="44.64504" lon="7.11726">
        <ele>2661</ele>
        <time>2022-07-13T11:54:02Z</time>
      </trkpt>
      <trkpt lat="44.64504" lon="7.11732">
        <ele>2659</ele>
        <time>2022-07-13T11:54:07Z</time>
      </trkpt>
      <trkpt lat="44.64505" lon="7.11737">
        <ele>2658</ele>
        <time>2022-07-13T11:54:13Z</time>
      </trkpt>
      <trkpt lat="44.64509" lon="7.11735">
        <ele>2657</ele>
        <time>2022-07-13T11:54:17Z</time>
      </trkpt>
      <trkpt lat="44.64512" lon="7.11734">
        <ele>2655</ele>
        <time>2022-07-13T11:54:21Z</time>
      </trkpt>
      <trkpt lat="44.64515" lon="7.11731">
        <ele>2654</ele>
        <time>2022-07-13T11:54:27Z</time>
      </trkpt>
      <trkpt lat="44.64517" lon="7.11737">
        <ele>2653</ele>
        <time>2022-07-13T11:54:32Z</time>
      </trkpt>
      <trkpt lat="44.64517" lon="7.11742">
        <ele>2652</ele>
        <time>2022-07-13T11:54:36Z</time>
      </trkpt>
      <trkpt lat="44.64515" lon="7.11747">
        <ele>2651</ele>
        <time>2022-07-13T11:54:40Z</time>
      </trkpt>
      <trkpt lat="44.64516" lon="7.11753">
        <ele>2648</ele>
        <time>2022-07-13T11:54:43Z</time>
      </trkpt>
      <trkpt lat="44.6452" lon="7.11751">
        <ele>2647</ele>
        <time>2022-07-13T11:54:47Z</time>
      </trkpt>
      <trkpt lat="44.64524" lon="7.1175">
        <ele>2646</ele>
        <time>2022-07-13T11:54:52Z</time>
      </trkpt>
      <trkpt lat="44.64527" lon="7.1175">
        <ele>2646</ele>
        <time>2022-07-13T11:54:56Z</time>
      </trkpt>
      <trkpt lat="44.64531" lon="7.1175">
        <ele>2647</ele>
        <time>2022-07-13T11:55:00Z</time>
      </trkpt>
      <trkpt lat="44.64532" lon="7.11756">
        <ele>2646</ele>
        <time>2022-07-13T11:55:04Z</time>
      </trkpt>
      <trkpt lat="44.6453" lon="7.1176">
        <ele>2646</ele>
        <time>2022-07-13T11:55:08Z</time>
      </trkpt>
      <trkpt lat="44.64533" lon="7.11764">
        <ele>2645</ele>
        <time>2022-07-13T11:55:13Z</time>
      </trkpt>
      <trkpt lat="44.64537" lon="7.11766">
        <ele>2644</ele>
        <time>2022-07-13T11:55:18Z</time>
      </trkpt>
      <trkpt lat="44.64541" lon="7.11766">
        <ele>2644</ele>
        <time>2022-07-13T11:55:27Z</time>
      </trkpt>
      <trkpt lat="44.64548" lon="7.11765">
        <ele>2643</ele>
        <time>2022-07-13T11:55:37Z</time>
      </trkpt>
      <trkpt lat="44.64551" lon="7.11765">
        <ele>2641</ele>
        <time>2022-07-13T11:55:42Z</time>
      </trkpt>
      <trkpt lat="44.64556" lon="7.11764">
        <ele>2640</ele>
        <time>2022-07-13T11:55:47Z</time>
      </trkpt>
      <trkpt lat="44.64559" lon="7.11767">
        <ele>2639</ele>
        <time>2022-07-13T11:55:51Z</time>
      </trkpt>
      <trkpt lat="44.64563" lon="7.11768">
        <ele>2639</ele>
        <time>2022-07-13T11:55:55Z</time>
      </trkpt>
      <trkpt lat="44.64566" lon="7.11769">
        <ele>2638</ele>
        <time>2022-07-13T11:55:59Z</time>
      </trkpt>
      <trkpt lat="44.6457" lon="7.11771">
        <ele>2638</ele>
        <time>2022-07-13T11:56:04Z</time>
      </trkpt>
      <trkpt lat="44.64584" lon="7.11765">
        <ele>2637</ele>
        <time>2022-07-13T11:56:25Z</time>
      </trkpt>
      <trkpt lat="44.64592" lon="7.11768">
        <ele>2636</ele>
        <time>2022-07-13T11:56:33Z</time>
      </trkpt>
      <trkpt lat="44.64599" lon="7.11766">
        <ele>2636</ele>
        <time>2022-07-13T11:56:41Z</time>
      </trkpt>
      <trkpt lat="44.64606" lon="7.11763">
        <ele>2636</ele>
        <time>2022-07-13T11:56:53Z</time>
      </trkpt>
      <trkpt lat="44.6461" lon="7.11761">
        <ele>2636</ele>
        <time>2022-07-13T11:56:59Z</time>
      </trkpt>
      <trkpt lat="44.64613" lon="7.11761">
        <ele>2636</ele>
        <time>2022-07-13T11:57:05Z</time>
      </trkpt>
      <trkpt lat="44.6462" lon="7.11757">
        <ele>2637</ele>
        <time>2022-07-13T11:57:15Z</time>
      </trkpt>
      <trkpt lat="44.64628" lon="7.11757">
        <ele>2636</ele>
        <time>2022-07-13T11:57:25Z</time>
      </trkpt>
      <trkpt lat="44.64632" lon="7.1176">
        <ele>2635</ele>
        <time>2022-07-13T11:57:30Z</time>
      </trkpt>
      <trkpt lat="44.64636" lon="7.1176">
        <ele>2634</ele>
        <time>2022-07-13T11:57:34Z</time>
      </trkpt>
      <trkpt lat="44.64649" lon="7.11749">
        <ele>2631</ele>
        <time>2022-07-13T11:57:52Z</time>
      </trkpt>
      <trkpt lat="44.64653" lon="7.11746">
        <ele>2631</ele>
        <time>2022-07-13T11:57:56Z</time>
      </trkpt>
      <trkpt lat="44.64659" lon="7.11739">
        <ele>2630</ele>
        <time>2022-07-13T11:58:05Z</time>
      </trkpt>
      <trkpt lat="44.64661" lon="7.11735">
        <ele>2630</ele>
        <time>2022-07-13T11:58:09Z</time>
      </trkpt>
      <trkpt lat="44.64664" lon="7.11732">
        <ele>2630</ele>
        <time>2022-07-13T11:58:13Z</time>
      </trkpt>
      <trkpt lat="44.64667" lon="7.11729">
        <ele>2629</ele>
        <time>2022-07-13T11:58:18Z</time>
      </trkpt>
      <trkpt lat="44.64669" lon="7.11724">
        <ele>2628</ele>
        <time>2022-07-13T11:58:23Z</time>
      </trkpt>
      <trkpt lat="44.64674" lon="7.11717">
        <ele>2626</ele>
        <time>2022-07-13T11:58:32Z</time>
      </trkpt>
      <trkpt lat="44.64678" lon="7.11715">
        <ele>2627</ele>
        <time>2022-07-13T11:58:36Z</time>
      </trkpt>
      <trkpt lat="44.64681" lon="7.11712">
        <ele>2627</ele>
        <time>2022-07-13T11:58:40Z</time>
      </trkpt>
      <trkpt lat="44.64686" lon="7.11703">
        <ele>2627</ele>
        <time>2022-07-13T11:58:50Z</time>
      </trkpt>
      <trkpt lat="44.64687" lon="7.11698">
        <ele>2627</ele>
        <time>2022-07-13T11:58:56Z</time>
      </trkpt>
      <trkpt lat="44.64698" lon="7.11675">
        <ele>2624</ele>
        <time>2022-07-13T11:59:20Z</time>
      </trkpt>
      <trkpt lat="44.64701" lon="7.11671">
        <ele>2624</ele>
        <time>2022-07-13T11:59:25Z</time>
      </trkpt>
      <trkpt lat="44.64703" lon="7.11667">
        <ele>2624</ele>
        <time>2022-07-13T11:59:30Z</time>
      </trkpt>
      <trkpt lat="44.64706" lon="7.11664">
        <ele>2623</ele>
        <time>2022-07-13T11:59:35Z</time>
      </trkpt>
      <trkpt lat="44.64708" lon="7.1166">
        <ele>2622</ele>
        <time>2022-07-13T11:59:40Z</time>
      </trkpt>
      <trkpt lat="44.6471" lon="7.11655">
        <ele>2622</ele>
        <time>2022-07-13T11:59:45Z</time>
      </trkpt>
      <trkpt lat="44.64709" lon="7.1165">
        <ele>2620</ele>
        <time>2022-07-13T11:59:52Z</time>
      </trkpt>
      <trkpt lat="44.64711" lon="7.11646">
        <ele>2620</ele>
        <time>2022-07-13T11:59:58Z</time>
      </trkpt>
      <trkpt lat="44.64719" lon="7.11644">
        <ele>2620</ele>
        <time>2022-07-13T12:00:06Z</time>
      </trkpt>
      <trkpt lat="44.64729" lon="7.11638">
        <ele>2618</ele>
        <time>2022-07-13T12:00:18Z</time>
      </trkpt>
      <trkpt lat="44.64733" lon="7.11636">
        <ele>2617</ele>
        <time>2022-07-13T12:00:23Z</time>
      </trkpt>
      <trkpt lat="44.64737" lon="7.11634">
        <ele>2618</ele>
        <time>2022-07-13T12:00:28Z</time>
      </trkpt>
      <trkpt lat="44.64746" lon="7.11626">
        <ele>2619</ele>
        <time>2022-07-13T12:00:43Z</time>
      </trkpt>
      <trkpt lat="44.64747" lon="7.11621">
        <ele>2620</ele>
        <time>2022-07-13T12:00:49Z</time>
      </trkpt>
      <trkpt lat="44.64748" lon="7.11611">
        <ele>2620</ele>
        <time>2022-07-13T12:00:56Z</time>
      </trkpt>
      <trkpt lat="44.6475" lon="7.11606">
        <ele>2619</ele>
        <time>2022-07-13T12:00:59Z</time>
      </trkpt>
      <trkpt lat="44.64751" lon="7.11601">
        <ele>2618</ele>
        <time>2022-07-13T12:01:03Z</time>
      </trkpt>
      <trkpt lat="44.64757" lon="7.11593">
        <ele>2615</ele>
        <time>2022-07-13T12:01:11Z</time>
      </trkpt>
      <trkpt lat="44.64761" lon="7.11592">
        <ele>2615</ele>
        <time>2022-07-13T12:01:15Z</time>
      </trkpt>
      <trkpt lat="44.64774" lon="7.11596">
        <ele>2610</ele>
        <time>2022-07-13T12:01:27Z</time>
      </trkpt>
      <trkpt lat="44.64783" lon="7.116">
        <ele>2609</ele>
        <time>2022-07-13T12:01:35Z</time>
      </trkpt>
      <trkpt lat="44.6479" lon="7.11602">
        <ele>2607</ele>
        <time>2022-07-13T12:01:43Z</time>
      </trkpt>
      <trkpt lat="44.64794" lon="7.11601">
        <ele>2608</ele>
        <time>2022-07-13T12:01:47Z</time>
      </trkpt>
      <trkpt lat="44.64797" lon="7.11599">
        <ele>2608</ele>
        <time>2022-07-13T12:01:51Z</time>
      </trkpt>
      <trkpt lat="44.64801" lon="7.116">
        <ele>2610</ele>
        <time>2022-07-13T12:01:56Z</time>
      </trkpt>
      <trkpt lat="44.64805" lon="7.116">
        <ele>2611</ele>
        <time>2022-07-13T12:02:03Z</time>
      </trkpt>
      <trkpt lat="44.64808" lon="7.11598">
        <ele>2612</ele>
        <time>2022-07-13T12:02:08Z</time>
      </trkpt>
      <trkpt lat="44.64815" lon="7.11596">
        <ele>2614</ele>
        <time>2022-07-13T12:02:17Z</time>
      </trkpt>
      <trkpt lat="44.64823" lon="7.11594">
        <ele>2614</ele>
        <time>2022-07-13T12:02:27Z</time>
      </trkpt>
      <trkpt lat="44.64827" lon="7.11593">
        <ele>2615</ele>
        <time>2022-07-13T12:02:31Z</time>
      </trkpt>
      <trkpt lat="44.64833" lon="7.11587">
        <ele>2616</ele>
        <time>2022-07-13T12:02:40Z</time>
      </trkpt>
      <trkpt lat="44.64849" lon="7.11573">
        <ele>2617</ele>
        <time>2022-07-13T12:03:00Z</time>
      </trkpt>
      <trkpt lat="44.64857" lon="7.11569">
        <ele>2617</ele>
        <time>2022-07-13T12:03:08Z</time>
      </trkpt>
      <trkpt lat="44.64868" lon="7.11554">
        <ele>2613</ele>
        <time>2022-07-13T12:03:28Z</time>
      </trkpt>
      <trkpt lat="44.64876" lon="7.1155">
        <ele>2612</ele>
        <time>2022-07-13T12:03:37Z</time>
      </trkpt>
      <trkpt lat="44.6488" lon="7.11547">
        <ele>2612</ele>
        <time>2022-07-13T12:03:41Z</time>
      </trkpt>
      <trkpt lat="44.64894" lon="7.11539">
        <ele>2611</ele>
        <time>2022-07-13T12:03:59Z</time>
      </trkpt>
      <trkpt lat="44.64898" lon="7.11538">
        <ele>2611</ele>
        <time>2022-07-13T12:04:04Z</time>
      </trkpt>
      <trkpt lat="44.64905" lon="7.11534">
        <ele>2611</ele>
        <time>2022-07-13T12:04:13Z</time>
      </trkpt>
      <trkpt lat="44.64908" lon="7.11531">
        <ele>2611</ele>
        <time>2022-07-13T12:04:18Z</time>
      </trkpt>
      <trkpt lat="44.64924" lon="7.11502">
        <ele>2610</ele>
        <time>2022-07-13T12:04:52Z</time>
      </trkpt>
      <trkpt lat="44.64938" lon="7.11483">
        <ele>2608</ele>
        <time>2022-07-13T12:05:13Z</time>
      </trkpt>
      <trkpt lat="44.64945" lon="7.11479">
        <ele>2609</ele>
        <time>2022-07-13T12:05:21Z</time>
      </trkpt>
      <trkpt lat="44.64952" lon="7.11474">
        <ele>2609</ele>
        <time>2022-07-13T12:05:31Z</time>
      </trkpt>
      <trkpt lat="44.64962" lon="7.11452">
        <ele>2607</ele>
        <time>2022-07-13T12:05:54Z</time>
      </trkpt>
      <trkpt lat="44.64963" lon="7.11441">
        <ele>2608</ele>
        <time>2022-07-13T12:06:02Z</time>
      </trkpt>
      <trkpt lat="44.64965" lon="7.11436">
        <ele>2608</ele>
        <time>2022-07-13T12:06:06Z</time>
      </trkpt>
      <trkpt lat="44.64964" lon="7.11425">
        <ele>2606</ele>
        <time>2022-07-13T12:06:15Z</time>
      </trkpt>
      <trkpt lat="44.64967" lon="7.11423">
        <ele>2605</ele>
        <time>2022-07-13T12:06:18Z</time>
      </trkpt>
      <trkpt lat="44.64971" lon="7.11421">
        <ele>2604</ele>
        <time>2022-07-13T12:06:22Z</time>
      </trkpt>
      <trkpt lat="44.64983" lon="7.11424">
        <ele>2599</ele>
        <time>2022-07-13T12:06:33Z</time>
      </trkpt>
      <trkpt lat="44.64983" lon="7.11419">
        <ele>2599</ele>
        <time>2022-07-13T12:06:39Z</time>
      </trkpt>
      <trkpt lat="44.64981" lon="7.11414">
        <ele>2599</ele>
        <time>2022-07-13T12:06:43Z</time>
      </trkpt>
      <trkpt lat="44.64979" lon="7.11404">
        <ele>2598</ele>
        <time>2022-07-13T12:06:50Z</time>
      </trkpt>
      <trkpt lat="44.6498" lon="7.11398">
        <ele>2597</ele>
        <time>2022-07-13T12:06:54Z</time>
      </trkpt>
      <trkpt lat="44.6498" lon="7.11392">
        <ele>2598</ele>
        <time>2022-07-13T12:06:58Z</time>
      </trkpt>
      <trkpt lat="44.64978" lon="7.11387">
        <ele>2597</ele>
        <time>2022-07-13T12:07:02Z</time>
      </trkpt>
      <trkpt lat="44.64978" lon="7.11382">
        <ele>2598</ele>
        <time>2022-07-13T12:07:07Z</time>
      </trkpt>
      <trkpt lat="44.64979" lon="7.11377">
        <ele>2598</ele>
        <time>2022-07-13T12:07:13Z</time>
      </trkpt>
      <trkpt lat="44.64981" lon="7.11372">
        <ele>2599</ele>
        <time>2022-07-13T12:07:18Z</time>
      </trkpt>
      <trkpt lat="44.64983" lon="7.11368">
        <ele>2599</ele>
        <time>2022-07-13T12:07:23Z</time>
      </trkpt>
      <trkpt lat="44.64993" lon="7.11361">
        <ele>2601</ele>
        <time>2022-07-13T12:07:37Z</time>
      </trkpt>
      <trkpt lat="44.65001" lon="7.11357">
        <ele>2602</ele>
        <time>2022-07-13T12:07:46Z</time>
      </trkpt>
      <trkpt lat="44.65007" lon="7.11352">
        <ele>2602</ele>
        <time>2022-07-13T12:07:55Z</time>
      </trkpt>
      <trkpt lat="44.6501" lon="7.11349">
        <ele>2601</ele>
        <time>2022-07-13T12:07:59Z</time>
      </trkpt>
      <trkpt lat="44.65012" lon="7.11345">
        <ele>2601</ele>
        <time>2022-07-13T12:08:03Z</time>
      </trkpt>
      <trkpt lat="44.65012" lon="7.11339">
        <ele>2601</ele>
        <time>2022-07-13T12:08:07Z</time>
      </trkpt>
      <trkpt lat="44.65011" lon="7.11327">
        <ele>2600</ele>
        <time>2022-07-13T12:08:16Z</time>
      </trkpt>
      <trkpt lat="44.65011" lon="7.11322">
        <ele>2599</ele>
        <time>2022-07-13T12:08:20Z</time>
      </trkpt>
      <trkpt lat="44.65012" lon="7.11317">
        <ele>2599</ele>
        <time>2022-07-13T12:08:25Z</time>
      </trkpt>
      <trkpt lat="44.6502" lon="7.11305">
        <ele>2597</ele>
        <time>2022-07-13T12:08:37Z</time>
      </trkpt>
      <trkpt lat="44.65019" lon="7.113">
        <ele>2597</ele>
        <time>2022-07-13T12:08:42Z</time>
      </trkpt>
      <trkpt lat="44.65017" lon="7.11296">
        <ele>2595</ele>
        <time>2022-07-13T12:08:46Z</time>
      </trkpt>
      <trkpt lat="44.65016" lon="7.1129">
        <ele>2594</ele>
        <time>2022-07-13T12:08:51Z</time>
      </trkpt>
      <trkpt lat="44.65014" lon="7.11286">
        <ele>2592</ele>
        <time>2022-07-13T12:08:56Z</time>
      </trkpt>
      <trkpt lat="44.65015" lon="7.11281">
        <ele>2591</ele>
        <time>2022-07-13T12:09:01Z</time>
      </trkpt>
      <trkpt lat="44.65017" lon="7.11277">
        <ele>2592</ele>
        <time>2022-07-13T12:09:06Z</time>
      </trkpt>
      <trkpt lat="44.65033" lon="7.11261">
        <ele>2591</ele>
        <time>2022-07-13T12:09:27Z</time>
      </trkpt>
      <trkpt lat="44.65036" lon="7.11258">
        <ele>2592</ele>
        <time>2022-07-13T12:09:31Z</time>
      </trkpt>
      <trkpt lat="44.65048" lon="7.11253">
        <ele>2594</ele>
        <time>2022-07-13T12:09:45Z</time>
      </trkpt>
      <trkpt lat="44.65052" lon="7.11252">
        <ele>2594</ele>
        <time>2022-07-13T12:09:49Z</time>
      </trkpt>
      <trkpt lat="44.65061" lon="7.11243">
        <ele>2593</ele>
        <time>2022-07-13T12:10:01Z</time>
      </trkpt>
      <trkpt lat="44.65063" lon="7.11238">
        <ele>2593</ele>
        <time>2022-07-13T12:10:05Z</time>
      </trkpt>
      <trkpt lat="44.65064" lon="7.11233">
        <ele>2593</ele>
        <time>2022-07-13T12:10:09Z</time>
      </trkpt>
      <trkpt lat="44.65067" lon="7.11217">
        <ele>2591</ele>
        <time>2022-07-13T12:10:22Z</time>
      </trkpt>
      <trkpt lat="44.65071" lon="7.11213">
        <ele>2591</ele>
        <time>2022-07-13T12:10:26Z</time>
      </trkpt>
      <trkpt lat="44.65075" lon="7.11213">
        <ele>2591</ele>
        <time>2022-07-13T12:10:30Z</time>
      </trkpt>
      <trkpt lat="44.65078" lon="7.11217">
        <ele>2590</ele>
        <time>2022-07-13T12:10:35Z</time>
      </trkpt>
      <trkpt lat="44.65081" lon="7.11221">
        <ele>2588</ele>
        <time>2022-07-13T12:10:39Z</time>
      </trkpt>
      <trkpt lat="44.65084" lon="7.11223">
        <ele>2587</ele>
        <time>2022-07-13T12:10:43Z</time>
      </trkpt>
      <trkpt lat="44.65092" lon="7.11223">
        <ele>2586</ele>
        <time>2022-07-13T12:10:50Z</time>
      </trkpt>
      <trkpt lat="44.65102" lon="7.11219">
        <ele>2586</ele>
        <time>2022-07-13T12:11:02Z</time>
      </trkpt>
      <trkpt lat="44.65106" lon="7.11216">
        <ele>2585</ele>
        <time>2022-07-13T12:11:07Z</time>
      </trkpt>
      <trkpt lat="44.65118" lon="7.11203">
        <ele>2583</ele>
        <time>2022-07-13T12:11:24Z</time>
      </trkpt>
      <trkpt lat="44.65121" lon="7.11193">
        <ele>2581</ele>
        <time>2022-07-13T12:11:33Z</time>
      </trkpt>
      <trkpt lat="44.65121" lon="7.11187">
        <ele>2580</ele>
        <time>2022-07-13T12:11:37Z</time>
      </trkpt>
      <trkpt lat="44.65119" lon="7.1117">
        <ele>2575</ele>
        <time>2022-07-13T12:11:49Z</time>
      </trkpt>
      <trkpt lat="44.65118" lon="7.11165">
        <ele>2574</ele>
        <time>2022-07-13T12:11:53Z</time>
      </trkpt>
      <trkpt lat="44.65116" lon="7.1116">
        <ele>2573</ele>
        <time>2022-07-13T12:11:57Z</time>
      </trkpt>
      <trkpt lat="44.65119" lon="7.11156">
        <ele>2573</ele>
        <time>2022-07-13T12:12:01Z</time>
      </trkpt>
      <trkpt lat="44.65126" lon="7.11153">
        <ele>2572</ele>
        <time>2022-07-13T12:12:07Z</time>
      </trkpt>
      <trkpt lat="44.6513" lon="7.11154">
        <ele>2571</ele>
        <time>2022-07-13T12:12:11Z</time>
      </trkpt>
      <trkpt lat="44.65142" lon="7.11152">
        <ele>2570</ele>
        <time>2022-07-13T12:12:24Z</time>
      </trkpt>
      <trkpt lat="44.65145" lon="7.11152">
        <ele>2570</ele>
        <time>2022-07-13T12:12:29Z</time>
      </trkpt>
      <trkpt lat="44.65156" lon="7.11148">
        <ele>2574</ele>
        <time>2022-07-13T12:12:43Z</time>
      </trkpt>
      <trkpt lat="44.65159" lon="7.11144">
        <ele>2575</ele>
        <time>2022-07-13T12:12:48Z</time>
      </trkpt>
      <trkpt lat="44.6516" lon="7.11139">
        <ele>2574</ele>
        <time>2022-07-13T12:12:53Z</time>
      </trkpt>
      <trkpt lat="44.6516" lon="7.11134">
        <ele>2574</ele>
        <time>2022-07-13T12:12:56Z</time>
      </trkpt>
      <trkpt lat="44.65158" lon="7.11129">
        <ele>2574</ele>
        <time>2022-07-13T12:12:59Z</time>
      </trkpt>
      <trkpt lat="44.65159" lon="7.11124">
        <ele>2573</ele>
        <time>2022-07-13T12:13:03Z</time>
      </trkpt>
      <trkpt lat="44.65174" lon="7.11116">
        <ele>2576</ele>
        <time>2022-07-13T12:13:20Z</time>
      </trkpt>
      <trkpt lat="44.65176" lon="7.11111">
        <ele>2575</ele>
        <time>2022-07-13T12:13:33Z</time>
      </trkpt>
      <trkpt lat="44.65178" lon="7.11106">
        <ele>2574</ele>
        <time>2022-07-13T12:13:39Z</time>
      </trkpt>
      <trkpt lat="44.6518" lon="7.11102">
        <ele>2575</ele>
        <time>2022-07-13T12:13:46Z</time>
      </trkpt>
      <trkpt lat="44.65189" lon="7.11089">
        <ele>2575</ele>
        <time>2022-07-13T12:14:02Z</time>
      </trkpt>
      <trkpt lat="44.65193" lon="7.11089">
        <ele>2574</ele>
        <time>2022-07-13T12:14:07Z</time>
      </trkpt>
      <trkpt lat="44.65196" lon="7.11088">
        <ele>2575</ele>
        <time>2022-07-13T12:14:12Z</time>
      </trkpt>
      <trkpt lat="44.65203" lon="7.11081">
        <ele>2576</ele>
        <time>2022-07-13T12:14:33Z</time>
      </trkpt>
      <trkpt lat="44.65207" lon="7.1108">
        <ele>2575</ele>
        <time>2022-07-13T12:14:37Z</time>
      </trkpt>
      <trkpt lat="44.65221" lon="7.11071">
        <ele>2575</ele>
        <time>2022-07-13T12:14:58Z</time>
      </trkpt>
      <trkpt lat="44.65228" lon="7.11066">
        <ele>2575</ele>
        <time>2022-07-13T12:15:07Z</time>
      </trkpt>
      <trkpt lat="44.6524" lon="7.11054">
        <ele>2574</ele>
        <time>2022-07-13T12:15:27Z</time>
      </trkpt>
      <trkpt lat="44.65242" lon="7.11049">
        <ele>2573</ele>
        <time>2022-07-13T12:15:32Z</time>
      </trkpt>
      <trkpt lat="44.65245" lon="7.11045">
        <ele>2571</ele>
        <time>2022-07-13T12:15:40Z</time>
      </trkpt>
      <trkpt lat="44.65259" lon="7.11039">
        <ele>2572</ele>
        <time>2022-07-13T12:15:58Z</time>
      </trkpt>
      <trkpt lat="44.65263" lon="7.11038">
        <ele>2572</ele>
        <time>2022-07-13T12:16:03Z</time>
      </trkpt>
      <trkpt lat="44.65266" lon="7.11036">
        <ele>2573</ele>
        <time>2022-07-13T12:16:09Z</time>
      </trkpt>
      <trkpt lat="44.65271" lon="7.11035">
        <ele>2573</ele>
        <time>2022-07-13T12:16:14Z</time>
      </trkpt>
      <trkpt lat="44.65282" lon="7.1103">
        <ele>2574</ele>
        <time>2022-07-13T12:16:29Z</time>
      </trkpt>
      <trkpt lat="44.65286" lon="7.1103">
        <ele>2574</ele>
        <time>2022-07-13T12:16:33Z</time>
      </trkpt>
      <trkpt lat="44.65293" lon="7.11027">
        <ele>2574</ele>
        <time>2022-07-13T12:16:45Z</time>
      </trkpt>
      <trkpt lat="44.65297" lon="7.11024">
        <ele>2574</ele>
        <time>2022-07-13T12:16:50Z</time>
      </trkpt>
      <trkpt lat="44.653" lon="7.11022">
        <ele>2575</ele>
        <time>2022-07-13T12:16:54Z</time>
      </trkpt>
      <trkpt lat="44.65304" lon="7.1102">
        <ele>2575</ele>
        <time>2022-07-13T12:16:58Z</time>
      </trkpt>
      <trkpt lat="44.65312" lon="7.11002">
        <ele>2572</ele>
        <time>2022-07-13T12:17:19Z</time>
      </trkpt>
      <trkpt lat="44.65314" lon="7.10998">
        <ele>2571</ele>
        <time>2022-07-13T12:17:24Z</time>
      </trkpt>
      <trkpt lat="44.65316" lon="7.10994">
        <ele>2571</ele>
        <time>2022-07-13T12:17:28Z</time>
      </trkpt>
      <trkpt lat="44.65321" lon="7.10986">
        <ele>2571</ele>
        <time>2022-07-13T12:17:37Z</time>
      </trkpt>
      <trkpt lat="44.65332" lon="7.1098">
        <ele>2569</ele>
        <time>2022-07-13T12:17:49Z</time>
      </trkpt>
      <trkpt lat="44.65335" lon="7.10978">
        <ele>2568</ele>
        <time>2022-07-13T12:17:53Z</time>
      </trkpt>
      <trkpt lat="44.65337" lon="7.10968">
        <ele>2567</ele>
        <time>2022-07-13T12:18:04Z</time>
      </trkpt>
      <trkpt lat="44.65338" lon="7.10963">
        <ele>2565</ele>
        <time>2022-07-13T12:18:09Z</time>
      </trkpt>
      <trkpt lat="44.65339" lon="7.10958">
        <ele>2566</ele>
        <time>2022-07-13T12:18:14Z</time>
      </trkpt>
      <trkpt lat="44.65342" lon="7.10955">
        <ele>2567</ele>
        <time>2022-07-13T12:18:19Z</time>
      </trkpt>
      <trkpt lat="44.65344" lon="7.1095">
        <ele>2565</ele>
        <time>2022-07-13T12:18:25Z</time>
      </trkpt>
      <trkpt lat="44.65348" lon="7.10948">
        <ele>2565</ele>
        <time>2022-07-13T12:18:30Z</time>
      </trkpt>
      <trkpt lat="44.6535" lon="7.10945">
        <ele>2566</ele>
        <time>2022-07-13T12:18:35Z</time>
      </trkpt>
      <trkpt lat="44.65353" lon="7.10942">
        <ele>2566</ele>
        <time>2022-07-13T12:18:40Z</time>
      </trkpt>
      <trkpt lat="44.65356" lon="7.10938">
        <ele>2564</ele>
        <time>2022-07-13T12:18:46Z</time>
      </trkpt>
      <trkpt lat="44.65359" lon="7.10936">
        <ele>2563</ele>
        <time>2022-07-13T12:18:50Z</time>
      </trkpt>
      <trkpt lat="44.65362" lon="7.10933">
        <ele>2564</ele>
        <time>2022-07-13T12:18:54Z</time>
      </trkpt>
      <trkpt lat="44.65365" lon="7.1093">
        <ele>2565</ele>
        <time>2022-07-13T12:18:58Z</time>
      </trkpt>
      <trkpt lat="44.6537" lon="7.1093">
        <ele>2566</ele>
        <time>2022-07-13T12:19:03Z</time>
      </trkpt>
      <trkpt lat="44.65377" lon="7.10933">
        <ele>2567</ele>
        <time>2022-07-13T12:19:13Z</time>
      </trkpt>
      <trkpt lat="44.65381" lon="7.10933">
        <ele>2567</ele>
        <time>2022-07-13T12:19:18Z</time>
      </trkpt>
      <trkpt lat="44.65385" lon="7.10933">
        <ele>2567</ele>
        <time>2022-07-13T12:19:22Z</time>
      </trkpt>
      <trkpt lat="44.65392" lon="7.10926">
        <ele>2567</ele>
        <time>2022-07-13T12:19:33Z</time>
      </trkpt>
      <trkpt lat="44.65396" lon="7.10918">
        <ele>2570</ele>
        <time>2022-07-13T12:19:45Z</time>
      </trkpt>
      <trkpt lat="44.65407" lon="7.1091">
        <ele>2569</ele>
        <time>2022-07-13T12:19:58Z</time>
      </trkpt>
      <trkpt lat="44.65414" lon="7.10912">
        <ele>2570</ele>
        <time>2022-07-13T12:20:06Z</time>
      </trkpt>
      <trkpt lat="44.65419" lon="7.10911">
        <ele>2570</ele>
        <time>2022-07-13T12:20:10Z</time>
      </trkpt>
      <trkpt lat="44.65422" lon="7.10911">
        <ele>2571</ele>
        <time>2022-07-13T12:20:14Z</time>
      </trkpt>
      <trkpt lat="44.65426" lon="7.10911">
        <ele>2572</ele>
        <time>2022-07-13T12:20:19Z</time>
      </trkpt>
      <trkpt lat="44.65429" lon="7.10914">
        <ele>2570</ele>
        <time>2022-07-13T12:20:26Z</time>
      </trkpt>
      <trkpt lat="44.65433" lon="7.10914">
        <ele>2570</ele>
        <time>2022-07-13T12:20:31Z</time>
      </trkpt>
      <trkpt lat="44.65435" lon="7.10919">
        <ele>2569</ele>
        <time>2022-07-13T12:20:37Z</time>
      </trkpt>
      <trkpt lat="44.65435" lon="7.1093">
        <ele>2568</ele>
        <time>2022-07-13T12:20:45Z</time>
      </trkpt>
      <trkpt lat="44.65431" lon="7.10938">
        <ele>2567</ele>
        <time>2022-07-13T12:20:53Z</time>
      </trkpt>
      <trkpt lat="44.6543" lon="7.10943">
        <ele>2567</ele>
        <time>2022-07-13T12:20:58Z</time>
      </trkpt>
      <trkpt lat="44.65431" lon="7.10948">
        <ele>2567</ele>
        <time>2022-07-13T12:21:03Z</time>
      </trkpt>
      <trkpt lat="44.65429" lon="7.10957">
        <ele>2566</ele>
        <time>2022-07-13T12:21:13Z</time>
      </trkpt>
      <trkpt lat="44.65431" lon="7.10968">
        <ele>2565</ele>
        <time>2022-07-13T12:21:24Z</time>
      </trkpt>
      <trkpt lat="44.65434" lon="7.10972">
        <ele>2565</ele>
        <time>2022-07-13T12:21:29Z</time>
      </trkpt>
      <trkpt lat="44.65444" lon="7.10966">
        <ele>2568</ele>
        <time>2022-07-13T12:21:45Z</time>
      </trkpt>
      <trkpt lat="44.65448" lon="7.10966">
        <ele>2569</ele>
        <time>2022-07-13T12:21:50Z</time>
      </trkpt>
      <trkpt lat="44.65451" lon="7.10968">
        <ele>2570</ele>
        <time>2022-07-13T12:21:55Z</time>
      </trkpt>
      <trkpt lat="44.65455" lon="7.10968">
        <ele>2572</ele>
        <time>2022-07-13T12:22:00Z</time>
      </trkpt>
      <trkpt lat="44.65456" lon="7.10963">
        <ele>2572</ele>
        <time>2022-07-13T12:22:06Z</time>
      </trkpt>
      <trkpt lat="44.65457" lon="7.10958">
        <ele>2574</ele>
        <time>2022-07-13T12:22:12Z</time>
      </trkpt>
      <trkpt lat="44.65459" lon="7.10954">
        <ele>2575</ele>
        <time>2022-07-13T12:22:19Z</time>
      </trkpt>
      <trkpt lat="44.65463" lon="7.10951">
        <ele>2576</ele>
        <time>2022-07-13T12:22:24Z</time>
      </trkpt>
      <trkpt lat="44.65466" lon="7.10954">
        <ele>2575</ele>
        <time>2022-07-13T12:22:31Z</time>
      </trkpt>
      <trkpt lat="44.6547" lon="7.10956">
        <ele>2574</ele>
        <time>2022-07-13T12:22:35Z</time>
      </trkpt>
      <trkpt lat="44.65474" lon="7.10956">
        <ele>2573</ele>
        <time>2022-07-13T12:22:39Z</time>
      </trkpt>
      <trkpt lat="44.65485" lon="7.10957">
        <ele>2576</ele>
        <time>2022-07-13T12:22:52Z</time>
      </trkpt>
      <trkpt lat="44.65505" lon="7.10968">
        <ele>2577</ele>
        <time>2022-07-13T12:23:21Z</time>
      </trkpt>
      <trkpt lat="44.65516" lon="7.10969">
        <ele>2578</ele>
        <time>2022-07-13T12:23:34Z</time>
      </trkpt>
      <trkpt lat="44.65524" lon="7.10963">
        <ele>2576</ele>
        <time>2022-07-13T12:23:45Z</time>
      </trkpt>
      <trkpt lat="44.65527" lon="7.1096">
        <ele>2576</ele>
        <time>2022-07-13T12:23:50Z</time>
      </trkpt>
      <trkpt lat="44.6553" lon="7.1095">
        <ele>2574</ele>
        <time>2022-07-13T12:23:56Z</time>
      </trkpt>
      <trkpt lat="44.65533" lon="7.10946">
        <ele>2569</ele>
        <time>2022-07-13T12:24:01Z</time>
      </trkpt>
      <trkpt lat="44.65537" lon="7.10945">
        <ele>2569</ele>
        <time>2022-07-13T12:24:06Z</time>
      </trkpt>
      <trkpt lat="44.65544" lon="7.10945">
        <ele>2574</ele>
        <time>2022-07-13T12:24:14Z</time>
      </trkpt>
      <trkpt lat="44.65546" lon="7.1094">
        <ele>2576</ele>
        <time>2022-07-13T12:24:19Z</time>
      </trkpt>
      <trkpt lat="44.65551" lon="7.10932">
        <ele>2575</ele>
        <time>2022-07-13T12:24:29Z</time>
      </trkpt>
      <trkpt lat="44.65553" lon="7.10923">
        <ele>2574</ele>
        <time>2022-07-13T12:24:38Z</time>
      </trkpt>
      <trkpt lat="44.65554" lon="7.10917">
        <ele>2575</ele>
        <time>2022-07-13T12:24:43Z</time>
      </trkpt>
      <trkpt lat="44.65556" lon="7.10913">
        <ele>2573</ele>
        <time>2022-07-13T12:24:48Z</time>
      </trkpt>
      <trkpt lat="44.65559" lon="7.10909">
        <ele>2572</ele>
        <time>2022-07-13T12:24:53Z</time>
      </trkpt>
      <trkpt lat="44.65561" lon="7.10905">
        <ele>2570</ele>
        <time>2022-07-13T12:24:58Z</time>
      </trkpt>
      <trkpt lat="44.65563" lon="7.10901">
        <ele>2570</ele>
        <time>2022-07-13T12:25:03Z</time>
      </trkpt>
      <trkpt lat="44.65564" lon="7.10896">
        <ele>2573</ele>
        <time>2022-07-13T12:25:07Z</time>
      </trkpt>
      <trkpt lat="44.65566" lon="7.10892">
        <ele>2574</ele>
        <time>2022-07-13T12:25:11Z</time>
      </trkpt>
      <trkpt lat="44.65569" lon="7.10888">
        <ele>2576</ele>
        <time>2022-07-13T12:25:15Z</time>
      </trkpt>
      <trkpt lat="44.65578" lon="7.10876">
        <ele>2570</ele>
        <time>2022-07-13T12:25:29Z</time>
      </trkpt>
      <trkpt lat="44.65579" lon="7.10871">
        <ele>2570</ele>
        <time>2022-07-13T12:25:33Z</time>
      </trkpt>
      <trkpt lat="44.65581" lon="7.10866">
        <ele>2569</ele>
        <time>2022-07-13T12:25:37Z</time>
      </trkpt>
      <trkpt lat="44.65584" lon="7.10863">
        <ele>2568</ele>
        <time>2022-07-13T12:25:41Z</time>
      </trkpt>
      <trkpt lat="44.65596" lon="7.10841">
        <ele>2567</ele>
        <time>2022-07-13T12:26:04Z</time>
      </trkpt>
      <trkpt lat="44.65598" lon="7.10836">
        <ele>2566</ele>
        <time>2022-07-13T12:26:09Z</time>
      </trkpt>
      <trkpt lat="44.65602" lon="7.10835">
        <ele>2565</ele>
        <time>2022-07-13T12:26:13Z</time>
      </trkpt>
      <trkpt lat="44.65606" lon="7.10833">
        <ele>2566</ele>
        <time>2022-07-13T12:26:17Z</time>
      </trkpt>
      <trkpt lat="44.6561" lon="7.10833">
        <ele>2566</ele>
        <time>2022-07-13T12:26:21Z</time>
      </trkpt>
      <trkpt lat="44.65613" lon="7.10835">
        <ele>2567</ele>
        <time>2022-07-13T12:26:26Z</time>
      </trkpt>
      <trkpt lat="44.65614" lon="7.1084">
        <ele>2567</ele>
        <time>2022-07-13T12:26:31Z</time>
      </trkpt>
      <trkpt lat="44.65618" lon="7.10839">
        <ele>2567</ele>
        <time>2022-07-13T12:26:36Z</time>
      </trkpt>
      <trkpt lat="44.65621" lon="7.10836">
        <ele>2567</ele>
        <time>2022-07-13T12:26:42Z</time>
      </trkpt>
      <trkpt lat="44.65629" lon="7.10833">
        <ele>2567</ele>
        <time>2022-07-13T12:26:53Z</time>
      </trkpt>
      <trkpt lat="44.65634" lon="7.10826">
        <ele>2565</ele>
        <time>2022-07-13T12:27:04Z</time>
      </trkpt>
      <trkpt lat="44.65636" lon="7.10821">
        <ele>2564</ele>
        <time>2022-07-13T12:27:09Z</time>
      </trkpt>
      <trkpt lat="44.65638" lon="7.10817">
        <ele>2564</ele>
        <time>2022-07-13T12:27:14Z</time>
      </trkpt>
      <trkpt lat="44.65644" lon="7.10812">
        <ele>2563</ele>
        <time>2022-07-13T12:27:23Z</time>
      </trkpt>
      <trkpt lat="44.65651" lon="7.10811">
        <ele>2565</ele>
        <time>2022-07-13T12:27:32Z</time>
      </trkpt>
      <trkpt lat="44.65677" lon="7.10799">
        <ele>2559</ele>
        <time>2022-07-13T12:28:00Z</time>
      </trkpt>
      <trkpt lat="44.6568" lon="7.10796">
        <ele>2559</ele>
        <time>2022-07-13T12:28:07Z</time>
      </trkpt>
      <trkpt lat="44.65684" lon="7.10793">
        <ele>2559</ele>
        <time>2022-07-13T12:28:11Z</time>
      </trkpt>
      <trkpt lat="44.65688" lon="7.10792">
        <ele>2561</ele>
        <time>2022-07-13T12:28:15Z</time>
      </trkpt>
      <trkpt lat="44.65694" lon="7.10785">
        <ele>2562</ele>
        <time>2022-07-13T12:28:25Z</time>
      </trkpt>
      <trkpt lat="44.65701" lon="7.10779">
        <ele>2561</ele>
        <time>2022-07-13T12:28:33Z</time>
      </trkpt>
      <trkpt lat="44.65708" lon="7.10777">
        <ele>2561</ele>
        <time>2022-07-13T12:28:42Z</time>
      </trkpt>
      <trkpt lat="44.65716" lon="7.10774">
        <ele>2561</ele>
        <time>2022-07-13T12:28:52Z</time>
      </trkpt>
      <trkpt lat="44.65718" lon="7.1077">
        <ele>2561</ele>
        <time>2022-07-13T12:28:57Z</time>
      </trkpt>
      <trkpt lat="44.65721" lon="7.10768">
        <ele>2562</ele>
        <time>2022-07-13T12:29:02Z</time>
      </trkpt>
      <trkpt lat="44.65725" lon="7.10768">
        <ele>2562</ele>
        <time>2022-07-13T12:29:07Z</time>
      </trkpt>
      <trkpt lat="44.65729" lon="7.10768">
        <ele>2562</ele>
        <time>2022-07-13T12:29:12Z</time>
      </trkpt>
      <trkpt lat="44.65732" lon="7.1077">
        <ele>2562</ele>
        <time>2022-07-13T12:29:17Z</time>
      </trkpt>
      <trkpt lat="44.65735" lon="7.10774">
        <ele>2561</ele>
        <time>2022-07-13T12:29:22Z</time>
      </trkpt>
      <trkpt lat="44.65738" lon="7.10778">
        <ele>2560</ele>
        <time>2022-07-13T12:29:27Z</time>
      </trkpt>
      <trkpt lat="44.65741" lon="7.10782">
        <ele>2560</ele>
        <time>2022-07-13T12:29:32Z</time>
      </trkpt>
      <trkpt lat="44.65746" lon="7.10789">
        <ele>2559</ele>
        <time>2022-07-13T12:29:42Z</time>
      </trkpt>
      <trkpt lat="44.65753" lon="7.10797">
        <ele>2559</ele>
        <time>2022-07-13T12:29:53Z</time>
      </trkpt>
      <trkpt lat="44.65756" lon="7.108">
        <ele>2560</ele>
        <time>2022-07-13T12:29:58Z</time>
      </trkpt>
      <trkpt lat="44.65759" lon="7.10803">
        <ele>2561</ele>
        <time>2022-07-13T12:30:02Z</time>
      </trkpt>
      <trkpt lat="44.65765" lon="7.1081">
        <ele>2564</ele>
        <time>2022-07-13T12:30:12Z</time>
      </trkpt>
      <trkpt lat="44.65767" lon="7.10814">
        <ele>2564</ele>
        <time>2022-07-13T12:30:18Z</time>
      </trkpt>
      <trkpt lat="44.65775" lon="7.10824">
        <ele>2566</ele>
        <time>2022-07-13T12:30:35Z</time>
      </trkpt>
      <trkpt lat="44.65797" lon="7.10838">
        <ele>2571</ele>
        <time>2022-07-13T12:31:05Z</time>
      </trkpt>
      <trkpt lat="44.658" lon="7.10841">
        <ele>2571</ele>
        <time>2022-07-13T12:31:10Z</time>
      </trkpt>
      <trkpt lat="44.65802" lon="7.10845">
        <ele>2571</ele>
        <time>2022-07-13T12:31:16Z</time>
      </trkpt>
      <trkpt lat="44.65805" lon="7.1085">
        <ele>2571</ele>
        <time>2022-07-13T12:31:22Z</time>
      </trkpt>
      <trkpt lat="44.65812" lon="7.10852">
        <ele>2574</ele>
        <time>2022-07-13T12:31:31Z</time>
      </trkpt>
      <trkpt lat="44.65816" lon="7.10852">
        <ele>2575</ele>
        <time>2022-07-13T12:31:36Z</time>
      </trkpt>
      <trkpt lat="44.6582" lon="7.10851">
        <ele>2577</ele>
        <time>2022-07-13T12:31:41Z</time>
      </trkpt>
      <trkpt lat="44.65824" lon="7.10849">
        <ele>2577</ele>
        <time>2022-07-13T12:31:45Z</time>
      </trkpt>
      <trkpt lat="44.65827" lon="7.10849">
        <ele>2577</ele>
        <time>2022-07-13T12:31:50Z</time>
      </trkpt>
      <trkpt lat="44.65828" lon="7.10844">
        <ele>2578</ele>
        <time>2022-07-13T12:32:14Z</time>
      </trkpt>
      <trkpt lat="44.65836" lon="7.10845">
        <ele>2578</ele>
        <time>2022-07-13T12:32:19Z</time>
      </trkpt>
      <trkpt lat="44.6584" lon="7.10848">
        <ele>2578</ele>
        <time>2022-07-13T12:32:23Z</time>
      </trkpt>
      <trkpt lat="44.65844" lon="7.10848">
        <ele>2578</ele>
        <time>2022-07-13T12:32:28Z</time>
      </trkpt>
      <trkpt lat="44.65847" lon="7.1085">
        <ele>2577</ele>
        <time>2022-07-13T12:32:32Z</time>
      </trkpt>
      <trkpt lat="44.65859" lon="7.10848">
        <ele>2572</ele>
        <time>2022-07-13T12:32:44Z</time>
      </trkpt>
      <trkpt lat="44.65863" lon="7.10846">
        <ele>2573</ele>
        <time>2022-07-13T12:32:54Z</time>
      </trkpt>
      <trkpt lat="44.65884" lon="7.10857">
        <ele>2576</ele>
        <time>2022-07-13T12:33:28Z</time>
      </trkpt>
      <trkpt lat="44.65892" lon="7.10857">
        <ele>2577</ele>
        <time>2022-07-13T12:33:37Z</time>
      </trkpt>
      <trkpt lat="44.65896" lon="7.10856">
        <ele>2578</ele>
        <time>2022-07-13T12:33:42Z</time>
      </trkpt>
      <trkpt lat="44.65903" lon="7.10861">
        <ele>2578</ele>
        <time>2022-07-13T12:33:57Z</time>
      </trkpt>
      <trkpt lat="44.65915" lon="7.10862">
        <ele>2578</ele>
        <time>2022-07-13T12:34:10Z</time>
      </trkpt>
      <trkpt lat="44.65919" lon="7.10863">
        <ele>2578</ele>
        <time>2022-07-13T12:34:14Z</time>
      </trkpt>
      <trkpt lat="44.65922" lon="7.10865">
        <ele>2578</ele>
        <time>2022-07-13T12:34:18Z</time>
      </trkpt>
      <trkpt lat="44.65926" lon="7.10866">
        <ele>2577</ele>
        <time>2022-07-13T12:34:23Z</time>
      </trkpt>
      <trkpt lat="44.65946" lon="7.1087">
        <ele>2575</ele>
        <time>2022-07-13T12:34:44Z</time>
      </trkpt>
      <trkpt lat="44.65949" lon="7.10873">
        <ele>2575</ele>
        <time>2022-07-13T12:34:48Z</time>
      </trkpt>
      <trkpt lat="44.6596" lon="7.10877">
        <ele>2576</ele>
        <time>2022-07-13T12:35:01Z</time>
      </trkpt>
      <trkpt lat="44.6598" lon="7.10895">
        <ele>2577</ele>
        <time>2022-07-13T12:35:29Z</time>
      </trkpt>
      <trkpt lat="44.65984" lon="7.10896">
        <ele>2578</ele>
        <time>2022-07-13T12:35:34Z</time>
      </trkpt>
      <trkpt lat="44.65988" lon="7.10896">
        <ele>2579</ele>
        <time>2022-07-13T12:35:39Z</time>
      </trkpt>
      <trkpt lat="44.65992" lon="7.10896">
        <ele>2580</ele>
        <time>2022-07-13T12:35:44Z</time>
      </trkpt>
      <trkpt lat="44.66007" lon="7.10898">
        <ele>2581</ele>
        <time>2022-07-13T12:36:04Z</time>
      </trkpt>
      <trkpt lat="44.66018" lon="7.10902">
        <ele>2581</ele>
        <time>2022-07-13T12:36:18Z</time>
      </trkpt>
      <trkpt lat="44.66023" lon="7.10904">
        <ele>2580</ele>
        <time>2022-07-13T12:36:22Z</time>
      </trkpt>
      <trkpt lat="44.66024" lon="7.10909">
        <ele>2580</ele>
        <time>2022-07-13T12:36:26Z</time>
      </trkpt>
      <trkpt lat="44.66027" lon="7.10913">
        <ele>2580</ele>
        <time>2022-07-13T12:36:30Z</time>
      </trkpt>
      <trkpt lat="44.6603" lon="7.10916">
        <ele>2580</ele>
        <time>2022-07-13T12:36:34Z</time>
      </trkpt>
      <trkpt lat="44.66036" lon="7.10923">
        <ele>2580</ele>
        <time>2022-07-13T12:36:43Z</time>
      </trkpt>
      <trkpt lat="44.66043" lon="7.10936">
        <ele>2580</ele>
        <time>2022-07-13T12:37:08Z</time>
      </trkpt>
      <trkpt lat="44.66044" lon="7.10941">
        <ele>2580</ele>
        <time>2022-07-13T12:37:15Z</time>
      </trkpt>
      <trkpt lat="44.66047" lon="7.10938">
        <ele>2579</ele>
        <time>2022-07-13T12:37:31Z</time>
      </trkpt>
      <trkpt lat="44.6605" lon="7.10935">
        <ele>2576</ele>
        <time>2022-07-13T12:37:38Z</time>
      </trkpt>
      <trkpt lat="44.66052" lon="7.10931">
        <ele>2576</ele>
        <time>2022-07-13T12:37:42Z</time>
      </trkpt>
      <trkpt lat="44.66055" lon="7.10928">
        <ele>2575</ele>
        <time>2022-07-13T12:37:46Z</time>
      </trkpt>
      <trkpt lat="44.66057" lon="7.10923">
        <ele>2576</ele>
        <time>2022-07-13T12:37:51Z</time>
      </trkpt>
      <trkpt lat="44.66061" lon="7.10922">
        <ele>2576</ele>
        <time>2022-07-13T12:37:55Z</time>
      </trkpt>
      <trkpt lat="44.66064" lon="7.10924">
        <ele>2576</ele>
        <time>2022-07-13T12:37:59Z</time>
      </trkpt>
      <trkpt lat="44.66066" lon="7.10929">
        <ele>2578</ele>
        <time>2022-07-13T12:38:03Z</time>
      </trkpt>
      <trkpt lat="44.66069" lon="7.10938">
        <ele>2581</ele>
        <time>2022-07-13T12:38:13Z</time>
      </trkpt>
      <trkpt lat="44.66072" lon="7.10943">
        <ele>2582</ele>
        <time>2022-07-13T12:38:18Z</time>
      </trkpt>
      <trkpt lat="44.66093" lon="7.10952">
        <ele>2582</ele>
        <time>2022-07-13T12:38:50Z</time>
      </trkpt>
      <trkpt lat="44.66097" lon="7.10954">
        <ele>2581</ele>
        <time>2022-07-13T12:38:54Z</time>
      </trkpt>
      <trkpt lat="44.66101" lon="7.10955">
        <ele>2580</ele>
        <time>2022-07-13T12:38:58Z</time>
      </trkpt>
      <trkpt lat="44.66109" lon="7.10956">
        <ele>2578</ele>
        <time>2022-07-13T12:39:07Z</time>
      </trkpt>
      <trkpt lat="44.66135" lon="7.10955">
        <ele>2584</ele>
        <time>2022-07-13T12:39:41Z</time>
      </trkpt>
      <trkpt lat="44.66162" lon="7.10946">
        <ele>2589</ele>
        <time>2022-07-13T12:40:15Z</time>
      </trkpt>
      <trkpt lat="44.66165" lon="7.10944">
        <ele>2590</ele>
        <time>2022-07-13T12:40:21Z</time>
      </trkpt>
      <trkpt lat="44.66175" lon="7.10937">
        <ele>2594</ele>
        <time>2022-07-13T12:40:36Z</time>
      </trkpt>
      <trkpt lat="44.66179" lon="7.10934">
        <ele>2596</ele>
        <time>2022-07-13T12:40:42Z</time>
      </trkpt>
      <trkpt lat="44.66182" lon="7.1093">
        <ele>2597</ele>
        <time>2022-07-13T12:40:47Z</time>
      </trkpt>
      <trkpt lat="44.66185" lon="7.10927">
        <ele>2598</ele>
        <time>2022-07-13T12:40:52Z</time>
      </trkpt>
      <trkpt lat="44.66188" lon="7.10926">
        <ele>2599</ele>
        <time>2022-07-13T12:40:57Z</time>
      </trkpt>
      <trkpt lat="44.66195" lon="7.1092">
        <ele>2600</ele>
        <time>2022-07-13T12:41:07Z</time>
      </trkpt>
      <trkpt lat="44.66202" lon="7.10917">
        <ele>2600</ele>
        <time>2022-07-13T12:41:14Z</time>
      </trkpt>
      <trkpt lat="44.66207" lon="7.10915">
        <ele>2598</ele>
        <time>2022-07-13T12:41:17Z</time>
      </trkpt>
      <trkpt lat="44.6621" lon="7.10914">
        <ele>2596</ele>
        <time>2022-07-13T12:41:21Z</time>
      </trkpt>
      <trkpt lat="44.66214" lon="7.10916">
        <ele>2594</ele>
        <time>2022-07-13T12:41:26Z</time>
      </trkpt>
      <trkpt lat="44.66218" lon="7.10917">
        <ele>2594</ele>
        <time>2022-07-13T12:41:31Z</time>
      </trkpt>
      <trkpt lat="44.66237" lon="7.10934">
        <ele>2592</ele>
        <time>2022-07-13T12:42:01Z</time>
      </trkpt>
      <trkpt lat="44.66252" lon="7.10942">
        <ele>2595</ele>
        <time>2022-07-13T12:42:17Z</time>
      </trkpt>
      <trkpt lat="44.66275" lon="7.10944">
        <ele>2596</ele>
        <time>2022-07-13T12:42:49Z</time>
      </trkpt>
      <trkpt lat="44.66278" lon="7.10944">
        <ele>2596</ele>
        <time>2022-07-13T12:42:53Z</time>
      </trkpt>
      <trkpt lat="44.66283" lon="7.10945">
        <ele>2599</ele>
        <time>2022-07-13T12:42:58Z</time>
      </trkpt>
      <trkpt lat="44.66287" lon="7.10944">
        <ele>2600</ele>
        <time>2022-07-13T12:43:03Z</time>
      </trkpt>
      <trkpt lat="44.6629" lon="7.10944">
        <ele>2601</ele>
        <time>2022-07-13T12:43:07Z</time>
      </trkpt>
      <trkpt lat="44.66297" lon="7.10943">
        <ele>2603</ele>
        <time>2022-07-13T12:43:15Z</time>
      </trkpt>
      <trkpt lat="44.66309" lon="7.10943">
        <ele>2606</ele>
        <time>2022-07-13T12:43:29Z</time>
      </trkpt>
      <trkpt lat="44.66312" lon="7.10945">
        <ele>2607</ele>
        <time>2022-07-13T12:43:34Z</time>
      </trkpt>
      <trkpt lat="44.66317" lon="7.10954">
        <ele>2607</ele>
        <time>2022-07-13T12:43:43Z</time>
      </trkpt>
      <trkpt lat="44.66319" lon="7.10958">
        <ele>2607</ele>
        <time>2022-07-13T12:43:47Z</time>
      </trkpt>
      <trkpt lat="44.66321" lon="7.10962">
        <ele>2607</ele>
        <time>2022-07-13T12:43:52Z</time>
      </trkpt>
      <trkpt lat="44.66326" lon="7.1097">
        <ele>2608</ele>
        <time>2022-07-13T12:44:02Z</time>
      </trkpt>
      <trkpt lat="44.66328" lon="7.10975">
        <ele>2609</ele>
        <time>2022-07-13T12:44:07Z</time>
      </trkpt>
      <trkpt lat="44.6633" lon="7.10978">
        <ele>2609</ele>
        <time>2022-07-13T12:44:12Z</time>
      </trkpt>
      <trkpt lat="44.66337" lon="7.10981">
        <ele>2610</ele>
        <time>2022-07-13T12:44:24Z</time>
      </trkpt>
      <trkpt lat="44.66341" lon="7.10982">
        <ele>2611</ele>
        <time>2022-07-13T12:44:31Z</time>
      </trkpt>
      <trkpt lat="44.66344" lon="7.10983">
        <ele>2612</ele>
        <time>2022-07-13T12:44:35Z</time>
      </trkpt>
      <trkpt lat="44.66352" lon="7.10987">
        <ele>2615</ele>
        <time>2022-07-13T12:44:49Z</time>
      </trkpt>
      <trkpt lat="44.66355" lon="7.10989">
        <ele>2616</ele>
        <time>2022-07-13T12:44:57Z</time>
      </trkpt>
      <trkpt lat="44.66359" lon="7.1099">
        <ele>2616</ele>
        <time>2022-07-13T12:45:03Z</time>
      </trkpt>
      <trkpt lat="44.66367" lon="7.10988">
        <ele>2614</ele>
        <time>2022-07-13T12:45:14Z</time>
      </trkpt>
      <trkpt lat="44.66373" lon="7.10993">
        <ele>2616</ele>
        <time>2022-07-13T12:45:25Z</time>
      </trkpt>
      <trkpt lat="44.66388" lon="7.10995">
        <ele>2614</ele>
        <time>2022-07-13T12:45:43Z</time>
      </trkpt>
      <trkpt lat="44.66392" lon="7.10997">
        <ele>2614</ele>
        <time>2022-07-13T12:45:47Z</time>
      </trkpt>
      <trkpt lat="44.66395" lon="7.10997">
        <ele>2615</ele>
        <time>2022-07-13T12:45:51Z</time>
      </trkpt>
      <trkpt lat="44.66399" lon="7.10995">
        <ele>2615</ele>
        <time>2022-07-13T12:45:55Z</time>
      </trkpt>
      <trkpt lat="44.66403" lon="7.10995">
        <ele>2617</ele>
        <time>2022-07-13T12:45:59Z</time>
      </trkpt>
      <trkpt lat="44.66406" lon="7.10997">
        <ele>2617</ele>
        <time>2022-07-13T12:46:05Z</time>
      </trkpt>
      <trkpt lat="44.6641" lon="7.10996">
        <ele>2618</ele>
        <time>2022-07-13T12:46:11Z</time>
      </trkpt>
      <trkpt lat="44.66414" lon="7.10997">
        <ele>2619</ele>
        <time>2022-07-13T12:46:16Z</time>
      </trkpt>
      <trkpt lat="44.66418" lon="7.10998">
        <ele>2618</ele>
        <time>2022-07-13T12:46:27Z</time>
      </trkpt>
      <trkpt lat="44.66421" lon="7.10998">
        <ele>2619</ele>
        <time>2022-07-13T12:46:33Z</time>
      </trkpt>
      <trkpt lat="44.66429" lon="7.10997">
        <ele>2620</ele>
        <time>2022-07-13T12:46:45Z</time>
      </trkpt>
      <trkpt lat="44.66433" lon="7.10997">
        <ele>2620</ele>
        <time>2022-07-13T12:46:50Z</time>
      </trkpt>
      <trkpt lat="44.6644" lon="7.10994">
        <ele>2622</ele>
        <time>2022-07-13T12:47:00Z</time>
      </trkpt>
      <trkpt lat="44.66443" lon="7.10995">
        <ele>2623</ele>
        <time>2022-07-13T12:47:07Z</time>
      </trkpt>
      <trkpt lat="44.66447" lon="7.10997">
        <ele>2625</ele>
        <time>2022-07-13T12:47:13Z</time>
      </trkpt>
      <trkpt lat="44.6645" lon="7.10996">
        <ele>2625</ele>
        <time>2022-07-13T12:47:19Z</time>
      </trkpt>
      <trkpt lat="44.66454" lon="7.10996">
        <ele>2626</ele>
        <time>2022-07-13T12:47:26Z</time>
      </trkpt>
      <trkpt lat="44.66458" lon="7.10995">
        <ele>2626</ele>
        <time>2022-07-13T12:47:32Z</time>
      </trkpt>
      <trkpt lat="44.66479" lon="7.10991">
        <ele>2627</ele>
        <time>2022-07-13T12:48:05Z</time>
      </trkpt>
      <trkpt lat="44.66486" lon="7.1099">
        <ele>2629</ele>
        <time>2022-07-13T12:48:17Z</time>
      </trkpt>
      <trkpt lat="44.66489" lon="7.10987">
        <ele>2629</ele>
        <time>2022-07-13T12:48:23Z</time>
      </trkpt>
      <trkpt lat="44.66497" lon="7.10985">
        <ele>2630</ele>
        <time>2022-07-13T12:48:34Z</time>
      </trkpt>
      <trkpt lat="44.665" lon="7.10982">
        <ele>2632</ele>
        <time>2022-07-13T12:48:40Z</time>
      </trkpt>
      <trkpt lat="44.66503" lon="7.10982">
        <ele>2632</ele>
        <time>2022-07-13T12:48:45Z</time>
      </trkpt>
      <trkpt lat="44.66514" lon="7.10978">
        <ele>2635</ele>
        <time>2022-07-13T12:49:02Z</time>
      </trkpt>
      <trkpt lat="44.66517" lon="7.10976">
        <ele>2636</ele>
        <time>2022-07-13T12:49:08Z</time>
      </trkpt>
      <trkpt lat="44.66521" lon="7.10979">
        <ele>2636</ele>
        <time>2022-07-13T12:49:15Z</time>
      </trkpt>
      <trkpt lat="44.66523" lon="7.10983">
        <ele>2636</ele>
        <time>2022-07-13T12:49:23Z</time>
      </trkpt>
      <trkpt lat="44.66534" lon="7.1099">
        <ele>2637</ele>
        <time>2022-07-13T12:49:43Z</time>
      </trkpt>
      <trkpt lat="44.66541" lon="7.10993">
        <ele>2637</ele>
        <time>2022-07-13T12:49:56Z</time>
      </trkpt>
      <trkpt lat="44.66547" lon="7.11">
        <ele>2639</ele>
        <time>2022-07-13T12:50:03Z</time>
      </trkpt>
      <trkpt lat="44.66551" lon="7.10999">
        <ele>2640</ele>
        <time>2022-07-13T12:50:06Z</time>
      </trkpt>
      <trkpt lat="44.66554" lon="7.10996">
        <ele>2641</ele>
        <time>2022-07-13T12:50:11Z</time>
      </trkpt>
      <trkpt lat="44.66557" lon="7.10993">
        <ele>2640</ele>
        <time>2022-07-13T12:50:20Z</time>
      </trkpt>
      <trkpt lat="44.66557" lon="7.10988">
        <ele>2638</ele>
        <time>2022-07-13T12:50:37Z</time>
      </trkpt>
      <trkpt lat="44.66556" lon="7.10983">
        <ele>2638</ele>
        <time>2022-07-13T12:50:44Z</time>
      </trkpt>
      <trkpt lat="44.6656" lon="7.10984">
        <ele>2639</ele>
        <time>2022-07-13T12:50:51Z</time>
      </trkpt>
      <trkpt lat="44.66564" lon="7.10983">
        <ele>2639</ele>
        <time>2022-07-13T12:50:56Z</time>
      </trkpt>
      <trkpt lat="44.66563" lon="7.10978">
        <ele>2639</ele>
        <time>2022-07-13T12:51:03Z</time>
      </trkpt>
      <trkpt lat="44.66565" lon="7.10973">
        <ele>2640</ele>
        <time>2022-07-13T12:51:18Z</time>
      </trkpt>
      <trkpt lat="44.66569" lon="7.10973">
        <ele>2641</ele>
        <time>2022-07-13T12:51:25Z</time>
      </trkpt>
      <trkpt lat="44.66568" lon="7.10969">
        <ele>2641</ele>
        <time>2022-07-13T12:51:48Z</time>
      </trkpt>
      <trkpt lat="44.66565" lon="7.10974">
        <ele>2642</ele>
        <time>2022-07-13T12:51:52Z</time>
      </trkpt>
      <trkpt lat="44.66563" lon="7.1097">
        <ele>2642</ele>
        <time>2022-07-13T12:51:54Z</time>
      </trkpt>
    </trkseg>
  </trk>
</gpx>